<gpx version="1.1" creator="Apple Watch" xsi:schemaLocation="http://www.topografix.com/GPX/1/1 http://www.topografix.com/GPX/1/1/gpx.xsd http://www.garmin.com/xmlschemas/GpxExtensions/v3 http://www.garmin.com/xmlschemas/GpxExtensionsv3.xsd http://www.garmin.com/xmlschemas/TrackPointExtension/v1 http://www.garmin.com/xmlschemas/TrackPointExtensionv1.xsd" xmlns="http://www.topografix.com/GPX/1/1" xmlns:gpxtpx="http://www.garmin.com/xmlschemas/TrackPointExtension/v1" xmlns:gpxx="http://www.garmin.com/xmlschemas/GpxExtensions/v3" xmlns:xsi="http://www.w3.org/2001/XMLSchema-instance"><metadata><name>Bike with Agnes @大美督</name></metadata>
<trk><name>Bike with Agnes @大美督</name><type>cycling</type>
<trkseg>
<trkpt lat="22.4496843" lon="114.1803898">
<ele>11</ele><time>2023-03-19T08:09:22.623Z</time></trkpt>
<trkpt lat="22.4496518" lon="114.1803460">
<ele>11</ele><time>2023-03-19T08:09:28.999Z</time></trkpt>
<trkpt lat="22.4496216" lon="114.1802901">
<ele>11</ele><time>2023-03-19T08:09:30.999Z</time></trkpt>
<trkpt lat="22.4495884" lon="114.1802416">
<ele>11</ele><time>2023-03-19T08:09:32.999Z</time></trkpt>
<trkpt lat="22.4495589" lon="114.1801967">
<ele>11</ele><time>2023-03-19T08:09:34.998Z</time></trkpt>
<trkpt lat="22.4495330" lon="114.1801517">
<ele>11</ele><time>2023-03-19T08:09:36.998Z</time></trkpt>
<trkpt lat="22.4495142" lon="114.1800915">
<ele>11</ele><time>2023-03-19T08:09:38.998Z</time></trkpt>
<trkpt lat="22.4494876" lon="114.1800350">
<ele>11</ele><time>2023-03-19T08:09:42.998Z</time></trkpt>
<trkpt lat="22.4494832" lon="114.1799857">
<ele>11</ele><time>2023-03-19T08:09:45.998Z</time></trkpt>
<trkpt lat="22.4494735" lon="114.1799374">
<ele>11</ele><time>2023-03-19T08:09:48.998Z</time></trkpt>
<trkpt lat="22.4494571" lon="114.1798902">
<ele>11</ele><time>2023-03-19T08:09:50.998Z</time></trkpt>
<trkpt lat="22.4494374" lon="114.1798345">
<ele>11</ele><time>2023-03-19T08:09:53.998Z</time></trkpt>
<trkpt lat="22.4494281" lon="114.1797860">
<ele>11</ele><time>2023-03-19T08:09:55.998Z</time></trkpt>
<trkpt lat="22.4494108" lon="114.1797322">
<ele>11</ele><time>2023-03-19T08:09:57.998Z</time></trkpt>
<trkpt lat="22.4494101" lon="114.1796741">
<ele>11</ele><time>2023-03-19T08:09:59.998Z</time></trkpt>
<trkpt lat="22.4493959" lon="114.1796106">
<ele>11</ele><time>2023-03-19T08:10:01.998Z</time></trkpt>
<trkpt lat="22.4493965" lon="114.1795572">
<ele>11</ele><time>2023-03-19T08:10:03.998Z</time></trkpt>
<trkpt lat="22.4494001" lon="114.1794921">
<ele>11</ele><time>2023-03-19T08:10:05.998Z</time></trkpt>
<trkpt lat="22.4493905" lon="114.1794214">
<ele>11</ele><time>2023-03-19T08:10:07.998Z</time></trkpt>
<trkpt lat="22.4493924" lon="114.1793576">
<ele>11</ele><time>2023-03-19T08:10:10.998Z</time></trkpt>
<trkpt lat="22.4493963" lon="114.1792862">
<ele>11</ele><time>2023-03-19T08:10:13.998Z</time></trkpt>
<trkpt lat="22.4493920" lon="114.1792244">
<ele>11</ele><time>2023-03-19T08:10:15.998Z</time></trkpt>
<trkpt lat="22.4493938" lon="114.1791641">
<ele>11</ele><time>2023-03-19T08:10:17.998Z</time></trkpt>
<trkpt lat="22.4493903" lon="114.1790800">
<ele>11</ele><time>2023-03-19T08:10:19.998Z</time></trkpt>
<trkpt lat="22.4493920" lon="114.1790086">
<ele>11</ele><time>2023-03-19T08:10:21.998Z</time></trkpt>
<trkpt lat="22.4493919" lon="114.1789258">
<ele>11</ele><time>2023-03-19T08:10:23.999Z</time></trkpt>
<trkpt lat="22.4493920" lon="114.1788607">
<ele>11</ele><time>2023-03-19T08:10:25.999Z</time></trkpt>
<trkpt lat="22.4493934" lon="114.1787897">
<ele>11</ele><time>2023-03-19T08:10:27.999Z</time></trkpt>
<trkpt lat="22.4493986" lon="114.1787219">
<ele>11</ele><time>2023-03-19T08:10:29.999Z</time></trkpt>
<trkpt lat="22.4493924" lon="114.1786553">
<ele>11</ele><time>2023-03-19T08:10:31.999Z</time></trkpt>
<trkpt lat="22.4493985" lon="114.1786018">
<ele>11</ele><time>2023-03-19T08:10:38.999Z</time></trkpt>
<trkpt lat="22.4493965" lon="114.1785525">
<ele>11</ele><time>2023-03-19T08:10:41.999Z</time></trkpt>
<trkpt lat="22.4493938" lon="114.1784874">
<ele>11</ele><time>2023-03-19T08:10:44.999Z</time></trkpt>
<trkpt lat="22.4493933" lon="114.1784350">
<ele>11</ele><time>2023-03-19T08:10:46.999Z</time></trkpt>
<trkpt lat="22.4493932" lon="114.1783543">
<ele>11</ele><time>2023-03-19T08:10:49.999Z</time></trkpt>
<trkpt lat="22.4493988" lon="114.1782914">
<ele>11</ele><time>2023-03-19T08:10:51.999Z</time></trkpt>
<trkpt lat="22.4493909" lon="114.1782393">
<ele>11</ele><time>2023-03-19T08:10:54.999Z</time></trkpt>
<trkpt lat="22.4493900" lon="114.1781710">
<ele>11</ele><time>2023-03-19T08:10:58.999Z</time></trkpt>
<trkpt lat="22.4493902" lon="114.1780996">
<ele>11</ele><time>2023-03-19T08:11:00.999Z</time></trkpt>
<trkpt lat="22.4493839" lon="114.1780086">
<ele>11</ele><time>2023-03-19T08:11:02.999Z</time></trkpt>
<trkpt lat="22.4493841" lon="114.1779586">
<ele>11</ele><time>2023-03-19T08:11:03.999Z</time></trkpt>
<trkpt lat="22.4493902" lon="114.1778709">
<ele>11</ele><time>2023-03-19T08:11:05.999Z</time></trkpt>
<trkpt lat="22.4493993" lon="114.1777837">
<ele>11</ele><time>2023-03-19T08:11:07.999Z</time></trkpt>
<trkpt lat="22.4494231" lon="114.1777054">
<ele>11</ele><time>2023-03-19T08:11:09.999Z</time></trkpt>
<trkpt lat="22.4494393" lon="114.1776360">
<ele>11</ele><time>2023-03-19T08:11:11.999Z</time></trkpt>
<trkpt lat="22.4494849" lon="114.1775919">
<ele>11</ele><time>2023-03-19T08:11:13.999Z</time></trkpt>
<trkpt lat="22.4495432" lon="114.1776201">
<ele>11</ele><time>2023-03-19T08:11:16.999Z</time></trkpt>
<trkpt lat="22.4496083" lon="114.1776669">
<ele>11</ele><time>2023-03-19T08:11:20.999Z</time></trkpt>
<trkpt lat="22.4496658" lon="114.1776726">
<ele>11</ele><time>2023-03-19T08:11:22.999Z</time></trkpt>
<trkpt lat="22.4497207" lon="114.1776224">
<ele>11</ele><time>2023-03-19T08:11:25.999Z</time></trkpt>
<trkpt lat="22.4497427" lon="114.1775728">
<ele>11</ele><time>2023-03-19T08:11:27.999Z</time></trkpt>
<trkpt lat="22.4497682" lon="114.1775296">
<ele>11</ele><time>2023-03-19T08:11:29.999Z</time></trkpt>
<trkpt lat="22.4497892" lon="114.1774731">
<ele>11</ele><time>2023-03-19T08:11:33.999Z</time></trkpt>
<trkpt lat="22.4498069" lon="114.1774259">
<ele>11</ele><time>2023-03-19T08:11:37.999Z</time></trkpt>
<trkpt lat="22.4498445" lon="114.1773857">
<ele>11</ele><time>2023-03-19T08:11:42.998Z</time></trkpt>
<trkpt lat="22.4498563" lon="114.1773383">
<ele>12</ele><time>2023-03-19T08:11:44.998Z</time></trkpt>
<trkpt lat="22.4498821" lon="114.1772817">
<ele>12</ele><time>2023-03-19T08:11:47.998Z</time></trkpt>
<trkpt lat="22.4499165" lon="114.1772463">
<ele>13</ele><time>2023-03-19T08:11:59.998Z</time></trkpt>
<trkpt lat="22.4499562" lon="114.1772054">
<ele>13</ele><time>2023-03-19T08:12:08.998Z</time></trkpt>
<trkpt lat="22.4499957" lon="114.1772401">
<ele>13</ele><time>2023-03-19T08:12:11.998Z</time></trkpt>
<trkpt lat="22.4500554" lon="114.1772867">
<ele>13</ele><time>2023-03-19T08:12:13.998Z</time></trkpt>
<trkpt lat="22.4501011" lon="114.1773218">
<ele>13</ele><time>2023-03-19T08:12:15.998Z</time></trkpt>
<trkpt lat="22.4501537" lon="114.1773491">
<ele>12</ele><time>2023-03-19T08:12:17.998Z</time></trkpt>
<trkpt lat="22.4502437" lon="114.1773518">
<ele>12</ele><time>2023-03-19T08:12:19.998Z</time></trkpt>
<trkpt lat="22.4503165" lon="114.1773653">
<ele>12</ele><time>2023-03-19T08:12:21.998Z</time></trkpt>
<trkpt lat="22.4503899" lon="114.1773680">
<ele>12</ele><time>2023-03-19T08:12:23.998Z</time></trkpt>
<trkpt lat="22.4504547" lon="114.1773875">
<ele>12</ele><time>2023-03-19T08:12:25.998Z</time></trkpt>
<trkpt lat="22.4505376" lon="114.1774118">
<ele>12</ele><time>2023-03-19T08:12:27.998Z</time></trkpt>
<trkpt lat="22.4506343" lon="114.1774419">
<ele>12</ele><time>2023-03-19T08:12:30.000Z</time></trkpt>
<trkpt lat="22.4506898" lon="114.1774535">
<ele>11</ele><time>2023-03-19T08:12:31.000Z</time></trkpt>
<trkpt lat="22.4507384" lon="114.1774545">
<ele>11</ele><time>2023-03-19T08:12:32.000Z</time></trkpt>
<trkpt lat="22.4507974" lon="114.1774504">
<ele>11</ele><time>2023-03-19T08:12:33.000Z</time></trkpt>
<trkpt lat="22.4508578" lon="114.1774774">
<ele>11</ele><time>2023-03-19T08:12:35.000Z</time></trkpt>
<trkpt lat="22.4509106" lon="114.1774821">
<ele>11</ele><time>2023-03-19T08:12:37.000Z</time></trkpt>
<trkpt lat="22.4509653" lon="114.1774805">
<ele>11</ele><time>2023-03-19T08:12:40.000Z</time></trkpt>
<trkpt lat="22.4510352" lon="114.1774785">
<ele>10</ele><time>2023-03-19T08:12:43.000Z</time></trkpt>
<trkpt lat="22.4510984" lon="114.1774559">
<ele>10</ele><time>2023-03-19T08:12:45.000Z</time></trkpt>
<trkpt lat="22.4511653" lon="114.1774163">
<ele>10</ele><time>2023-03-19T08:12:47.000Z</time></trkpt>
<trkpt lat="22.4511902" lon="114.1773499">
<ele>10</ele><time>2023-03-19T08:12:47.999Z</time></trkpt>
<trkpt lat="22.4512074" lon="114.1772860">
<ele>10</ele><time>2023-03-19T08:12:49.999Z</time></trkpt>
<trkpt lat="22.4512249" lon="114.1772150">
<ele>10</ele><time>2023-03-19T08:12:52.017Z</time></trkpt>
<trkpt lat="22.4512453" lon="114.1771454">
<ele>10</ele><time>2023-03-19T08:12:54.018Z</time></trkpt>
<trkpt lat="22.4512905" lon="114.1769317">
<ele>10</ele><time>2023-03-19T08:12:56.999Z</time></trkpt>
<trkpt lat="22.4513266" lon="114.1769609">
<ele>10</ele><time>2023-03-19T08:12:59.999Z</time></trkpt>
<trkpt lat="22.4513781" lon="114.1769536">
<ele>10</ele><time>2023-03-19T08:13:00.999Z</time></trkpt>
<trkpt lat="22.4514310" lon="114.1769441">
<ele>10</ele><time>2023-03-19T08:13:02.999Z</time></trkpt>
<trkpt lat="22.4514897" lon="114.1769699">
<ele>10</ele><time>2023-03-19T08:13:04.999Z</time></trkpt>
<trkpt lat="22.4515632" lon="114.1769753">
<ele>10</ele><time>2023-03-19T08:13:06.999Z</time></trkpt>
<trkpt lat="22.4516334" lon="114.1769802">
<ele>11</ele><time>2023-03-19T08:13:08.999Z</time></trkpt>
<trkpt lat="22.4517105" lon="114.1770115">
<ele>11</ele><time>2023-03-19T08:13:10.999Z</time></trkpt>
<trkpt lat="22.4517668" lon="114.1770099">
<ele>11</ele><time>2023-03-19T08:13:12.999Z</time></trkpt>
<trkpt lat="22.4518308" lon="114.1770275">
<ele>11</ele><time>2023-03-19T08:13:15.999Z</time></trkpt>
<trkpt lat="22.4518878" lon="114.1770392">
<ele>11</ele><time>2023-03-19T08:13:19.999Z</time></trkpt>
<trkpt lat="22.4519604" lon="114.1770612">
<ele>11</ele><time>2023-03-19T08:13:22.999Z</time></trkpt>
<trkpt lat="22.4520151" lon="114.1770879">
<ele>11</ele><time>2023-03-19T08:13:25.999Z</time></trkpt>
<trkpt lat="22.4520686" lon="114.1771021">
<ele>11</ele><time>2023-03-19T08:13:28.999Z</time></trkpt>
<trkpt lat="22.4521203" lon="114.1771293">
<ele>11</ele><time>2023-03-19T08:13:31.999Z</time></trkpt>
<trkpt lat="22.4521671" lon="114.1771518">
<ele>12</ele><time>2023-03-19T08:13:33.999Z</time></trkpt>
<trkpt lat="22.4522039" lon="114.1771850">
<ele>12</ele><time>2023-03-19T08:13:36.999Z</time></trkpt>
<trkpt lat="22.4522630" lon="114.1772057">
<ele>12</ele><time>2023-03-19T08:13:39.999Z</time></trkpt>
<trkpt lat="22.4523189" lon="114.1772474">
<ele>12</ele><time>2023-03-19T08:13:41.999Z</time></trkpt>
<trkpt lat="22.4523645" lon="114.1772920">
<ele>12</ele><time>2023-03-19T08:13:46.999Z</time></trkpt>
<trkpt lat="22.4524136" lon="114.1773101">
<ele>13</ele><time>2023-03-19T08:13:49.999Z</time></trkpt>
<trkpt lat="22.4524709" lon="114.1773296">
<ele>13</ele><time>2023-03-19T08:13:54.998Z</time></trkpt>
<trkpt lat="22.4525279" lon="114.1773500">
<ele>13</ele><time>2023-03-19T08:13:57.998Z</time></trkpt>
<trkpt lat="22.4525716" lon="114.1773737">
<ele>13</ele><time>2023-03-19T08:13:59.998Z</time></trkpt>
<trkpt lat="22.4526365" lon="114.1774025">
<ele>13</ele><time>2023-03-19T08:14:02.998Z</time></trkpt>
<trkpt lat="22.4526921" lon="114.1774266">
<ele>13</ele><time>2023-03-19T08:14:05.998Z</time></trkpt>
<trkpt lat="22.4527387" lon="114.1774503">
<ele>12</ele><time>2023-03-19T08:14:07.998Z</time></trkpt>
<trkpt lat="22.4527990" lon="114.1774808">
<ele>12</ele><time>2023-03-19T08:14:10.998Z</time></trkpt>
<trkpt lat="22.4528505" lon="114.1775067">
<ele>12</ele><time>2023-03-19T08:14:12.998Z</time></trkpt>
<trkpt lat="22.4528997" lon="114.1775240">
<ele>12</ele><time>2023-03-19T08:14:14.998Z</time></trkpt>
<trkpt lat="22.4529447" lon="114.1775605">
<ele>12</ele><time>2023-03-19T08:14:17.998Z</time></trkpt>
<trkpt lat="22.4529872" lon="114.1775832">
<ele>12</ele><time>2023-03-19T08:14:18.998Z</time></trkpt>
<trkpt lat="22.4530506" lon="114.1776008">
<ele>12</ele><time>2023-03-19T08:14:20.998Z</time></trkpt>
<trkpt lat="22.4531112" lon="114.1776169">
<ele>12</ele><time>2023-03-19T08:14:22.998Z</time></trkpt>
<trkpt lat="22.4531752" lon="114.1776445">
<ele>12</ele><time>2023-03-19T08:14:24.998Z</time></trkpt>
<trkpt lat="22.4532300" lon="114.1776606">
<ele>12</ele><time>2023-03-19T08:14:26.998Z</time></trkpt>
<trkpt lat="22.4532832" lon="114.1776775">
<ele>12</ele><time>2023-03-19T08:14:28.998Z</time></trkpt>
<trkpt lat="22.4533424" lon="114.1776978">
<ele>12</ele><time>2023-03-19T08:14:30.998Z</time></trkpt>
<trkpt lat="22.4534077" lon="114.1777048">
<ele>11</ele><time>2023-03-19T08:14:32.998Z</time></trkpt>
<trkpt lat="22.4534722" lon="114.1777336">
<ele>11</ele><time>2023-03-19T08:14:34.998Z</time></trkpt>
<trkpt lat="22.4535390" lon="114.1777525">
<ele>11</ele><time>2023-03-19T08:14:37.000Z</time></trkpt>
<trkpt lat="22.4535874" lon="114.1777871">
<ele>11</ele><time>2023-03-19T08:14:59.000Z</time><extensions><gpxtpx:TrackPointExtension><gpxtpx:hr>129</gpxtpx:hr></gpxtpx:TrackPointExtension></extensions></trkpt>
<trkpt lat="22.4536323" lon="114.1777938">
<ele>11</ele><time>2023-03-19T08:15:00.999Z</time><extensions><gpxtpx:TrackPointExtension><gpxtpx:hr>129</gpxtpx:hr></gpxtpx:TrackPointExtension></extensions></trkpt>
<trkpt lat="22.4536778" lon="114.1778066">
<ele>11</ele><time>2023-03-19T08:15:02.999Z</time><extensions><gpxtpx:TrackPointExtension><gpxtpx:hr>128</gpxtpx:hr></gpxtpx:TrackPointExtension></extensions></trkpt>
<trkpt lat="22.4537244" lon="114.1778135">
<ele>11</ele><time>2023-03-19T08:15:04.999Z</time><extensions><gpxtpx:TrackPointExtension><gpxtpx:hr>128</gpxtpx:hr></gpxtpx:TrackPointExtension></extensions></trkpt>
<trkpt lat="22.4537704" lon="114.1778214">
<ele>11</ele><time>2023-03-19T08:15:06.999Z</time><extensions><gpxtpx:TrackPointExtension><gpxtpx:hr>129</gpxtpx:hr></gpxtpx:TrackPointExtension></extensions></trkpt>
<trkpt lat="22.4538166" lon="114.1778251">
<ele>11</ele><time>2023-03-19T08:15:08.999Z</time><extensions><gpxtpx:TrackPointExtension><gpxtpx:hr>129</gpxtpx:hr></gpxtpx:TrackPointExtension></extensions></trkpt>
<trkpt lat="22.4538811" lon="114.1778396">
<ele>11</ele><time>2023-03-19T08:15:11.999Z</time><extensions><gpxtpx:TrackPointExtension><gpxtpx:hr>129</gpxtpx:hr></gpxtpx:TrackPointExtension></extensions></trkpt>
<trkpt lat="22.4539413" lon="114.1778421">
<ele>11</ele><time>2023-03-19T08:16:35.998Z</time><extensions><gpxtpx:TrackPointExtension><gpxtpx:hr>128</gpxtpx:hr></gpxtpx:TrackPointExtension></extensions></trkpt>
<trkpt lat="22.4539907" lon="114.1778476">
<ele>11</ele><time>2023-03-19T08:16:38.998Z</time><extensions><gpxtpx:TrackPointExtension><gpxtpx:hr>127</gpxtpx:hr></gpxtpx:TrackPointExtension></extensions></trkpt>
<trkpt lat="22.4540414" lon="114.1778557">
<ele>11</ele><time>2023-03-19T08:16:42.000Z</time><extensions><gpxtpx:TrackPointExtension><gpxtpx:hr>126</gpxtpx:hr></gpxtpx:TrackPointExtension></extensions></trkpt>
<trkpt lat="22.4540937" lon="114.1778635">
<ele>11</ele><time>2023-03-19T08:16:46.000Z</time><extensions><gpxtpx:TrackPointExtension><gpxtpx:hr>126</gpxtpx:hr></gpxtpx:TrackPointExtension></extensions></trkpt>
<trkpt lat="22.4541480" lon="114.1778653">
<ele>11</ele><time>2023-03-19T08:16:49.000Z</time><extensions><gpxtpx:TrackPointExtension><gpxtpx:hr>126</gpxtpx:hr></gpxtpx:TrackPointExtension></extensions></trkpt>
<trkpt lat="22.4542023" lon="114.1778610">
<ele>11</ele><time>2023-03-19T08:16:52.000Z</time><extensions><gpxtpx:TrackPointExtension><gpxtpx:hr>127</gpxtpx:hr></gpxtpx:TrackPointExtension></extensions></trkpt>
<trkpt lat="22.4542625" lon="114.1778689">
<ele>11</ele><time>2023-03-19T08:17:01.000Z</time><extensions><gpxtpx:TrackPointExtension><gpxtpx:hr>130</gpxtpx:hr></gpxtpx:TrackPointExtension></extensions></trkpt>
<trkpt lat="22.4543100" lon="114.1778673">
<ele>11</ele><time>2023-03-19T08:17:03.000Z</time><extensions><gpxtpx:TrackPointExtension><gpxtpx:hr>130</gpxtpx:hr></gpxtpx:TrackPointExtension></extensions></trkpt>
<trkpt lat="22.4543682" lon="114.1778709">
<ele>11</ele><time>2023-03-19T08:17:04.999Z</time><extensions><gpxtpx:TrackPointExtension><gpxtpx:hr>130</gpxtpx:hr></gpxtpx:TrackPointExtension></extensions></trkpt>
<trkpt lat="22.4544362" lon="114.1778651">
<ele>11</ele><time>2023-03-19T08:17:06.999Z</time><extensions><gpxtpx:TrackPointExtension><gpxtpx:hr>132</gpxtpx:hr></gpxtpx:TrackPointExtension></extensions></trkpt>
<trkpt lat="22.4544899" lon="114.1778513">
<ele>11</ele><time>2023-03-19T08:17:08.999Z</time><extensions><gpxtpx:TrackPointExtension><gpxtpx:hr>132</gpxtpx:hr></gpxtpx:TrackPointExtension></extensions></trkpt>
<trkpt lat="22.4545433" lon="114.1778481">
<ele>11</ele><time>2023-03-19T08:17:10.999Z</time><extensions><gpxtpx:TrackPointExtension><gpxtpx:hr>132</gpxtpx:hr></gpxtpx:TrackPointExtension></extensions></trkpt>
<trkpt lat="22.4545904" lon="114.1778399">
<ele>11</ele><time>2023-03-19T08:17:12.999Z</time><extensions><gpxtpx:TrackPointExtension><gpxtpx:hr>132</gpxtpx:hr></gpxtpx:TrackPointExtension></extensions></trkpt>
<trkpt lat="22.4546393" lon="114.1778341">
<ele>11</ele><time>2023-03-19T08:17:14.999Z</time><extensions><gpxtpx:TrackPointExtension><gpxtpx:hr>132</gpxtpx:hr></gpxtpx:TrackPointExtension></extensions></trkpt>
<trkpt lat="22.4546844" lon="114.1778280">
<ele>11</ele><time>2023-03-19T08:17:16.999Z</time><extensions><gpxtpx:TrackPointExtension><gpxtpx:hr>132</gpxtpx:hr></gpxtpx:TrackPointExtension></extensions></trkpt>
<trkpt lat="22.4547308" lon="114.1778186">
<ele>11</ele><time>2023-03-19T08:17:19.999Z</time><extensions><gpxtpx:TrackPointExtension><gpxtpx:hr>132</gpxtpx:hr></gpxtpx:TrackPointExtension></extensions></trkpt>
<trkpt lat="22.4547887" lon="114.1778070">
<ele>11</ele><time>2023-03-19T08:17:22.999Z</time><extensions><gpxtpx:TrackPointExtension><gpxtpx:hr>132</gpxtpx:hr></gpxtpx:TrackPointExtension></extensions></trkpt>
<trkpt lat="22.4548573" lon="114.1778068">
<ele>11</ele><time>2023-03-19T08:17:25.999Z</time><extensions><gpxtpx:TrackPointExtension><gpxtpx:hr>132</gpxtpx:hr></gpxtpx:TrackPointExtension></extensions></trkpt>
<trkpt lat="22.4549092" lon="114.1777842">
<ele>11</ele><time>2023-03-19T08:17:27.999Z</time><extensions><gpxtpx:TrackPointExtension><gpxtpx:hr>132</gpxtpx:hr></gpxtpx:TrackPointExtension></extensions></trkpt>
<trkpt lat="22.4549609" lon="114.1777771">
<ele>11</ele><time>2023-03-19T08:17:29.999Z</time><extensions><gpxtpx:TrackPointExtension><gpxtpx:hr>132</gpxtpx:hr></gpxtpx:TrackPointExtension></extensions></trkpt>
<trkpt lat="22.4550147" lon="114.1777461">
<ele>11</ele><time>2023-03-19T08:17:31.999Z</time><extensions><gpxtpx:TrackPointExtension><gpxtpx:hr>132</gpxtpx:hr></gpxtpx:TrackPointExtension></extensions></trkpt>
<trkpt lat="22.4550692" lon="114.1777184">
<ele>11</ele><time>2023-03-19T08:17:33.999Z</time><extensions><gpxtpx:TrackPointExtension><gpxtpx:hr>132</gpxtpx:hr></gpxtpx:TrackPointExtension></extensions></trkpt>
<trkpt lat="22.4551396" lon="114.1776801">
<ele>11</ele><time>2023-03-19T08:17:35.999Z</time><extensions><gpxtpx:TrackPointExtension><gpxtpx:hr>132</gpxtpx:hr></gpxtpx:TrackPointExtension></extensions></trkpt>
<trkpt lat="22.4552124" lon="114.1776398">
<ele>11</ele><time>2023-03-19T08:17:37.999Z</time><extensions><gpxtpx:TrackPointExtension><gpxtpx:hr>132</gpxtpx:hr></gpxtpx:TrackPointExtension></extensions></trkpt>
<trkpt lat="22.4552907" lon="114.1775990">
<ele>11</ele><time>2023-03-19T08:17:39.999Z</time><extensions><gpxtpx:TrackPointExtension><gpxtpx:hr>132</gpxtpx:hr></gpxtpx:TrackPointExtension></extensions></trkpt>
<trkpt lat="22.4553724" lon="114.1775592">
<ele>11</ele><time>2023-03-19T08:17:41.999Z</time><extensions><gpxtpx:TrackPointExtension><gpxtpx:hr>132</gpxtpx:hr></gpxtpx:TrackPointExtension></extensions></trkpt>
<trkpt lat="22.4554213" lon="114.1775487">
<ele>11</ele><time>2023-03-19T08:17:42.999Z</time><extensions><gpxtpx:TrackPointExtension><gpxtpx:hr>132</gpxtpx:hr></gpxtpx:TrackPointExtension></extensions></trkpt>
<trkpt lat="22.4554710" lon="114.1775332">
<ele>11</ele><time>2023-03-19T08:17:43.999Z</time><extensions><gpxtpx:TrackPointExtension><gpxtpx:hr>132</gpxtpx:hr></gpxtpx:TrackPointExtension></extensions></trkpt>
<trkpt lat="22.4555175" lon="114.1775163">
<ele>10</ele><time>2023-03-19T08:17:44.999Z</time><extensions><gpxtpx:TrackPointExtension><gpxtpx:hr>132</gpxtpx:hr></gpxtpx:TrackPointExtension></extensions></trkpt>
<trkpt lat="22.4555996" lon="114.1774998">
<ele>10</ele><time>2023-03-19T08:17:46.999Z</time><extensions><gpxtpx:TrackPointExtension><gpxtpx:hr>132</gpxtpx:hr></gpxtpx:TrackPointExtension></extensions></trkpt>
<trkpt lat="22.4556721" lon="114.1774875">
<ele>10</ele><time>2023-03-19T08:17:48.999Z</time><extensions><gpxtpx:TrackPointExtension><gpxtpx:hr>132</gpxtpx:hr></gpxtpx:TrackPointExtension></extensions></trkpt>
<trkpt lat="22.4557451" lon="114.1774755">
<ele>10</ele><time>2023-03-19T08:17:50.999Z</time><extensions><gpxtpx:TrackPointExtension><gpxtpx:hr>132</gpxtpx:hr></gpxtpx:TrackPointExtension></extensions></trkpt>
<trkpt lat="22.4558135" lon="114.1774510">
<ele>10</ele><time>2023-03-19T08:17:52.999Z</time><extensions><gpxtpx:TrackPointExtension><gpxtpx:hr>124</gpxtpx:hr></gpxtpx:TrackPointExtension></extensions></trkpt>
<trkpt lat="22.4558778" lon="114.1774302">
<ele>10</ele><time>2023-03-19T08:17:54.999Z</time><extensions><gpxtpx:TrackPointExtension><gpxtpx:hr>124</gpxtpx:hr></gpxtpx:TrackPointExtension></extensions></trkpt>
<trkpt lat="22.4559472" lon="114.1774030">
<ele>10</ele><time>2023-03-19T08:17:56.999Z</time><extensions><gpxtpx:TrackPointExtension><gpxtpx:hr>124</gpxtpx:hr></gpxtpx:TrackPointExtension></extensions></trkpt>
<trkpt lat="22.4560148" lon="114.1773636">
<ele>10</ele><time>2023-03-19T08:17:58.999Z</time><extensions><gpxtpx:TrackPointExtension><gpxtpx:hr>124</gpxtpx:hr></gpxtpx:TrackPointExtension></extensions></trkpt>
<trkpt lat="22.4560946" lon="114.1773409">
<ele>10</ele><time>2023-03-19T08:18:00.999Z</time><extensions><gpxtpx:TrackPointExtension><gpxtpx:hr>124</gpxtpx:hr></gpxtpx:TrackPointExtension></extensions></trkpt>
<trkpt lat="22.4561408" lon="114.1773258">
<ele>10</ele><time>2023-03-19T08:18:01.999Z</time><extensions><gpxtpx:TrackPointExtension><gpxtpx:hr>124</gpxtpx:hr></gpxtpx:TrackPointExtension></extensions></trkpt>
<trkpt lat="22.4562130" lon="114.1773071">
<ele>10</ele><time>2023-03-19T08:18:03.999Z</time><extensions><gpxtpx:TrackPointExtension><gpxtpx:hr>124</gpxtpx:hr></gpxtpx:TrackPointExtension></extensions></trkpt>
<trkpt lat="22.4562832" lon="114.1772599">
<ele>10</ele><time>2023-03-19T08:18:05.999Z</time><extensions><gpxtpx:TrackPointExtension><gpxtpx:hr>124</gpxtpx:hr></gpxtpx:TrackPointExtension></extensions></trkpt>
<trkpt lat="22.4563333" lon="114.1772188">
<ele>10</ele><time>2023-03-19T08:18:07.998Z</time><extensions><gpxtpx:TrackPointExtension><gpxtpx:hr>124</gpxtpx:hr></gpxtpx:TrackPointExtension></extensions></trkpt>
<trkpt lat="22.4564021" lon="114.1772333">
<ele>10</ele><time>2023-03-19T08:18:09.998Z</time><extensions><gpxtpx:TrackPointExtension><gpxtpx:hr>124</gpxtpx:hr></gpxtpx:TrackPointExtension></extensions></trkpt>
<trkpt lat="22.4564702" lon="114.1772649">
<ele>10</ele><time>2023-03-19T08:18:11.998Z</time><extensions><gpxtpx:TrackPointExtension><gpxtpx:hr>124</gpxtpx:hr></gpxtpx:TrackPointExtension></extensions></trkpt>
<trkpt lat="22.4565500" lon="114.1772882">
<ele>10</ele><time>2023-03-19T08:18:13.998Z</time><extensions><gpxtpx:TrackPointExtension><gpxtpx:hr>124</gpxtpx:hr></gpxtpx:TrackPointExtension></extensions></trkpt>
<trkpt lat="22.4566008" lon="114.1772875">
<ele>9</ele><time>2023-03-19T08:18:14.998Z</time><extensions><gpxtpx:TrackPointExtension><gpxtpx:hr>124</gpxtpx:hr></gpxtpx:TrackPointExtension></extensions></trkpt>
<trkpt lat="22.4566693" lon="114.1772950">
<ele>9</ele><time>2023-03-19T08:18:16.998Z</time><extensions><gpxtpx:TrackPointExtension><gpxtpx:hr>124</gpxtpx:hr></gpxtpx:TrackPointExtension></extensions></trkpt>
<trkpt lat="22.4567419" lon="114.1773010">
<ele>9</ele><time>2023-03-19T08:18:19.020Z</time><extensions><gpxtpx:TrackPointExtension><gpxtpx:hr>124</gpxtpx:hr></gpxtpx:TrackPointExtension></extensions></trkpt>
<trkpt lat="22.4568039" lon="114.1773169">
<ele>9</ele><time>2023-03-19T08:18:21.021Z</time><extensions><gpxtpx:TrackPointExtension><gpxtpx:hr>124</gpxtpx:hr></gpxtpx:TrackPointExtension></extensions></trkpt>
<trkpt lat="22.4568645" lon="114.1773213">
<ele>9</ele><time>2023-03-19T08:18:22.998Z</time><extensions><gpxtpx:TrackPointExtension><gpxtpx:hr>121</gpxtpx:hr></gpxtpx:TrackPointExtension></extensions></trkpt>
<trkpt lat="22.4569633" lon="114.1772954">
<ele>9</ele><time>2023-03-19T08:18:23.998Z</time><extensions><gpxtpx:TrackPointExtension><gpxtpx:hr>121</gpxtpx:hr></gpxtpx:TrackPointExtension></extensions></trkpt>
<trkpt lat="22.4570078" lon="114.1772433">
<ele>9</ele><time>2023-03-19T08:18:25.998Z</time><extensions><gpxtpx:TrackPointExtension><gpxtpx:hr>121</gpxtpx:hr></gpxtpx:TrackPointExtension></extensions></trkpt>
<trkpt lat="22.4570748" lon="114.1772168">
<ele>10</ele><time>2023-03-19T08:18:27.998Z</time><extensions><gpxtpx:TrackPointExtension><gpxtpx:hr>123</gpxtpx:hr></gpxtpx:TrackPointExtension></extensions></trkpt>
<trkpt lat="22.4571197" lon="114.1772826">
<ele>10</ele><time>2023-03-19T08:18:29.998Z</time><extensions><gpxtpx:TrackPointExtension><gpxtpx:hr>123</gpxtpx:hr></gpxtpx:TrackPointExtension></extensions></trkpt>
<trkpt lat="22.4571808" lon="114.1773357">
<ele>10</ele><time>2023-03-19T08:18:31.998Z</time><extensions><gpxtpx:TrackPointExtension><gpxtpx:hr>123</gpxtpx:hr></gpxtpx:TrackPointExtension></extensions></trkpt>
<trkpt lat="22.4572496" lon="114.1773635">
<ele>10</ele><time>2023-03-19T08:18:33.998Z</time><extensions><gpxtpx:TrackPointExtension><gpxtpx:hr>123</gpxtpx:hr></gpxtpx:TrackPointExtension></extensions></trkpt>
<trkpt lat="22.4573236" lon="114.1773762">
<ele>10</ele><time>2023-03-19T08:18:35.998Z</time><extensions><gpxtpx:TrackPointExtension><gpxtpx:hr>123</gpxtpx:hr></gpxtpx:TrackPointExtension></extensions></trkpt>
<trkpt lat="22.4573969" lon="114.1773963">
<ele>10</ele><time>2023-03-19T08:18:37.998Z</time><extensions><gpxtpx:TrackPointExtension><gpxtpx:hr>123</gpxtpx:hr></gpxtpx:TrackPointExtension></extensions></trkpt>
<trkpt lat="22.4574633" lon="114.1774059">
<ele>11</ele><time>2023-03-19T08:18:39.998Z</time><extensions><gpxtpx:TrackPointExtension><gpxtpx:hr>123</gpxtpx:hr></gpxtpx:TrackPointExtension></extensions></trkpt>
<trkpt lat="22.4575265" lon="114.1774245">
<ele>11</ele><time>2023-03-19T08:18:41.998Z</time><extensions><gpxtpx:TrackPointExtension><gpxtpx:hr>123</gpxtpx:hr></gpxtpx:TrackPointExtension></extensions></trkpt>
<trkpt lat="22.4575764" lon="114.1774391">
<ele>11</ele><time>2023-03-19T08:18:43.998Z</time><extensions><gpxtpx:TrackPointExtension><gpxtpx:hr>123</gpxtpx:hr></gpxtpx:TrackPointExtension></extensions></trkpt>
<trkpt lat="22.4576251" lon="114.1774593">
<ele>11</ele><time>2023-03-19T08:18:46.998Z</time><extensions><gpxtpx:TrackPointExtension><gpxtpx:hr>123</gpxtpx:hr></gpxtpx:TrackPointExtension></extensions></trkpt>
<trkpt lat="22.4576946" lon="114.1774587">
<ele>11</ele><time>2023-03-19T08:18:50.000Z</time><extensions><gpxtpx:TrackPointExtension><gpxtpx:hr>123</gpxtpx:hr></gpxtpx:TrackPointExtension></extensions></trkpt>
<trkpt lat="22.4577425" lon="114.1774721">
<ele>11</ele><time>2023-03-19T08:18:52.000Z</time><extensions><gpxtpx:TrackPointExtension><gpxtpx:hr>123</gpxtpx:hr></gpxtpx:TrackPointExtension></extensions></trkpt>
<trkpt lat="22.4577906" lon="114.1774750">
<ele>11</ele><time>2023-03-19T08:18:54.000Z</time><extensions><gpxtpx:TrackPointExtension><gpxtpx:hr>123</gpxtpx:hr></gpxtpx:TrackPointExtension></extensions></trkpt>
<trkpt lat="22.4578585" lon="114.1774939">
<ele>11</ele><time>2023-03-19T08:18:57.000Z</time><extensions><gpxtpx:TrackPointExtension><gpxtpx:hr>123</gpxtpx:hr></gpxtpx:TrackPointExtension></extensions></trkpt>
<trkpt lat="22.4579098" lon="114.1775069">
<ele>11</ele><time>2023-03-19T08:18:59.000Z</time><extensions><gpxtpx:TrackPointExtension><gpxtpx:hr>123</gpxtpx:hr></gpxtpx:TrackPointExtension></extensions></trkpt>
<trkpt lat="22.4579686" lon="114.1775301">
<ele>11</ele><time>2023-03-19T08:19:01.000Z</time><extensions><gpxtpx:TrackPointExtension><gpxtpx:hr>123</gpxtpx:hr></gpxtpx:TrackPointExtension></extensions></trkpt>
<trkpt lat="22.4580216" lon="114.1775551">
<ele>11</ele><time>2023-03-19T08:19:03.000Z</time><extensions><gpxtpx:TrackPointExtension><gpxtpx:hr>123</gpxtpx:hr></gpxtpx:TrackPointExtension></extensions></trkpt>
<trkpt lat="22.4580837" lon="114.1775672">
<ele>11</ele><time>2023-03-19T08:19:05.000Z</time><extensions><gpxtpx:TrackPointExtension><gpxtpx:hr>123</gpxtpx:hr></gpxtpx:TrackPointExtension></extensions></trkpt>
<trkpt lat="22.4581375" lon="114.1775919">
<ele>11</ele><time>2023-03-19T08:19:07.000Z</time><extensions><gpxtpx:TrackPointExtension><gpxtpx:hr>123</gpxtpx:hr></gpxtpx:TrackPointExtension></extensions></trkpt>
<trkpt lat="22.4581926" lon="114.1776097">
<ele>11</ele><time>2023-03-19T08:19:08.999Z</time><extensions><gpxtpx:TrackPointExtension><gpxtpx:hr>123</gpxtpx:hr></gpxtpx:TrackPointExtension></extensions></trkpt>
<trkpt lat="22.4582467" lon="114.1776273">
<ele>11</ele><time>2023-03-19T08:19:10.999Z</time><extensions><gpxtpx:TrackPointExtension><gpxtpx:hr>123</gpxtpx:hr></gpxtpx:TrackPointExtension></extensions></trkpt>
<trkpt lat="22.4583013" lon="114.1776454">
<ele>11</ele><time>2023-03-19T08:19:12.999Z</time><extensions><gpxtpx:TrackPointExtension><gpxtpx:hr>123</gpxtpx:hr></gpxtpx:TrackPointExtension></extensions></trkpt>
<trkpt lat="22.4583533" lon="114.1776625">
<ele>11</ele><time>2023-03-19T08:19:14.999Z</time><extensions><gpxtpx:TrackPointExtension><gpxtpx:hr>123</gpxtpx:hr></gpxtpx:TrackPointExtension></extensions></trkpt>
<trkpt lat="22.4584096" lon="114.1776811">
<ele>11</ele><time>2023-03-19T08:19:16.999Z</time><extensions><gpxtpx:TrackPointExtension><gpxtpx:hr>123</gpxtpx:hr></gpxtpx:TrackPointExtension></extensions></trkpt>
<trkpt lat="22.4584677" lon="114.1777146">
<ele>11</ele><time>2023-03-19T08:19:18.999Z</time><extensions><gpxtpx:TrackPointExtension><gpxtpx:hr>123</gpxtpx:hr></gpxtpx:TrackPointExtension></extensions></trkpt>
<trkpt lat="22.4585137" lon="114.1777463">
<ele>11</ele><time>2023-03-19T08:19:20.999Z</time><extensions><gpxtpx:TrackPointExtension><gpxtpx:hr>123</gpxtpx:hr></gpxtpx:TrackPointExtension></extensions></trkpt>
<trkpt lat="22.4585746" lon="114.1777776">
<ele>11</ele><time>2023-03-19T08:19:23.999Z</time><extensions><gpxtpx:TrackPointExtension><gpxtpx:hr>123</gpxtpx:hr></gpxtpx:TrackPointExtension></extensions></trkpt>
<trkpt lat="22.4586281" lon="114.1778171">
<ele>11</ele><time>2023-03-19T08:19:26.999Z</time><extensions><gpxtpx:TrackPointExtension><gpxtpx:hr>123</gpxtpx:hr></gpxtpx:TrackPointExtension></extensions></trkpt>
<trkpt lat="22.4586736" lon="114.1778502">
<ele>11</ele><time>2023-03-19T08:19:28.999Z</time><extensions><gpxtpx:TrackPointExtension><gpxtpx:hr>123</gpxtpx:hr></gpxtpx:TrackPointExtension></extensions></trkpt>
<trkpt lat="22.4587204" lon="114.1778870">
<ele>11</ele><time>2023-03-19T08:19:30.999Z</time><extensions><gpxtpx:TrackPointExtension><gpxtpx:hr>123</gpxtpx:hr></gpxtpx:TrackPointExtension></extensions></trkpt>
<trkpt lat="22.4587796" lon="114.1779268">
<ele>11</ele><time>2023-03-19T08:19:32.999Z</time><extensions><gpxtpx:TrackPointExtension><gpxtpx:hr>123</gpxtpx:hr></gpxtpx:TrackPointExtension></extensions></trkpt>
<trkpt lat="22.4588364" lon="114.1779783">
<ele>11</ele><time>2023-03-19T08:19:34.999Z</time><extensions><gpxtpx:TrackPointExtension><gpxtpx:hr>123</gpxtpx:hr></gpxtpx:TrackPointExtension></extensions></trkpt>
<trkpt lat="22.4588966" lon="114.1780306">
<ele>11</ele><time>2023-03-19T08:19:36.999Z</time><extensions><gpxtpx:TrackPointExtension><gpxtpx:hr>123</gpxtpx:hr></gpxtpx:TrackPointExtension></extensions></trkpt>
<trkpt lat="22.4589506" lon="114.1780924">
<ele>11</ele><time>2023-03-19T08:19:38.999Z</time><extensions><gpxtpx:TrackPointExtension><gpxtpx:hr>123</gpxtpx:hr></gpxtpx:TrackPointExtension></extensions></trkpt>
<trkpt lat="22.4589978" lon="114.1781520">
<ele>11</ele><time>2023-03-19T08:19:40.999Z</time><extensions><gpxtpx:TrackPointExtension><gpxtpx:hr>123</gpxtpx:hr></gpxtpx:TrackPointExtension></extensions></trkpt>
<trkpt lat="22.4590398" lon="114.1782120">
<ele>11</ele><time>2023-03-19T08:19:42.999Z</time><extensions><gpxtpx:TrackPointExtension><gpxtpx:hr>123</gpxtpx:hr></gpxtpx:TrackPointExtension></extensions></trkpt>
<trkpt lat="22.4590842" lon="114.1782653">
<ele>11</ele><time>2023-03-19T08:19:44.999Z</time><extensions><gpxtpx:TrackPointExtension><gpxtpx:hr>121</gpxtpx:hr></gpxtpx:TrackPointExtension></extensions></trkpt>
<trkpt lat="22.4591218" lon="114.1783285">
<ele>11</ele><time>2023-03-19T08:19:46.999Z</time><extensions><gpxtpx:TrackPointExtension><gpxtpx:hr>121</gpxtpx:hr></gpxtpx:TrackPointExtension></extensions></trkpt>
<trkpt lat="22.4591617" lon="114.1783851">
<ele>11</ele><time>2023-03-19T08:19:48.999Z</time><extensions><gpxtpx:TrackPointExtension><gpxtpx:hr>121</gpxtpx:hr></gpxtpx:TrackPointExtension></extensions></trkpt>
<trkpt lat="22.4591986" lon="114.1784569">
<ele>11</ele><time>2023-03-19T08:19:50.999Z</time><extensions><gpxtpx:TrackPointExtension><gpxtpx:hr>121</gpxtpx:hr></gpxtpx:TrackPointExtension></extensions></trkpt>
<trkpt lat="22.4592260" lon="114.1785362">
<ele>11</ele><time>2023-03-19T08:19:52.999Z</time><extensions><gpxtpx:TrackPointExtension><gpxtpx:hr>121</gpxtpx:hr></gpxtpx:TrackPointExtension></extensions></trkpt>
<trkpt lat="22.4592600" lon="114.1786212">
<ele>11</ele><time>2023-03-19T08:19:54.999Z</time><extensions><gpxtpx:TrackPointExtension><gpxtpx:hr>121</gpxtpx:hr></gpxtpx:TrackPointExtension></extensions></trkpt>
<trkpt lat="22.4592830" lon="114.1787035">
<ele>11</ele><time>2023-03-19T08:19:56.999Z</time><extensions><gpxtpx:TrackPointExtension><gpxtpx:hr>121</gpxtpx:hr></gpxtpx:TrackPointExtension></extensions></trkpt>
<trkpt lat="22.4593056" lon="114.1787719">
<ele>11</ele><time>2023-03-19T08:19:58.999Z</time><extensions><gpxtpx:TrackPointExtension><gpxtpx:hr>121</gpxtpx:hr></gpxtpx:TrackPointExtension></extensions></trkpt>
<trkpt lat="22.4593141" lon="114.1788398">
<ele>11</ele><time>2023-03-19T08:20:00.999Z</time><extensions><gpxtpx:TrackPointExtension><gpxtpx:hr>121</gpxtpx:hr></gpxtpx:TrackPointExtension></extensions></trkpt>
<trkpt lat="22.4593265" lon="114.1789028">
<ele>11</ele><time>2023-03-19T08:20:02.999Z</time><extensions><gpxtpx:TrackPointExtension><gpxtpx:hr>120</gpxtpx:hr></gpxtpx:TrackPointExtension></extensions></trkpt>
<trkpt lat="22.4593312" lon="114.1789668">
<ele>11</ele><time>2023-03-19T08:20:04.999Z</time><extensions><gpxtpx:TrackPointExtension><gpxtpx:hr>120</gpxtpx:hr></gpxtpx:TrackPointExtension></extensions></trkpt>
<trkpt lat="22.4593352" lon="114.1790341">
<ele>11</ele><time>2023-03-19T08:20:06.998Z</time><extensions><gpxtpx:TrackPointExtension><gpxtpx:hr>120</gpxtpx:hr></gpxtpx:TrackPointExtension></extensions></trkpt>
<trkpt lat="22.4593359" lon="114.1790964">
<ele>11</ele><time>2023-03-19T08:20:08.998Z</time><extensions><gpxtpx:TrackPointExtension><gpxtpx:hr>121</gpxtpx:hr></gpxtpx:TrackPointExtension></extensions></trkpt>
<trkpt lat="22.4593421" lon="114.1791546">
<ele>11</ele><time>2023-03-19T08:20:10.998Z</time><extensions><gpxtpx:TrackPointExtension><gpxtpx:hr>121</gpxtpx:hr></gpxtpx:TrackPointExtension></extensions></trkpt>
<trkpt lat="22.4593348" lon="114.1792158">
<ele>11</ele><time>2023-03-19T08:20:12.998Z</time><extensions><gpxtpx:TrackPointExtension><gpxtpx:hr>121</gpxtpx:hr></gpxtpx:TrackPointExtension></extensions></trkpt>
<trkpt lat="22.4593372" lon="114.1792745">
<ele>11</ele><time>2023-03-19T08:20:14.998Z</time><extensions><gpxtpx:TrackPointExtension><gpxtpx:hr>121</gpxtpx:hr></gpxtpx:TrackPointExtension></extensions></trkpt>
<trkpt lat="22.4593382" lon="114.1793265">
<ele>10</ele><time>2023-03-19T08:20:16.998Z</time><extensions><gpxtpx:TrackPointExtension><gpxtpx:hr>121</gpxtpx:hr></gpxtpx:TrackPointExtension></extensions></trkpt>
<trkpt lat="22.4593311" lon="114.1793787">
<ele>10</ele><time>2023-03-19T08:20:18.998Z</time><extensions><gpxtpx:TrackPointExtension><gpxtpx:hr>122</gpxtpx:hr></gpxtpx:TrackPointExtension></extensions></trkpt>
<trkpt lat="22.4593194" lon="114.1794285">
<ele>10</ele><time>2023-03-19T08:20:20.998Z</time><extensions><gpxtpx:TrackPointExtension><gpxtpx:hr>122</gpxtpx:hr></gpxtpx:TrackPointExtension></extensions></trkpt>
<trkpt lat="22.4593192" lon="114.1794906">
<ele>10</ele><time>2023-03-19T08:20:23.998Z</time><extensions><gpxtpx:TrackPointExtension><gpxtpx:hr>117</gpxtpx:hr></gpxtpx:TrackPointExtension></extensions></trkpt>
<trkpt lat="22.4593301" lon="114.1795511">
<ele>10</ele><time>2023-03-19T08:20:26.998Z</time><extensions><gpxtpx:TrackPointExtension><gpxtpx:hr>117</gpxtpx:hr></gpxtpx:TrackPointExtension></extensions></trkpt>
<trkpt lat="22.4593353" lon="114.1796215">
<ele>10</ele><time>2023-03-19T08:21:33.999Z</time><extensions><gpxtpx:TrackPointExtension><gpxtpx:hr>112</gpxtpx:hr></gpxtpx:TrackPointExtension></extensions></trkpt>
<trkpt lat="22.4593189" lon="114.1796916">
<ele>10</ele><time>2023-03-19T08:21:36.999Z</time><extensions><gpxtpx:TrackPointExtension><gpxtpx:hr>112</gpxtpx:hr></gpxtpx:TrackPointExtension></extensions></trkpt>
<trkpt lat="22.4592951" lon="114.1797649">
<ele>10</ele><time>2023-03-19T08:21:39.999Z</time><extensions><gpxtpx:TrackPointExtension><gpxtpx:hr>112</gpxtpx:hr></gpxtpx:TrackPointExtension></extensions></trkpt>
<trkpt lat="22.4592672" lon="114.1798100">
<ele>10</ele><time>2023-03-19T08:21:41.999Z</time><extensions><gpxtpx:TrackPointExtension><gpxtpx:hr>112</gpxtpx:hr></gpxtpx:TrackPointExtension></extensions></trkpt>
<trkpt lat="22.4592616" lon="114.1798607">
<ele>10</ele><time>2023-03-19T08:21:43.999Z</time><extensions><gpxtpx:TrackPointExtension><gpxtpx:hr>112</gpxtpx:hr></gpxtpx:TrackPointExtension></extensions></trkpt>
<trkpt lat="22.4592557" lon="114.1799401">
<ele>10</ele><time>2023-03-19T08:21:46.999Z</time><extensions><gpxtpx:TrackPointExtension><gpxtpx:hr>112</gpxtpx:hr></gpxtpx:TrackPointExtension></extensions></trkpt>
<trkpt lat="22.4592495" lon="114.1799999">
<ele>10</ele><time>2023-03-19T08:21:48.999Z</time><extensions><gpxtpx:TrackPointExtension><gpxtpx:hr>116</gpxtpx:hr></gpxtpx:TrackPointExtension></extensions></trkpt>
<trkpt lat="22.4592423" lon="114.1800716">
<ele>10</ele><time>2023-03-19T08:21:50.999Z</time><extensions><gpxtpx:TrackPointExtension><gpxtpx:hr>116</gpxtpx:hr></gpxtpx:TrackPointExtension></extensions></trkpt>
<trkpt lat="22.4592366" lon="114.1801360">
<ele>10</ele><time>2023-03-19T08:21:52.999Z</time><extensions><gpxtpx:TrackPointExtension><gpxtpx:hr>117</gpxtpx:hr></gpxtpx:TrackPointExtension></extensions></trkpt>
<trkpt lat="22.4592201" lon="114.1802051">
<ele>10</ele><time>2023-03-19T08:21:54.999Z</time><extensions><gpxtpx:TrackPointExtension><gpxtpx:hr>117</gpxtpx:hr></gpxtpx:TrackPointExtension></extensions></trkpt>
<trkpt lat="22.4592255" lon="114.1802793">
<ele>10</ele><time>2023-03-19T08:21:56.999Z</time><extensions><gpxtpx:TrackPointExtension><gpxtpx:hr>117</gpxtpx:hr></gpxtpx:TrackPointExtension></extensions></trkpt>
<trkpt lat="22.4592206" lon="114.1803597">
<ele>10</ele><time>2023-03-19T08:21:58.999Z</time><extensions><gpxtpx:TrackPointExtension><gpxtpx:hr>118</gpxtpx:hr></gpxtpx:TrackPointExtension></extensions></trkpt>
<trkpt lat="22.4592172" lon="114.1804296">
<ele>10</ele><time>2023-03-19T08:22:00.999Z</time><extensions><gpxtpx:TrackPointExtension><gpxtpx:hr>118</gpxtpx:hr></gpxtpx:TrackPointExtension></extensions></trkpt>
<trkpt lat="22.4592196" lon="114.1804915">
<ele>10</ele><time>2023-03-19T08:22:02.999Z</time><extensions><gpxtpx:TrackPointExtension><gpxtpx:hr>121</gpxtpx:hr></gpxtpx:TrackPointExtension></extensions></trkpt>
<trkpt lat="22.4592248" lon="114.1805473">
<ele>10</ele><time>2023-03-19T08:22:04.999Z</time><extensions><gpxtpx:TrackPointExtension><gpxtpx:hr>121</gpxtpx:hr></gpxtpx:TrackPointExtension></extensions></trkpt>
<trkpt lat="22.4592206" lon="114.1806144">
<ele>10</ele><time>2023-03-19T08:22:06.999Z</time><extensions><gpxtpx:TrackPointExtension><gpxtpx:hr>121</gpxtpx:hr></gpxtpx:TrackPointExtension></extensions></trkpt>
<trkpt lat="22.4592244" lon="114.1806984">
<ele>10</ele><time>2023-03-19T08:22:08.998Z</time><extensions><gpxtpx:TrackPointExtension><gpxtpx:hr>124</gpxtpx:hr></gpxtpx:TrackPointExtension></extensions></trkpt>
<trkpt lat="22.4592202" lon="114.1807814">
<ele>10</ele><time>2023-03-19T08:22:10.998Z</time><extensions><gpxtpx:TrackPointExtension><gpxtpx:hr>124</gpxtpx:hr></gpxtpx:TrackPointExtension></extensions></trkpt>
<trkpt lat="22.4592163" lon="114.1808593">
<ele>10</ele><time>2023-03-19T08:22:12.998Z</time><extensions><gpxtpx:TrackPointExtension><gpxtpx:hr>125</gpxtpx:hr></gpxtpx:TrackPointExtension></extensions></trkpt>
<trkpt lat="22.4592140" lon="114.1809364">
<ele>10</ele><time>2023-03-19T08:22:14.998Z</time><extensions><gpxtpx:TrackPointExtension><gpxtpx:hr>125</gpxtpx:hr></gpxtpx:TrackPointExtension></extensions></trkpt>
<trkpt lat="22.4592157" lon="114.1810082">
<ele>11</ele><time>2023-03-19T08:22:16.998Z</time><extensions><gpxtpx:TrackPointExtension><gpxtpx:hr>125</gpxtpx:hr></gpxtpx:TrackPointExtension></extensions></trkpt>
<trkpt lat="22.4592141" lon="114.1810601">
<ele>11</ele><time>2023-03-19T08:22:18.998Z</time><extensions><gpxtpx:TrackPointExtension><gpxtpx:hr>125</gpxtpx:hr></gpxtpx:TrackPointExtension></extensions></trkpt>
<trkpt lat="22.4592167" lon="114.1811133">
<ele>11</ele><time>2023-03-19T08:22:20.998Z</time><extensions><gpxtpx:TrackPointExtension><gpxtpx:hr>125</gpxtpx:hr></gpxtpx:TrackPointExtension></extensions></trkpt>
<trkpt lat="22.4592136" lon="114.1811820">
<ele>11</ele><time>2023-03-19T08:22:23.998Z</time><extensions><gpxtpx:TrackPointExtension><gpxtpx:hr>123</gpxtpx:hr></gpxtpx:TrackPointExtension></extensions></trkpt>
<trkpt lat="22.4592136" lon="114.1812421">
<ele>11</ele><time>2023-03-19T08:22:26.998Z</time><extensions><gpxtpx:TrackPointExtension><gpxtpx:hr>123</gpxtpx:hr></gpxtpx:TrackPointExtension></extensions></trkpt>
<trkpt lat="22.4592079" lon="114.1813174">
<ele>11</ele><time>2023-03-19T08:22:29.998Z</time><extensions><gpxtpx:TrackPointExtension><gpxtpx:hr>122</gpxtpx:hr></gpxtpx:TrackPointExtension></extensions></trkpt>
<trkpt lat="22.4592021" lon="114.1813742">
<ele>11</ele><time>2023-03-19T08:22:31.998Z</time><extensions><gpxtpx:TrackPointExtension><gpxtpx:hr>122</gpxtpx:hr></gpxtpx:TrackPointExtension></extensions></trkpt>
<trkpt lat="22.4591923" lon="114.1814387">
<ele>11</ele><time>2023-03-19T08:22:33.998Z</time><extensions><gpxtpx:TrackPointExtension><gpxtpx:hr>122</gpxtpx:hr></gpxtpx:TrackPointExtension></extensions></trkpt>
<trkpt lat="22.4591951" lon="114.1814915">
<ele>11</ele><time>2023-03-19T08:22:35.998Z</time><extensions><gpxtpx:TrackPointExtension><gpxtpx:hr>122</gpxtpx:hr></gpxtpx:TrackPointExtension></extensions></trkpt>
<trkpt lat="22.4591861" lon="114.1815499">
<ele>11</ele><time>2023-03-19T08:22:37.998Z</time><extensions><gpxtpx:TrackPointExtension><gpxtpx:hr>124</gpxtpx:hr></gpxtpx:TrackPointExtension></extensions></trkpt>
<trkpt lat="22.4591839" lon="114.1816113">
<ele>11</ele><time>2023-03-19T08:22:39.998Z</time><extensions><gpxtpx:TrackPointExtension><gpxtpx:hr>124</gpxtpx:hr></gpxtpx:TrackPointExtension></extensions></trkpt>
<trkpt lat="22.4591830" lon="114.1816796">
<ele>11</ele><time>2023-03-19T08:22:41.998Z</time><extensions><gpxtpx:TrackPointExtension><gpxtpx:hr>124</gpxtpx:hr></gpxtpx:TrackPointExtension></extensions></trkpt>
<trkpt lat="22.4591782" lon="114.1817486">
<ele>11</ele><time>2023-03-19T08:22:43.998Z</time><extensions><gpxtpx:TrackPointExtension><gpxtpx:hr>125</gpxtpx:hr></gpxtpx:TrackPointExtension></extensions></trkpt>
<trkpt lat="22.4591855" lon="114.1818175">
<ele>11</ele><time>2023-03-19T08:22:45.998Z</time><extensions><gpxtpx:TrackPointExtension><gpxtpx:hr>125</gpxtpx:hr></gpxtpx:TrackPointExtension></extensions></trkpt>
<trkpt lat="22.4591845" lon="114.1818822">
<ele>11</ele><time>2023-03-19T08:22:47.998Z</time><extensions><gpxtpx:TrackPointExtension><gpxtpx:hr>122</gpxtpx:hr></gpxtpx:TrackPointExtension></extensions></trkpt>
<trkpt lat="22.4591862" lon="114.1819436">
<ele>11</ele><time>2023-03-19T08:22:49.998Z</time><extensions><gpxtpx:TrackPointExtension><gpxtpx:hr>122</gpxtpx:hr></gpxtpx:TrackPointExtension></extensions></trkpt>
<trkpt lat="22.4592034" lon="114.1820053">
<ele>11</ele><time>2023-03-19T08:22:51.998Z</time><extensions><gpxtpx:TrackPointExtension><gpxtpx:hr>122</gpxtpx:hr></gpxtpx:TrackPointExtension></extensions></trkpt>
<trkpt lat="22.4592169" lon="114.1820743">
<ele>11</ele><time>2023-03-19T08:22:53.998Z</time><extensions><gpxtpx:TrackPointExtension><gpxtpx:hr>121</gpxtpx:hr></gpxtpx:TrackPointExtension></extensions></trkpt>
<trkpt lat="22.4592353" lon="114.1821470">
<ele>11</ele><time>2023-03-19T08:22:55.998Z</time><extensions><gpxtpx:TrackPointExtension><gpxtpx:hr>121</gpxtpx:hr></gpxtpx:TrackPointExtension></extensions></trkpt>
<trkpt lat="22.4592459" lon="114.1822285">
<ele>11</ele><time>2023-03-19T08:22:57.998Z</time><extensions><gpxtpx:TrackPointExtension><gpxtpx:hr>122</gpxtpx:hr></gpxtpx:TrackPointExtension></extensions></trkpt>
<trkpt lat="22.4592682" lon="114.1823042">
<ele>11</ele><time>2023-03-19T08:23:00.000Z</time><extensions><gpxtpx:TrackPointExtension><gpxtpx:hr>122</gpxtpx:hr></gpxtpx:TrackPointExtension></extensions></trkpt>
<trkpt lat="22.4592851" lon="114.1823833">
<ele>11</ele><time>2023-03-19T08:23:02.000Z</time><extensions><gpxtpx:TrackPointExtension><gpxtpx:hr>122</gpxtpx:hr></gpxtpx:TrackPointExtension></extensions></trkpt>
<trkpt lat="22.4593200" lon="114.1824528">
<ele>11</ele><time>2023-03-19T08:23:04.000Z</time><extensions><gpxtpx:TrackPointExtension><gpxtpx:hr>123</gpxtpx:hr></gpxtpx:TrackPointExtension></extensions></trkpt>
<trkpt lat="22.4593539" lon="114.1825277">
<ele>11</ele><time>2023-03-19T08:23:06.000Z</time><extensions><gpxtpx:TrackPointExtension><gpxtpx:hr>123</gpxtpx:hr></gpxtpx:TrackPointExtension></extensions></trkpt>
<trkpt lat="22.4593905" lon="114.1826038">
<ele>11</ele><time>2023-03-19T08:23:08.000Z</time><extensions><gpxtpx:TrackPointExtension><gpxtpx:hr>119</gpxtpx:hr></gpxtpx:TrackPointExtension></extensions></trkpt>
<trkpt lat="22.4594307" lon="114.1826697">
<ele>11</ele><time>2023-03-19T08:23:10.000Z</time><extensions><gpxtpx:TrackPointExtension><gpxtpx:hr>119</gpxtpx:hr></gpxtpx:TrackPointExtension></extensions></trkpt>
<trkpt lat="22.4594725" lon="114.1827338">
<ele>11</ele><time>2023-03-19T08:23:12.000Z</time><extensions><gpxtpx:TrackPointExtension><gpxtpx:hr>119</gpxtpx:hr></gpxtpx:TrackPointExtension></extensions></trkpt>
<trkpt lat="22.4595128" lon="114.1827912">
<ele>11</ele><time>2023-03-19T08:23:14.000Z</time><extensions><gpxtpx:TrackPointExtension><gpxtpx:hr>117</gpxtpx:hr></gpxtpx:TrackPointExtension></extensions></trkpt>
<trkpt lat="22.4595559" lon="114.1828462">
<ele>11</ele><time>2023-03-19T08:23:15.999Z</time><extensions><gpxtpx:TrackPointExtension><gpxtpx:hr>117</gpxtpx:hr></gpxtpx:TrackPointExtension></extensions></trkpt>
<trkpt lat="22.4595892" lon="114.1829065">
<ele>11</ele><time>2023-03-19T08:23:17.999Z</time><extensions><gpxtpx:TrackPointExtension><gpxtpx:hr>118</gpxtpx:hr></gpxtpx:TrackPointExtension></extensions></trkpt>
<trkpt lat="22.4596354" lon="114.1829530">
<ele>11</ele><time>2023-03-19T08:23:19.999Z</time><extensions><gpxtpx:TrackPointExtension><gpxtpx:hr>118</gpxtpx:hr></gpxtpx:TrackPointExtension></extensions></trkpt>
<trkpt lat="22.4596829" lon="114.1829950">
<ele>11</ele><time>2023-03-19T08:23:21.999Z</time><extensions><gpxtpx:TrackPointExtension><gpxtpx:hr>118</gpxtpx:hr></gpxtpx:TrackPointExtension></extensions></trkpt>
<trkpt lat="22.4597294" lon="114.1830391">
<ele>11</ele><time>2023-03-19T08:23:23.999Z</time><extensions><gpxtpx:TrackPointExtension><gpxtpx:hr>120</gpxtpx:hr></gpxtpx:TrackPointExtension></extensions></trkpt>
<trkpt lat="22.4597822" lon="114.1830856">
<ele>11</ele><time>2023-03-19T08:23:25.999Z</time><extensions><gpxtpx:TrackPointExtension><gpxtpx:hr>120</gpxtpx:hr></gpxtpx:TrackPointExtension></extensions></trkpt>
<trkpt lat="22.4598313" lon="114.1831492">
<ele>11</ele><time>2023-03-19T08:23:27.999Z</time><extensions><gpxtpx:TrackPointExtension><gpxtpx:hr>118</gpxtpx:hr></gpxtpx:TrackPointExtension></extensions></trkpt>
<trkpt lat="22.4598995" lon="114.1832014">
<ele>11</ele><time>2023-03-19T08:23:29.999Z</time><extensions><gpxtpx:TrackPointExtension><gpxtpx:hr>118</gpxtpx:hr></gpxtpx:TrackPointExtension></extensions></trkpt>
<trkpt lat="22.4599598" lon="114.1832492">
<ele>11</ele><time>2023-03-19T08:23:31.999Z</time><extensions><gpxtpx:TrackPointExtension><gpxtpx:hr>118</gpxtpx:hr></gpxtpx:TrackPointExtension></extensions></trkpt>
<trkpt lat="22.4600193" lon="114.1832919">
<ele>11</ele><time>2023-03-19T08:23:33.999Z</time><extensions><gpxtpx:TrackPointExtension><gpxtpx:hr>117</gpxtpx:hr></gpxtpx:TrackPointExtension></extensions></trkpt>
<trkpt lat="22.4600662" lon="114.1833439">
<ele>11</ele><time>2023-03-19T08:23:35.999Z</time><extensions><gpxtpx:TrackPointExtension><gpxtpx:hr>117</gpxtpx:hr></gpxtpx:TrackPointExtension></extensions></trkpt>
<trkpt lat="22.4601183" lon="114.1833817">
<ele>11</ele><time>2023-03-19T08:23:37.999Z</time><extensions><gpxtpx:TrackPointExtension><gpxtpx:hr>116</gpxtpx:hr></gpxtpx:TrackPointExtension></extensions></trkpt>
<trkpt lat="22.4601645" lon="114.1834201">
<ele>11</ele><time>2023-03-19T08:23:39.999Z</time><extensions><gpxtpx:TrackPointExtension><gpxtpx:hr>116</gpxtpx:hr></gpxtpx:TrackPointExtension></extensions></trkpt>
<trkpt lat="22.4602166" lon="114.1834574">
<ele>11</ele><time>2023-03-19T08:23:41.999Z</time><extensions><gpxtpx:TrackPointExtension><gpxtpx:hr>116</gpxtpx:hr></gpxtpx:TrackPointExtension></extensions></trkpt>
<trkpt lat="22.4602616" lon="114.1834974">
<ele>11</ele><time>2023-03-19T08:23:43.999Z</time><extensions><gpxtpx:TrackPointExtension><gpxtpx:hr>116</gpxtpx:hr></gpxtpx:TrackPointExtension></extensions></trkpt>
<trkpt lat="22.4603037" lon="114.1835320">
<ele>11</ele><time>2023-03-19T08:23:45.999Z</time><extensions><gpxtpx:TrackPointExtension><gpxtpx:hr>116</gpxtpx:hr></gpxtpx:TrackPointExtension></extensions></trkpt>
<trkpt lat="22.4603454" lon="114.1835689">
<ele>11</ele><time>2023-03-19T08:23:47.999Z</time><extensions><gpxtpx:TrackPointExtension><gpxtpx:hr>115</gpxtpx:hr></gpxtpx:TrackPointExtension></extensions></trkpt>
<trkpt lat="22.4603874" lon="114.1836040">
<ele>11</ele><time>2023-03-19T08:23:49.999Z</time><extensions><gpxtpx:TrackPointExtension><gpxtpx:hr>115</gpxtpx:hr></gpxtpx:TrackPointExtension></extensions></trkpt>
<trkpt lat="22.4604331" lon="114.1836473">
<ele>11</ele><time>2023-03-19T08:23:51.999Z</time><extensions><gpxtpx:TrackPointExtension><gpxtpx:hr>115</gpxtpx:hr></gpxtpx:TrackPointExtension></extensions></trkpt>
<trkpt lat="22.4604865" lon="114.1836862">
<ele>10</ele><time>2023-03-19T08:23:53.999Z</time><extensions><gpxtpx:TrackPointExtension><gpxtpx:hr>115</gpxtpx:hr></gpxtpx:TrackPointExtension></extensions></trkpt>
<trkpt lat="22.4605450" lon="114.1837232">
<ele>10</ele><time>2023-03-19T08:23:55.999Z</time><extensions><gpxtpx:TrackPointExtension><gpxtpx:hr>115</gpxtpx:hr></gpxtpx:TrackPointExtension></extensions></trkpt>
<trkpt lat="22.4605983" lon="114.1837606">
<ele>10</ele><time>2023-03-19T08:23:57.999Z</time><extensions><gpxtpx:TrackPointExtension><gpxtpx:hr>118</gpxtpx:hr></gpxtpx:TrackPointExtension></extensions></trkpt>
<trkpt lat="22.4606492" lon="114.1837921">
<ele>10</ele><time>2023-03-19T08:23:59.999Z</time><extensions><gpxtpx:TrackPointExtension><gpxtpx:hr>118</gpxtpx:hr></gpxtpx:TrackPointExtension></extensions></trkpt>
<trkpt lat="22.4607031" lon="114.1838244">
<ele>10</ele><time>2023-03-19T08:24:01.999Z</time><extensions><gpxtpx:TrackPointExtension><gpxtpx:hr>118</gpxtpx:hr></gpxtpx:TrackPointExtension></extensions></trkpt>
<trkpt lat="22.4607577" lon="114.1838565">
<ele>10</ele><time>2023-03-19T08:24:03.999Z</time><extensions><gpxtpx:TrackPointExtension><gpxtpx:hr>118</gpxtpx:hr></gpxtpx:TrackPointExtension></extensions></trkpt>
<trkpt lat="22.4607944" lon="114.1838969">
<ele>10</ele><time>2023-03-19T08:24:05.999Z</time><extensions><gpxtpx:TrackPointExtension><gpxtpx:hr>118</gpxtpx:hr></gpxtpx:TrackPointExtension></extensions></trkpt>
<trkpt lat="22.4608369" lon="114.1839305">
<ele>10</ele><time>2023-03-19T08:24:07.999Z</time><extensions><gpxtpx:TrackPointExtension><gpxtpx:hr>116</gpxtpx:hr></gpxtpx:TrackPointExtension></extensions></trkpt>
<trkpt lat="22.4608766" lon="114.1839708">
<ele>10</ele><time>2023-03-19T08:24:09.999Z</time><extensions><gpxtpx:TrackPointExtension><gpxtpx:hr>116</gpxtpx:hr></gpxtpx:TrackPointExtension></extensions></trkpt>
<trkpt lat="22.4609222" lon="114.1840132">
<ele>10</ele><time>2023-03-19T08:24:11.999Z</time><extensions><gpxtpx:TrackPointExtension><gpxtpx:hr>116</gpxtpx:hr></gpxtpx:TrackPointExtension></extensions></trkpt>
<trkpt lat="22.4609845" lon="114.1840531">
<ele>10</ele><time>2023-03-19T08:24:13.999Z</time><extensions><gpxtpx:TrackPointExtension><gpxtpx:hr>116</gpxtpx:hr></gpxtpx:TrackPointExtension></extensions></trkpt>
<trkpt lat="22.4610332" lon="114.1840936">
<ele>10</ele><time>2023-03-19T08:24:15.999Z</time><extensions><gpxtpx:TrackPointExtension><gpxtpx:hr>116</gpxtpx:hr></gpxtpx:TrackPointExtension></extensions></trkpt>
<trkpt lat="22.4610817" lon="114.1841213">
<ele>10</ele><time>2023-03-19T08:24:17.998Z</time><extensions><gpxtpx:TrackPointExtension><gpxtpx:hr>117</gpxtpx:hr></gpxtpx:TrackPointExtension></extensions></trkpt>
<trkpt lat="22.4611301" lon="114.1841547">
<ele>10</ele><time>2023-03-19T08:24:19.998Z</time><extensions><gpxtpx:TrackPointExtension><gpxtpx:hr>117</gpxtpx:hr></gpxtpx:TrackPointExtension></extensions></trkpt>
<trkpt lat="22.4611802" lon="114.1841845">
<ele>10</ele><time>2023-03-19T08:24:21.998Z</time><extensions><gpxtpx:TrackPointExtension><gpxtpx:hr>117</gpxtpx:hr></gpxtpx:TrackPointExtension></extensions></trkpt>
<trkpt lat="22.4612252" lon="114.1842101">
<ele>10</ele><time>2023-03-19T08:24:23.998Z</time><extensions><gpxtpx:TrackPointExtension><gpxtpx:hr>117</gpxtpx:hr></gpxtpx:TrackPointExtension></extensions></trkpt>
<trkpt lat="22.4612700" lon="114.1842467">
<ele>10</ele><time>2023-03-19T08:24:25.998Z</time><extensions><gpxtpx:TrackPointExtension><gpxtpx:hr>117</gpxtpx:hr></gpxtpx:TrackPointExtension></extensions></trkpt>
<trkpt lat="22.4613219" lon="114.1842848">
<ele>10</ele><time>2023-03-19T08:24:27.998Z</time><extensions><gpxtpx:TrackPointExtension><gpxtpx:hr>117</gpxtpx:hr></gpxtpx:TrackPointExtension></extensions></trkpt>
<trkpt lat="22.4613719" lon="114.1843326">
<ele>10</ele><time>2023-03-19T08:24:29.998Z</time><extensions><gpxtpx:TrackPointExtension><gpxtpx:hr>117</gpxtpx:hr></gpxtpx:TrackPointExtension></extensions></trkpt>
<trkpt lat="22.4614152" lon="114.1843967">
<ele>10</ele><time>2023-03-19T08:24:31.998Z</time><extensions><gpxtpx:TrackPointExtension><gpxtpx:hr>117</gpxtpx:hr></gpxtpx:TrackPointExtension></extensions></trkpt>
<trkpt lat="22.4614612" lon="114.1844592">
<ele>10</ele><time>2023-03-19T08:24:33.998Z</time><extensions><gpxtpx:TrackPointExtension><gpxtpx:hr>116</gpxtpx:hr></gpxtpx:TrackPointExtension></extensions></trkpt>
<trkpt lat="22.4615114" lon="114.1845056">
<ele>10</ele><time>2023-03-19T08:24:35.998Z</time><extensions><gpxtpx:TrackPointExtension><gpxtpx:hr>116</gpxtpx:hr></gpxtpx:TrackPointExtension></extensions></trkpt>
<trkpt lat="22.4615573" lon="114.1845421">
<ele>10</ele><time>2023-03-19T08:24:37.998Z</time><extensions><gpxtpx:TrackPointExtension><gpxtpx:hr>115</gpxtpx:hr></gpxtpx:TrackPointExtension></extensions></trkpt>
<trkpt lat="22.4616047" lon="114.1845771">
<ele>10</ele><time>2023-03-19T08:24:40.998Z</time><extensions><gpxtpx:TrackPointExtension><gpxtpx:hr>115</gpxtpx:hr></gpxtpx:TrackPointExtension></extensions></trkpt>
<trkpt lat="22.4616402" lon="114.1846095">
<ele>10</ele><time>2023-03-19T08:24:42.998Z</time><extensions><gpxtpx:TrackPointExtension><gpxtpx:hr>115</gpxtpx:hr></gpxtpx:TrackPointExtension></extensions></trkpt>
<trkpt lat="22.4616866" lon="114.1846493">
<ele>10</ele><time>2023-03-19T08:24:44.998Z</time><extensions><gpxtpx:TrackPointExtension><gpxtpx:hr>115</gpxtpx:hr></gpxtpx:TrackPointExtension></extensions></trkpt>
<trkpt lat="22.4617333" lon="114.1846966">
<ele>10</ele><time>2023-03-19T08:24:46.998Z</time><extensions><gpxtpx:TrackPointExtension><gpxtpx:hr>115</gpxtpx:hr></gpxtpx:TrackPointExtension></extensions></trkpt>
<trkpt lat="22.4617796" lon="114.1847558">
<ele>10</ele><time>2023-03-19T08:24:48.998Z</time><extensions><gpxtpx:TrackPointExtension><gpxtpx:hr>116</gpxtpx:hr></gpxtpx:TrackPointExtension></extensions></trkpt>
<trkpt lat="22.4618301" lon="114.1848043">
<ele>10</ele><time>2023-03-19T08:24:50.998Z</time><extensions><gpxtpx:TrackPointExtension><gpxtpx:hr>116</gpxtpx:hr></gpxtpx:TrackPointExtension></extensions></trkpt>
<trkpt lat="22.4618789" lon="114.1848643">
<ele>10</ele><time>2023-03-19T08:24:52.998Z</time><extensions><gpxtpx:TrackPointExtension><gpxtpx:hr>116</gpxtpx:hr></gpxtpx:TrackPointExtension></extensions></trkpt>
<trkpt lat="22.4619276" lon="114.1849165">
<ele>10</ele><time>2023-03-19T08:24:54.998Z</time><extensions><gpxtpx:TrackPointExtension><gpxtpx:hr>116</gpxtpx:hr></gpxtpx:TrackPointExtension></extensions></trkpt>
<trkpt lat="22.4619731" lon="114.1849788">
<ele>10</ele><time>2023-03-19T08:24:56.998Z</time><extensions><gpxtpx:TrackPointExtension><gpxtpx:hr>116</gpxtpx:hr></gpxtpx:TrackPointExtension></extensions></trkpt>
<trkpt lat="22.4620118" lon="114.1850354">
<ele>10</ele><time>2023-03-19T08:24:58.998Z</time><extensions><gpxtpx:TrackPointExtension><gpxtpx:hr>114</gpxtpx:hr></gpxtpx:TrackPointExtension></extensions></trkpt>
<trkpt lat="22.4620419" lon="114.1850933">
<ele>10</ele><time>2023-03-19T08:25:00.998Z</time><extensions><gpxtpx:TrackPointExtension><gpxtpx:hr>114</gpxtpx:hr></gpxtpx:TrackPointExtension></extensions></trkpt>
<trkpt lat="22.4620729" lon="114.1851428">
<ele>10</ele><time>2023-03-19T08:25:02.998Z</time><extensions><gpxtpx:TrackPointExtension><gpxtpx:hr>114</gpxtpx:hr></gpxtpx:TrackPointExtension></extensions></trkpt>
<trkpt lat="22.4621093" lon="114.1851982">
<ele>10</ele><time>2023-03-19T08:25:04.998Z</time><extensions><gpxtpx:TrackPointExtension><gpxtpx:hr>114</gpxtpx:hr></gpxtpx:TrackPointExtension></extensions></trkpt>
<trkpt lat="22.4621380" lon="114.1852547">
<ele>10</ele><time>2023-03-19T08:25:07.000Z</time><extensions><gpxtpx:TrackPointExtension><gpxtpx:hr>114</gpxtpx:hr></gpxtpx:TrackPointExtension></extensions></trkpt>
<trkpt lat="22.4621573" lon="114.1853170">
<ele>10</ele><time>2023-03-19T08:25:09.000Z</time><extensions><gpxtpx:TrackPointExtension><gpxtpx:hr>110</gpxtpx:hr></gpxtpx:TrackPointExtension></extensions></trkpt>
<trkpt lat="22.4621849" lon="114.1853719">
<ele>10</ele><time>2023-03-19T08:25:11.000Z</time><extensions><gpxtpx:TrackPointExtension><gpxtpx:hr>110</gpxtpx:hr></gpxtpx:TrackPointExtension></extensions></trkpt>
<trkpt lat="22.4622014" lon="114.1854378">
<ele>10</ele><time>2023-03-19T08:25:13.000Z</time><extensions><gpxtpx:TrackPointExtension><gpxtpx:hr>110</gpxtpx:hr></gpxtpx:TrackPointExtension></extensions></trkpt>
<trkpt lat="22.4622237" lon="114.1854983">
<ele>10</ele><time>2023-03-19T08:25:15.000Z</time><extensions><gpxtpx:TrackPointExtension><gpxtpx:hr>110</gpxtpx:hr></gpxtpx:TrackPointExtension></extensions></trkpt>
<trkpt lat="22.4622319" lon="114.1855532">
<ele>10</ele><time>2023-03-19T08:25:17.000Z</time><extensions><gpxtpx:TrackPointExtension><gpxtpx:hr>110</gpxtpx:hr></gpxtpx:TrackPointExtension></extensions></trkpt>
<trkpt lat="22.4622453" lon="114.1856014">
<ele>10</ele><time>2023-03-19T08:25:19.000Z</time><extensions><gpxtpx:TrackPointExtension><gpxtpx:hr>109</gpxtpx:hr></gpxtpx:TrackPointExtension></extensions></trkpt>
<trkpt lat="22.4622577" lon="114.1856544">
<ele>10</ele><time>2023-03-19T08:25:21.000Z</time><extensions><gpxtpx:TrackPointExtension><gpxtpx:hr>109</gpxtpx:hr></gpxtpx:TrackPointExtension></extensions></trkpt>
<trkpt lat="22.4622696" lon="114.1857093">
<ele>10</ele><time>2023-03-19T08:25:22.999Z</time><extensions><gpxtpx:TrackPointExtension><gpxtpx:hr>114</gpxtpx:hr></gpxtpx:TrackPointExtension></extensions></trkpt>
<trkpt lat="22.4622804" lon="114.1857655">
<ele>10</ele><time>2023-03-19T08:25:24.999Z</time><extensions><gpxtpx:TrackPointExtension><gpxtpx:hr>114</gpxtpx:hr></gpxtpx:TrackPointExtension></extensions></trkpt>
<trkpt lat="22.4622925" lon="114.1858194">
<ele>10</ele><time>2023-03-19T08:25:26.999Z</time><extensions><gpxtpx:TrackPointExtension><gpxtpx:hr>114</gpxtpx:hr></gpxtpx:TrackPointExtension></extensions></trkpt>
<trkpt lat="22.4623041" lon="114.1858752">
<ele>10</ele><time>2023-03-19T08:25:28.999Z</time><extensions><gpxtpx:TrackPointExtension><gpxtpx:hr>116</gpxtpx:hr></gpxtpx:TrackPointExtension></extensions></trkpt>
<trkpt lat="22.4623218" lon="114.1859340">
<ele>10</ele><time>2023-03-19T08:25:30.999Z</time><extensions><gpxtpx:TrackPointExtension><gpxtpx:hr>116</gpxtpx:hr></gpxtpx:TrackPointExtension></extensions></trkpt>
<trkpt lat="22.4623245" lon="114.1859954">
<ele>10</ele><time>2023-03-19T08:25:32.999Z</time><extensions><gpxtpx:TrackPointExtension><gpxtpx:hr>115</gpxtpx:hr></gpxtpx:TrackPointExtension></extensions></trkpt>
<trkpt lat="22.4623340" lon="114.1860525">
<ele>11</ele><time>2023-03-19T08:25:34.999Z</time><extensions><gpxtpx:TrackPointExtension><gpxtpx:hr>115</gpxtpx:hr></gpxtpx:TrackPointExtension></extensions></trkpt>
<trkpt lat="22.4623411" lon="114.1861057">
<ele>11</ele><time>2023-03-19T08:25:36.999Z</time><extensions><gpxtpx:TrackPointExtension><gpxtpx:hr>115</gpxtpx:hr></gpxtpx:TrackPointExtension></extensions></trkpt>
<trkpt lat="22.4623450" lon="114.1861754">
<ele>11</ele><time>2023-03-19T08:25:39.999Z</time><extensions><gpxtpx:TrackPointExtension><gpxtpx:hr>115</gpxtpx:hr></gpxtpx:TrackPointExtension></extensions></trkpt>
<trkpt lat="22.4623457" lon="114.1862248">
<ele>11</ele><time>2023-03-19T08:25:41.999Z</time><extensions><gpxtpx:TrackPointExtension><gpxtpx:hr>115</gpxtpx:hr></gpxtpx:TrackPointExtension></extensions></trkpt>
<trkpt lat="22.4623431" lon="114.1862748">
<ele>11</ele><time>2023-03-19T08:25:43.999Z</time><extensions><gpxtpx:TrackPointExtension><gpxtpx:hr>116</gpxtpx:hr></gpxtpx:TrackPointExtension></extensions></trkpt>
<trkpt lat="22.4623378" lon="114.1863395">
<ele>11</ele><time>2023-03-19T08:25:46.999Z</time><extensions><gpxtpx:TrackPointExtension><gpxtpx:hr>116</gpxtpx:hr></gpxtpx:TrackPointExtension></extensions></trkpt>
<trkpt lat="22.4623378" lon="114.1863933">
<ele>11</ele><time>2023-03-19T08:25:49.999Z</time><extensions><gpxtpx:TrackPointExtension><gpxtpx:hr>117</gpxtpx:hr></gpxtpx:TrackPointExtension></extensions></trkpt>
<trkpt lat="22.4623351" lon="114.1864544">
<ele>11</ele><time>2023-03-19T08:25:52.999Z</time><extensions><gpxtpx:TrackPointExtension><gpxtpx:hr>116</gpxtpx:hr></gpxtpx:TrackPointExtension></extensions></trkpt>
<trkpt lat="22.4623220" lon="114.1865176">
<ele>11</ele><time>2023-03-19T08:25:55.999Z</time><extensions><gpxtpx:TrackPointExtension><gpxtpx:hr>116</gpxtpx:hr></gpxtpx:TrackPointExtension></extensions></trkpt>
<trkpt lat="22.4623281" lon="114.1865752">
<ele>11</ele><time>2023-03-19T08:25:59.999Z</time><extensions><gpxtpx:TrackPointExtension><gpxtpx:hr>115</gpxtpx:hr></gpxtpx:TrackPointExtension></extensions></trkpt>
<trkpt lat="22.4623420" lon="114.1866220">
<ele>11</ele><time>2023-03-19T08:26:02.999Z</time><extensions><gpxtpx:TrackPointExtension><gpxtpx:hr>115</gpxtpx:hr></gpxtpx:TrackPointExtension></extensions></trkpt>
<trkpt lat="22.4623778" lon="114.1866661">
<ele>11</ele><time>2023-03-19T08:26:04.999Z</time><extensions><gpxtpx:TrackPointExtension><gpxtpx:hr>115</gpxtpx:hr></gpxtpx:TrackPointExtension></extensions></trkpt>
<trkpt lat="22.4623785" lon="114.1867231">
<ele>11</ele><time>2023-03-19T08:26:06.999Z</time><extensions><gpxtpx:TrackPointExtension><gpxtpx:hr>115</gpxtpx:hr></gpxtpx:TrackPointExtension></extensions></trkpt>
<trkpt lat="22.4623573" lon="114.1867691">
<ele>11</ele><time>2023-03-19T08:26:08.999Z</time><extensions><gpxtpx:TrackPointExtension><gpxtpx:hr>116</gpxtpx:hr></gpxtpx:TrackPointExtension></extensions></trkpt>
<trkpt lat="22.4623623" lon="114.1868272">
<ele>11</ele><time>2023-03-19T08:26:10.999Z</time><extensions><gpxtpx:TrackPointExtension><gpxtpx:hr>116</gpxtpx:hr></gpxtpx:TrackPointExtension></extensions></trkpt>
<trkpt lat="22.4623755" lon="114.1868828">
<ele>11</ele><time>2023-03-19T08:26:12.999Z</time><extensions><gpxtpx:TrackPointExtension><gpxtpx:hr>118</gpxtpx:hr></gpxtpx:TrackPointExtension></extensions></trkpt>
<trkpt lat="22.4623826" lon="114.1869443">
<ele>11</ele><time>2023-03-19T08:26:14.999Z</time><extensions><gpxtpx:TrackPointExtension><gpxtpx:hr>118</gpxtpx:hr></gpxtpx:TrackPointExtension></extensions></trkpt>
<trkpt lat="22.4623841" lon="114.1870027">
<ele>11</ele><time>2023-03-19T08:26:16.999Z</time><extensions><gpxtpx:TrackPointExtension><gpxtpx:hr>118</gpxtpx:hr></gpxtpx:TrackPointExtension></extensions></trkpt>
<trkpt lat="22.4623619" lon="114.1870619">
<ele>11</ele><time>2023-03-19T08:26:18.999Z</time><extensions><gpxtpx:TrackPointExtension><gpxtpx:hr>119</gpxtpx:hr></gpxtpx:TrackPointExtension></extensions></trkpt>
<trkpt lat="22.4623605" lon="114.1871135">
<ele>11</ele><time>2023-03-19T08:26:20.998Z</time><extensions><gpxtpx:TrackPointExtension><gpxtpx:hr>119</gpxtpx:hr></gpxtpx:TrackPointExtension></extensions></trkpt>
<trkpt lat="22.4623693" lon="114.1871823">
<ele>11</ele><time>2023-03-19T08:26:22.998Z</time><extensions><gpxtpx:TrackPointExtension><gpxtpx:hr>118</gpxtpx:hr></gpxtpx:TrackPointExtension></extensions></trkpt>
<trkpt lat="22.4623749" lon="114.1872429">
<ele>11</ele><time>2023-03-19T08:26:24.998Z</time><extensions><gpxtpx:TrackPointExtension><gpxtpx:hr>118</gpxtpx:hr></gpxtpx:TrackPointExtension></extensions></trkpt>
<trkpt lat="22.4623730" lon="114.1873146">
<ele>11</ele><time>2023-03-19T08:26:26.998Z</time><extensions><gpxtpx:TrackPointExtension><gpxtpx:hr>118</gpxtpx:hr></gpxtpx:TrackPointExtension></extensions></trkpt>
<trkpt lat="22.4623660" lon="114.1873920">
<ele>11</ele><time>2023-03-19T08:26:28.998Z</time><extensions><gpxtpx:TrackPointExtension><gpxtpx:hr>119</gpxtpx:hr></gpxtpx:TrackPointExtension></extensions></trkpt>
<trkpt lat="22.4623680" lon="114.1874612">
<ele>11</ele><time>2023-03-19T08:26:30.998Z</time><extensions><gpxtpx:TrackPointExtension><gpxtpx:hr>119</gpxtpx:hr></gpxtpx:TrackPointExtension></extensions></trkpt>
<trkpt lat="22.4623572" lon="114.1875244">
<ele>11</ele><time>2023-03-19T08:26:32.998Z</time><extensions><gpxtpx:TrackPointExtension><gpxtpx:hr>119</gpxtpx:hr></gpxtpx:TrackPointExtension></extensions></trkpt>
<trkpt lat="22.4623456" lon="114.1875995">
<ele>11</ele><time>2023-03-19T08:26:34.998Z</time><extensions><gpxtpx:TrackPointExtension><gpxtpx:hr>119</gpxtpx:hr></gpxtpx:TrackPointExtension></extensions></trkpt>
<trkpt lat="22.4623286" lon="114.1876594">
<ele>11</ele><time>2023-03-19T08:26:36.998Z</time><extensions><gpxtpx:TrackPointExtension><gpxtpx:hr>119</gpxtpx:hr></gpxtpx:TrackPointExtension></extensions></trkpt>
<trkpt lat="22.4623248" lon="114.1877162">
<ele>11</ele><time>2023-03-19T08:26:38.998Z</time><extensions><gpxtpx:TrackPointExtension><gpxtpx:hr>118</gpxtpx:hr></gpxtpx:TrackPointExtension></extensions></trkpt>
<trkpt lat="22.4623274" lon="114.1877697">
<ele>11</ele><time>2023-03-19T08:26:40.998Z</time><extensions><gpxtpx:TrackPointExtension><gpxtpx:hr>118</gpxtpx:hr></gpxtpx:TrackPointExtension></extensions></trkpt>
<trkpt lat="22.4623257" lon="114.1878293">
<ele>11</ele><time>2023-03-19T08:26:42.998Z</time><extensions><gpxtpx:TrackPointExtension><gpxtpx:hr>119</gpxtpx:hr></gpxtpx:TrackPointExtension></extensions></trkpt>
<trkpt lat="22.4623246" lon="114.1878963">
<ele>11</ele><time>2023-03-19T08:26:44.998Z</time><extensions><gpxtpx:TrackPointExtension><gpxtpx:hr>119</gpxtpx:hr></gpxtpx:TrackPointExtension></extensions></trkpt>
<trkpt lat="22.4623258" lon="114.1879655">
<ele>11</ele><time>2023-03-19T08:26:46.998Z</time><extensions><gpxtpx:TrackPointExtension><gpxtpx:hr>119</gpxtpx:hr></gpxtpx:TrackPointExtension></extensions></trkpt>
<trkpt lat="22.4623237" lon="114.1880371">
<ele>11</ele><time>2023-03-19T08:26:48.998Z</time><extensions><gpxtpx:TrackPointExtension><gpxtpx:hr>117</gpxtpx:hr></gpxtpx:TrackPointExtension></extensions></trkpt>
<trkpt lat="22.4623241" lon="114.1880960">
<ele>11</ele><time>2023-03-19T08:26:50.998Z</time><extensions><gpxtpx:TrackPointExtension><gpxtpx:hr>117</gpxtpx:hr></gpxtpx:TrackPointExtension></extensions></trkpt>
<trkpt lat="22.4623228" lon="114.1881520">
<ele>11</ele><time>2023-03-19T08:26:52.998Z</time><extensions><gpxtpx:TrackPointExtension><gpxtpx:hr>117</gpxtpx:hr></gpxtpx:TrackPointExtension></extensions></trkpt>
<trkpt lat="22.4623197" lon="114.1882250">
<ele>11</ele><time>2023-03-19T08:26:55.998Z</time><extensions><gpxtpx:TrackPointExtension><gpxtpx:hr>117</gpxtpx:hr></gpxtpx:TrackPointExtension></extensions></trkpt>
<trkpt lat="22.4623321" lon="114.1882728">
<ele>11</ele><time>2023-03-19T08:26:57.998Z</time><extensions><gpxtpx:TrackPointExtension><gpxtpx:hr>117</gpxtpx:hr></gpxtpx:TrackPointExtension></extensions></trkpt>
<trkpt lat="22.4623364" lon="114.1883355">
<ele>11</ele><time>2023-03-19T08:27:00.998Z</time><extensions><gpxtpx:TrackPointExtension><gpxtpx:hr>117</gpxtpx:hr></gpxtpx:TrackPointExtension></extensions></trkpt>
<trkpt lat="22.4623600" lon="114.1883872">
<ele>11</ele><time>2023-03-19T08:27:03.998Z</time><extensions><gpxtpx:TrackPointExtension><gpxtpx:hr>118</gpxtpx:hr></gpxtpx:TrackPointExtension></extensions></trkpt>
<trkpt lat="22.4623567" lon="114.1884455">
<ele>11</ele><time>2023-03-19T08:27:24.000Z</time><extensions><gpxtpx:TrackPointExtension><gpxtpx:hr>121</gpxtpx:hr></gpxtpx:TrackPointExtension></extensions></trkpt>
<trkpt lat="22.4623296" lon="114.1885009">
<ele>11</ele><time>2023-03-19T08:27:41.999Z</time><extensions><gpxtpx:TrackPointExtension><gpxtpx:hr>118</gpxtpx:hr></gpxtpx:TrackPointExtension></extensions></trkpt>
<trkpt lat="22.4622753" lon="114.1885116">
<ele>11</ele><time>2023-03-19T08:28:01.999Z</time><extensions><gpxtpx:TrackPointExtension><gpxtpx:hr>111</gpxtpx:hr></gpxtpx:TrackPointExtension></extensions></trkpt>
<trkpt lat="22.4622304" lon="114.1885189">
<ele>11</ele><time>2023-03-19T08:28:03.999Z</time><extensions><gpxtpx:TrackPointExtension><gpxtpx:hr>112</gpxtpx:hr></gpxtpx:TrackPointExtension></extensions></trkpt>
<trkpt lat="22.4621846" lon="114.1885083">
<ele>11</ele><time>2023-03-19T08:28:06.999Z</time><extensions><gpxtpx:TrackPointExtension><gpxtpx:hr>112</gpxtpx:hr></gpxtpx:TrackPointExtension></extensions></trkpt>
<trkpt lat="22.4621244" lon="114.1884928">
<ele>11</ele><time>2023-03-19T08:28:09.999Z</time><extensions><gpxtpx:TrackPointExtension><gpxtpx:hr>111</gpxtpx:hr></gpxtpx:TrackPointExtension></extensions></trkpt>
<trkpt lat="22.4620829" lon="114.1885236">
<ele>11</ele><time>2023-03-19T08:28:11.999Z</time><extensions><gpxtpx:TrackPointExtension><gpxtpx:hr>111</gpxtpx:hr></gpxtpx:TrackPointExtension></extensions></trkpt>
<trkpt lat="22.4621131" lon="114.1886028">
<ele>11</ele><time>2023-03-19T08:28:13.999Z</time><extensions><gpxtpx:TrackPointExtension><gpxtpx:hr>116</gpxtpx:hr></gpxtpx:TrackPointExtension></extensions></trkpt>
<trkpt lat="22.4621205" lon="114.1886763">
<ele>11</ele><time>2023-03-19T08:28:15.999Z</time><extensions><gpxtpx:TrackPointExtension><gpxtpx:hr>116</gpxtpx:hr></gpxtpx:TrackPointExtension></extensions></trkpt>
<trkpt lat="22.4621197" lon="114.1887619">
<ele>11</ele><time>2023-03-19T08:28:17.999Z</time><extensions><gpxtpx:TrackPointExtension><gpxtpx:hr>120</gpxtpx:hr></gpxtpx:TrackPointExtension></extensions></trkpt>
<trkpt lat="22.4621415" lon="114.1888459">
<ele>11</ele><time>2023-03-19T08:28:19.999Z</time><extensions><gpxtpx:TrackPointExtension><gpxtpx:hr>120</gpxtpx:hr></gpxtpx:TrackPointExtension></extensions></trkpt>
<trkpt lat="22.4621386" lon="114.1889267">
<ele>11</ele><time>2023-03-19T08:28:21.999Z</time><extensions><gpxtpx:TrackPointExtension><gpxtpx:hr>120</gpxtpx:hr></gpxtpx:TrackPointExtension></extensions></trkpt>
<trkpt lat="22.4621432" lon="114.1890088">
<ele>11</ele><time>2023-03-19T08:28:23.999Z</time><extensions><gpxtpx:TrackPointExtension><gpxtpx:hr>121</gpxtpx:hr></gpxtpx:TrackPointExtension></extensions></trkpt>
<trkpt lat="22.4621463" lon="114.1890920">
<ele>11</ele><time>2023-03-19T08:28:25.999Z</time><extensions><gpxtpx:TrackPointExtension><gpxtpx:hr>121</gpxtpx:hr></gpxtpx:TrackPointExtension></extensions></trkpt>
<trkpt lat="22.4621429" lon="114.1891760">
<ele>11</ele><time>2023-03-19T08:28:27.998Z</time><extensions><gpxtpx:TrackPointExtension><gpxtpx:hr>121</gpxtpx:hr></gpxtpx:TrackPointExtension></extensions></trkpt>
<trkpt lat="22.4621404" lon="114.1892543">
<ele>11</ele><time>2023-03-19T08:28:29.998Z</time><extensions><gpxtpx:TrackPointExtension><gpxtpx:hr>121</gpxtpx:hr></gpxtpx:TrackPointExtension></extensions></trkpt>
<trkpt lat="22.4621416" lon="114.1893176">
<ele>11</ele><time>2023-03-19T08:28:31.998Z</time><extensions><gpxtpx:TrackPointExtension><gpxtpx:hr>121</gpxtpx:hr></gpxtpx:TrackPointExtension></extensions></trkpt>
<trkpt lat="22.4621426" lon="114.1893676">
<ele>11</ele><time>2023-03-19T08:28:32.998Z</time><extensions><gpxtpx:TrackPointExtension><gpxtpx:hr>120</gpxtpx:hr></gpxtpx:TrackPointExtension></extensions></trkpt>
<trkpt lat="22.4621418" lon="114.1894404">
<ele>11</ele><time>2023-03-19T08:28:34.998Z</time><extensions><gpxtpx:TrackPointExtension><gpxtpx:hr>120</gpxtpx:hr></gpxtpx:TrackPointExtension></extensions></trkpt>
<trkpt lat="22.4621432" lon="114.1895071">
<ele>11</ele><time>2023-03-19T08:28:36.998Z</time><extensions><gpxtpx:TrackPointExtension><gpxtpx:hr>120</gpxtpx:hr></gpxtpx:TrackPointExtension></extensions></trkpt>
<trkpt lat="22.4621415" lon="114.1895619">
<ele>11</ele><time>2023-03-19T08:28:38.998Z</time><extensions><gpxtpx:TrackPointExtension><gpxtpx:hr>120</gpxtpx:hr></gpxtpx:TrackPointExtension></extensions></trkpt>
<trkpt lat="22.4621546" lon="114.1896211">
<ele>11</ele><time>2023-03-19T08:28:40.998Z</time><extensions><gpxtpx:TrackPointExtension><gpxtpx:hr>120</gpxtpx:hr></gpxtpx:TrackPointExtension></extensions></trkpt>
<trkpt lat="22.4621519" lon="114.1896868">
<ele>11</ele><time>2023-03-19T08:28:42.998Z</time><extensions><gpxtpx:TrackPointExtension><gpxtpx:hr>118</gpxtpx:hr></gpxtpx:TrackPointExtension></extensions></trkpt>
<trkpt lat="22.4621469" lon="114.1897615">
<ele>11</ele><time>2023-03-19T08:28:44.998Z</time><extensions><gpxtpx:TrackPointExtension><gpxtpx:hr>118</gpxtpx:hr></gpxtpx:TrackPointExtension></extensions></trkpt>
<trkpt lat="22.4621466" lon="114.1898339">
<ele>11</ele><time>2023-03-19T08:28:46.998Z</time><extensions><gpxtpx:TrackPointExtension><gpxtpx:hr>118</gpxtpx:hr></gpxtpx:TrackPointExtension></extensions></trkpt>
<trkpt lat="22.4621499" lon="114.1899018">
<ele>11</ele><time>2023-03-19T08:28:48.998Z</time><extensions><gpxtpx:TrackPointExtension><gpxtpx:hr>118</gpxtpx:hr></gpxtpx:TrackPointExtension></extensions></trkpt>
<trkpt lat="22.4621524" lon="114.1899505">
<ele>11</ele><time>2023-03-19T08:28:50.998Z</time><extensions><gpxtpx:TrackPointExtension><gpxtpx:hr>118</gpxtpx:hr></gpxtpx:TrackPointExtension></extensions></trkpt>
<trkpt lat="22.4621479" lon="114.1900103">
<ele>11</ele><time>2023-03-19T08:28:52.998Z</time><extensions><gpxtpx:TrackPointExtension><gpxtpx:hr>116</gpxtpx:hr></gpxtpx:TrackPointExtension></extensions></trkpt>
<trkpt lat="22.4621490" lon="114.1900749">
<ele>11</ele><time>2023-03-19T08:28:54.998Z</time><extensions><gpxtpx:TrackPointExtension><gpxtpx:hr>116</gpxtpx:hr></gpxtpx:TrackPointExtension></extensions></trkpt>
<trkpt lat="22.4621502" lon="114.1901442">
<ele>11</ele><time>2023-03-19T08:28:56.998Z</time><extensions><gpxtpx:TrackPointExtension><gpxtpx:hr>116</gpxtpx:hr></gpxtpx:TrackPointExtension></extensions></trkpt>
<trkpt lat="22.4621490" lon="114.1902131">
<ele>11</ele><time>2023-03-19T08:28:58.998Z</time><extensions><gpxtpx:TrackPointExtension><gpxtpx:hr>116</gpxtpx:hr></gpxtpx:TrackPointExtension></extensions></trkpt>
<trkpt lat="22.4621472" lon="114.1902714">
<ele>11</ele><time>2023-03-19T08:29:00.998Z</time><extensions><gpxtpx:TrackPointExtension><gpxtpx:hr>116</gpxtpx:hr></gpxtpx:TrackPointExtension></extensions></trkpt>
<trkpt lat="22.4621438" lon="114.1903308">
<ele>11</ele><time>2023-03-19T08:29:02.998Z</time><extensions><gpxtpx:TrackPointExtension><gpxtpx:hr>117</gpxtpx:hr></gpxtpx:TrackPointExtension></extensions></trkpt>
<trkpt lat="22.4621400" lon="114.1904035">
<ele>11</ele><time>2023-03-19T08:29:04.998Z</time><extensions><gpxtpx:TrackPointExtension><gpxtpx:hr>117</gpxtpx:hr></gpxtpx:TrackPointExtension></extensions></trkpt>
<trkpt lat="22.4621223" lon="114.1904673">
<ele>11</ele><time>2023-03-19T08:29:06.998Z</time><extensions><gpxtpx:TrackPointExtension><gpxtpx:hr>117</gpxtpx:hr></gpxtpx:TrackPointExtension></extensions></trkpt>
<trkpt lat="22.4621080" lon="114.1905481">
<ele>11</ele><time>2023-03-19T08:29:08.998Z</time><extensions><gpxtpx:TrackPointExtension><gpxtpx:hr>117</gpxtpx:hr></gpxtpx:TrackPointExtension></extensions></trkpt>
<trkpt lat="22.4621044" lon="114.1906333">
<ele>11</ele><time>2023-03-19T08:29:10.998Z</time><extensions><gpxtpx:TrackPointExtension><gpxtpx:hr>117</gpxtpx:hr></gpxtpx:TrackPointExtension></extensions></trkpt>
<trkpt lat="22.4621084" lon="114.1907278">
<ele>11</ele><time>2023-03-19T08:29:12.998Z</time><extensions><gpxtpx:TrackPointExtension><gpxtpx:hr>116</gpxtpx:hr></gpxtpx:TrackPointExtension></extensions></trkpt>
<trkpt lat="22.4620966" lon="114.1907806">
<ele>11</ele><time>2023-03-19T08:29:13.998Z</time><extensions><gpxtpx:TrackPointExtension><gpxtpx:hr>116</gpxtpx:hr></gpxtpx:TrackPointExtension></extensions></trkpt>
<trkpt lat="22.4620692" lon="114.1908326">
<ele>11</ele><time>2023-03-19T08:29:14.998Z</time><extensions><gpxtpx:TrackPointExtension><gpxtpx:hr>116</gpxtpx:hr></gpxtpx:TrackPointExtension></extensions></trkpt>
<trkpt lat="22.4620524" lon="114.1908837">
<ele>11</ele><time>2023-03-19T08:29:15.998Z</time><extensions><gpxtpx:TrackPointExtension><gpxtpx:hr>116</gpxtpx:hr></gpxtpx:TrackPointExtension></extensions></trkpt>
<trkpt lat="22.4620304" lon="114.1909312">
<ele>11</ele><time>2023-03-19T08:29:16.998Z</time><extensions><gpxtpx:TrackPointExtension><gpxtpx:hr>116</gpxtpx:hr></gpxtpx:TrackPointExtension></extensions></trkpt>
<trkpt lat="22.4619812" lon="114.1910243">
<ele>11</ele><time>2023-03-19T08:29:19.000Z</time><extensions><gpxtpx:TrackPointExtension><gpxtpx:hr>117</gpxtpx:hr></gpxtpx:TrackPointExtension></extensions></trkpt>
<trkpt lat="22.4619536" lon="114.1910819">
<ele>11</ele><time>2023-03-19T08:29:20.000Z</time><extensions><gpxtpx:TrackPointExtension><gpxtpx:hr>117</gpxtpx:hr></gpxtpx:TrackPointExtension></extensions></trkpt>
<trkpt lat="22.4619231" lon="114.1911410">
<ele>11</ele><time>2023-03-19T08:29:21.000Z</time><extensions><gpxtpx:TrackPointExtension><gpxtpx:hr>117</gpxtpx:hr></gpxtpx:TrackPointExtension></extensions></trkpt>
<trkpt lat="22.4618956" lon="114.1912034">
<ele>11</ele><time>2023-03-19T08:29:22.000Z</time><extensions><gpxtpx:TrackPointExtension><gpxtpx:hr>117</gpxtpx:hr></gpxtpx:TrackPointExtension></extensions></trkpt>
<trkpt lat="22.4618657" lon="114.1912677">
<ele>11</ele><time>2023-03-19T08:29:23.000Z</time><extensions><gpxtpx:TrackPointExtension><gpxtpx:hr>121</gpxtpx:hr></gpxtpx:TrackPointExtension></extensions></trkpt>
<trkpt lat="22.4618393" lon="114.1913330">
<ele>11</ele><time>2023-03-19T08:29:24.000Z</time><extensions><gpxtpx:TrackPointExtension><gpxtpx:hr>121</gpxtpx:hr></gpxtpx:TrackPointExtension></extensions></trkpt>
<trkpt lat="22.4618094" lon="114.1913980">
<ele>11</ele><time>2023-03-19T08:29:25.000Z</time><extensions><gpxtpx:TrackPointExtension><gpxtpx:hr>121</gpxtpx:hr></gpxtpx:TrackPointExtension></extensions></trkpt>
<trkpt lat="22.4617760" lon="114.1914656">
<ele>11</ele><time>2023-03-19T08:29:26.000Z</time><extensions><gpxtpx:TrackPointExtension><gpxtpx:hr>121</gpxtpx:hr></gpxtpx:TrackPointExtension></extensions></trkpt>
<trkpt lat="22.4617455" lon="114.1915301">
<ele>11</ele><time>2023-03-19T08:29:27.000Z</time><extensions><gpxtpx:TrackPointExtension><gpxtpx:hr>121</gpxtpx:hr></gpxtpx:TrackPointExtension></extensions></trkpt>
<trkpt lat="22.4617203" lon="114.1915972">
<ele>11</ele><time>2023-03-19T08:29:28.000Z</time><extensions><gpxtpx:TrackPointExtension><gpxtpx:hr>122</gpxtpx:hr></gpxtpx:TrackPointExtension></extensions></trkpt>
<trkpt lat="22.4616876" lon="114.1916667">
<ele>11</ele><time>2023-03-19T08:29:29.000Z</time><extensions><gpxtpx:TrackPointExtension><gpxtpx:hr>122</gpxtpx:hr></gpxtpx:TrackPointExtension></extensions></trkpt>
<trkpt lat="22.4616542" lon="114.1917288">
<ele>11</ele><time>2023-03-19T08:29:30.000Z</time><extensions><gpxtpx:TrackPointExtension><gpxtpx:hr>122</gpxtpx:hr></gpxtpx:TrackPointExtension></extensions></trkpt>
<trkpt lat="22.4616221" lon="114.1917897">
<ele>11</ele><time>2023-03-19T08:29:31.000Z</time><extensions><gpxtpx:TrackPointExtension><gpxtpx:hr>122</gpxtpx:hr></gpxtpx:TrackPointExtension></extensions></trkpt>
<trkpt lat="22.4615973" lon="114.1918444">
<ele>11</ele><time>2023-03-19T08:29:32.000Z</time><extensions><gpxtpx:TrackPointExtension><gpxtpx:hr>122</gpxtpx:hr></gpxtpx:TrackPointExtension></extensions></trkpt>
<trkpt lat="22.4615677" lon="114.1919004">
<ele>11</ele><time>2023-03-19T08:29:32.999Z</time><extensions><gpxtpx:TrackPointExtension><gpxtpx:hr>125</gpxtpx:hr></gpxtpx:TrackPointExtension></extensions></trkpt>
<trkpt lat="22.4615420" lon="114.1919527">
<ele>11</ele><time>2023-03-19T08:29:33.999Z</time><extensions><gpxtpx:TrackPointExtension><gpxtpx:hr>125</gpxtpx:hr></gpxtpx:TrackPointExtension></extensions></trkpt>
<trkpt lat="22.4615171" lon="114.1920057">
<ele>11</ele><time>2023-03-19T08:29:34.999Z</time><extensions><gpxtpx:TrackPointExtension><gpxtpx:hr>125</gpxtpx:hr></gpxtpx:TrackPointExtension></extensions></trkpt>
<trkpt lat="22.4614852" lon="114.1920518">
<ele>11</ele><time>2023-03-19T08:29:35.999Z</time><extensions><gpxtpx:TrackPointExtension><gpxtpx:hr>125</gpxtpx:hr></gpxtpx:TrackPointExtension></extensions></trkpt>
<trkpt lat="22.4614645" lon="114.1920979">
<ele>11</ele><time>2023-03-19T08:29:36.999Z</time><extensions><gpxtpx:TrackPointExtension><gpxtpx:hr>125</gpxtpx:hr></gpxtpx:TrackPointExtension></extensions></trkpt>
<trkpt lat="22.4614422" lon="114.1921440">
<ele>11</ele><time>2023-03-19T08:29:37.999Z</time><extensions><gpxtpx:TrackPointExtension><gpxtpx:hr>130</gpxtpx:hr></gpxtpx:TrackPointExtension></extensions></trkpt>
<trkpt lat="22.4614098" lon="114.1922281">
<ele>11</ele><time>2023-03-19T08:29:39.999Z</time><extensions><gpxtpx:TrackPointExtension><gpxtpx:hr>130</gpxtpx:hr></gpxtpx:TrackPointExtension></extensions></trkpt>
<trkpt lat="22.4613674" lon="114.1923053">
<ele>12</ele><time>2023-03-19T08:29:41.999Z</time><extensions><gpxtpx:TrackPointExtension><gpxtpx:hr>130</gpxtpx:hr></gpxtpx:TrackPointExtension></extensions></trkpt>
<trkpt lat="22.4613402" lon="114.1923805">
<ele>12</ele><time>2023-03-19T08:29:43.999Z</time><extensions><gpxtpx:TrackPointExtension><gpxtpx:hr>133</gpxtpx:hr></gpxtpx:TrackPointExtension></extensions></trkpt>
<trkpt lat="22.4613228" lon="114.1924494">
<ele>12</ele><time>2023-03-19T08:29:45.999Z</time><extensions><gpxtpx:TrackPointExtension><gpxtpx:hr>133</gpxtpx:hr></gpxtpx:TrackPointExtension></extensions></trkpt>
<trkpt lat="22.4613027" lon="114.1925107">
<ele>13</ele><time>2023-03-19T08:29:47.999Z</time><extensions><gpxtpx:TrackPointExtension><gpxtpx:hr>133</gpxtpx:hr></gpxtpx:TrackPointExtension></extensions></trkpt>
<trkpt lat="22.4612955" lon="114.1925732">
<ele>13</ele><time>2023-03-19T08:29:49.999Z</time><extensions><gpxtpx:TrackPointExtension><gpxtpx:hr>133</gpxtpx:hr></gpxtpx:TrackPointExtension></extensions></trkpt>
<trkpt lat="22.4612887" lon="114.1926307">
<ele>13</ele><time>2023-03-19T08:29:51.999Z</time><extensions><gpxtpx:TrackPointExtension><gpxtpx:hr>133</gpxtpx:hr></gpxtpx:TrackPointExtension></extensions></trkpt>
<trkpt lat="22.4612741" lon="114.1926796">
<ele>14</ele><time>2023-03-19T08:29:53.999Z</time><extensions><gpxtpx:TrackPointExtension><gpxtpx:hr>133</gpxtpx:hr></gpxtpx:TrackPointExtension></extensions></trkpt>
<trkpt lat="22.4612596" lon="114.1927306">
<ele>14</ele><time>2023-03-19T08:29:55.999Z</time><extensions><gpxtpx:TrackPointExtension><gpxtpx:hr>133</gpxtpx:hr></gpxtpx:TrackPointExtension></extensions></trkpt>
<trkpt lat="22.4612478" lon="114.1927933">
<ele>15</ele><time>2023-03-19T08:29:58.999Z</time><extensions><gpxtpx:TrackPointExtension><gpxtpx:hr>133</gpxtpx:hr></gpxtpx:TrackPointExtension></extensions></trkpt>
<trkpt lat="22.4612306" lon="114.1928566">
<ele>15</ele><time>2023-03-19T08:30:01.999Z</time><extensions><gpxtpx:TrackPointExtension><gpxtpx:hr>133</gpxtpx:hr></gpxtpx:TrackPointExtension></extensions></trkpt>
<trkpt lat="22.4612167" lon="114.1929207">
<ele>15</ele><time>2023-03-19T08:30:04.999Z</time><extensions><gpxtpx:TrackPointExtension><gpxtpx:hr>133</gpxtpx:hr></gpxtpx:TrackPointExtension></extensions></trkpt>
<trkpt lat="22.4612076" lon="114.1929841">
<ele>16</ele><time>2023-03-19T08:30:07.999Z</time><extensions><gpxtpx:TrackPointExtension><gpxtpx:hr>133</gpxtpx:hr></gpxtpx:TrackPointExtension></extensions></trkpt>
<trkpt lat="22.4611926" lon="114.1930321">
<ele>16</ele><time>2023-03-19T08:30:09.999Z</time><extensions><gpxtpx:TrackPointExtension><gpxtpx:hr>133</gpxtpx:hr></gpxtpx:TrackPointExtension></extensions></trkpt>
<trkpt lat="22.4611737" lon="114.1930815">
<ele>17</ele><time>2023-03-19T08:30:11.999Z</time><extensions><gpxtpx:TrackPointExtension><gpxtpx:hr>133</gpxtpx:hr></gpxtpx:TrackPointExtension></extensions></trkpt>
<trkpt lat="22.4611649" lon="114.1931356">
<ele>17</ele><time>2023-03-19T08:30:13.999Z</time><extensions><gpxtpx:TrackPointExtension><gpxtpx:hr>144</gpxtpx:hr></gpxtpx:TrackPointExtension></extensions></trkpt>
<trkpt lat="22.4611646" lon="114.1931890">
<ele>17</ele><time>2023-03-19T08:30:15.999Z</time><extensions><gpxtpx:TrackPointExtension><gpxtpx:hr>144</gpxtpx:hr></gpxtpx:TrackPointExtension></extensions></trkpt>
<trkpt lat="22.4611622" lon="114.1932597">
<ele>17</ele><time>2023-03-19T08:30:18.999Z</time><extensions><gpxtpx:TrackPointExtension><gpxtpx:hr>144</gpxtpx:hr></gpxtpx:TrackPointExtension></extensions></trkpt>
<trkpt lat="22.4611514" lon="114.1933322">
<ele>17</ele><time>2023-03-19T08:30:21.999Z</time><extensions><gpxtpx:TrackPointExtension><gpxtpx:hr>144</gpxtpx:hr></gpxtpx:TrackPointExtension></extensions></trkpt>
<trkpt lat="22.4611263" lon="114.1934038">
<ele>18</ele><time>2023-03-19T08:30:24.999Z</time><extensions><gpxtpx:TrackPointExtension><gpxtpx:hr>144</gpxtpx:hr></gpxtpx:TrackPointExtension></extensions></trkpt>
<trkpt lat="22.4611232" lon="114.1934543">
<ele>18</ele><time>2023-03-19T08:30:26.999Z</time><extensions><gpxtpx:TrackPointExtension><gpxtpx:hr>144</gpxtpx:hr></gpxtpx:TrackPointExtension></extensions></trkpt>
<trkpt lat="22.4611093" lon="114.1935018">
<ele>18</ele><time>2023-03-19T08:30:28.999Z</time><extensions><gpxtpx:TrackPointExtension><gpxtpx:hr>144</gpxtpx:hr></gpxtpx:TrackPointExtension></extensions></trkpt>
<trkpt lat="22.4610910" lon="114.1935463">
<ele>19</ele><time>2023-03-19T08:30:30.999Z</time><extensions><gpxtpx:TrackPointExtension><gpxtpx:hr>144</gpxtpx:hr></gpxtpx:TrackPointExtension></extensions></trkpt>
<trkpt lat="22.4610708" lon="114.1936127">
<ele>19</ele><time>2023-03-19T08:30:33.999Z</time><extensions><gpxtpx:TrackPointExtension><gpxtpx:hr>144</gpxtpx:hr></gpxtpx:TrackPointExtension></extensions></trkpt>
<trkpt lat="22.4610535" lon="114.1936756">
<ele>19</ele><time>2023-03-19T08:30:36.998Z</time><extensions><gpxtpx:TrackPointExtension><gpxtpx:hr>144</gpxtpx:hr></gpxtpx:TrackPointExtension></extensions></trkpt>
<trkpt lat="22.4610277" lon="114.1937324">
<ele>19</ele><time>2023-03-19T08:30:39.998Z</time><extensions><gpxtpx:TrackPointExtension><gpxtpx:hr>144</gpxtpx:hr></gpxtpx:TrackPointExtension></extensions></trkpt>
<trkpt lat="22.4610055" lon="114.1937901">
<ele>20</ele><time>2023-03-19T08:30:42.998Z</time><extensions><gpxtpx:TrackPointExtension><gpxtpx:hr>144</gpxtpx:hr></gpxtpx:TrackPointExtension></extensions></trkpt>
<trkpt lat="22.4609818" lon="114.1938541">
<ele>20</ele><time>2023-03-19T08:30:45.998Z</time><extensions><gpxtpx:TrackPointExtension><gpxtpx:hr>144</gpxtpx:hr></gpxtpx:TrackPointExtension></extensions></trkpt>
<trkpt lat="22.4609603" lon="114.1939158">
<ele>20</ele><time>2023-03-19T08:30:48.998Z</time><extensions><gpxtpx:TrackPointExtension><gpxtpx:hr>157</gpxtpx:hr></gpxtpx:TrackPointExtension></extensions></trkpt>
<trkpt lat="22.4609351" lon="114.1939661">
<ele>21</ele><time>2023-03-19T08:30:51.998Z</time><extensions><gpxtpx:TrackPointExtension><gpxtpx:hr>157</gpxtpx:hr></gpxtpx:TrackPointExtension></extensions></trkpt>
<trkpt lat="22.4609131" lon="114.1940262">
<ele>21</ele><time>2023-03-19T08:30:55.998Z</time><extensions><gpxtpx:TrackPointExtension><gpxtpx:hr>160</gpxtpx:hr></gpxtpx:TrackPointExtension></extensions></trkpt>
<trkpt lat="22.4608922" lon="114.1940711">
<ele>22</ele><time>2023-03-19T08:30:59.998Z</time><extensions><gpxtpx:TrackPointExtension><gpxtpx:hr>159</gpxtpx:hr></gpxtpx:TrackPointExtension></extensions></trkpt>
<trkpt lat="22.4608779" lon="114.1941247">
<ele>22</ele><time>2023-03-19T08:31:03.998Z</time><extensions><gpxtpx:TrackPointExtension><gpxtpx:hr>159</gpxtpx:hr></gpxtpx:TrackPointExtension></extensions></trkpt>
<trkpt lat="22.4608685" lon="114.1941832">
<ele>23</ele><time>2023-03-19T08:31:06.998Z</time><extensions><gpxtpx:TrackPointExtension><gpxtpx:hr>159</gpxtpx:hr></gpxtpx:TrackPointExtension></extensions></trkpt>
<trkpt lat="22.4608540" lon="114.1942440">
<ele>23</ele><time>2023-03-19T08:31:10.998Z</time><extensions><gpxtpx:TrackPointExtension><gpxtpx:hr>158</gpxtpx:hr></gpxtpx:TrackPointExtension></extensions></trkpt>
<trkpt lat="22.4608632" lon="114.1941851">
<ele>23</ele><time>2023-03-19T08:31:25.000Z</time><extensions><gpxtpx:TrackPointExtension><gpxtpx:hr>156</gpxtpx:hr></gpxtpx:TrackPointExtension></extensions></trkpt>
<trkpt lat="22.4608631" lon="114.1941288">
<ele>22</ele><time>2023-03-19T08:31:29.000Z</time><extensions><gpxtpx:TrackPointExtension><gpxtpx:hr>153</gpxtpx:hr></gpxtpx:TrackPointExtension></extensions></trkpt>
<trkpt lat="22.4608920" lon="114.1940776">
<ele>22</ele><time>2023-03-19T08:31:34.000Z</time><extensions><gpxtpx:TrackPointExtension><gpxtpx:hr>153</gpxtpx:hr></gpxtpx:TrackPointExtension></extensions></trkpt>
<trkpt lat="22.4609251" lon="114.1940304">
<ele>22</ele><time>2023-03-19T08:32:37.999Z</time><extensions><gpxtpx:TrackPointExtension><gpxtpx:hr>125</gpxtpx:hr></gpxtpx:TrackPointExtension></extensions></trkpt>
<trkpt lat="22.4609372" lon="114.1939771">
<ele>22</ele><time>2023-03-19T08:33:08.998Z</time><extensions><gpxtpx:TrackPointExtension><gpxtpx:hr>126</gpxtpx:hr></gpxtpx:TrackPointExtension></extensions></trkpt>
<trkpt lat="22.4609431" lon="114.1940319">
<ele>22</ele><time>2023-03-19T08:33:30.999Z</time><extensions><gpxtpx:TrackPointExtension><gpxtpx:hr>124</gpxtpx:hr></gpxtpx:TrackPointExtension></extensions></trkpt>
<trkpt lat="22.4609312" lon="114.1940888">
<ele>22</ele><time>2023-03-19T08:33:36.999Z</time><extensions><gpxtpx:TrackPointExtension><gpxtpx:hr>124</gpxtpx:hr></gpxtpx:TrackPointExtension></extensions></trkpt>
<trkpt lat="22.4609065" lon="114.1941339">
<ele>22</ele><time>2023-03-19T08:33:47.999Z</time><extensions><gpxtpx:TrackPointExtension><gpxtpx:hr>123</gpxtpx:hr></gpxtpx:TrackPointExtension></extensions></trkpt>
<trkpt lat="22.4608768" lon="114.1941849">
<ele>23</ele><time>2023-03-19T08:33:51.999Z</time><extensions><gpxtpx:TrackPointExtension><gpxtpx:hr>120</gpxtpx:hr></gpxtpx:TrackPointExtension></extensions></trkpt>
<trkpt lat="22.4608515" lon="114.1942379">
<ele>23</ele><time>2023-03-19T08:33:56.999Z</time><extensions><gpxtpx:TrackPointExtension><gpxtpx:hr>120</gpxtpx:hr></gpxtpx:TrackPointExtension></extensions></trkpt>
<trkpt lat="22.4608417" lon="114.1942903">
<ele>23</ele><time>2023-03-19T08:34:03.999Z</time><extensions><gpxtpx:TrackPointExtension><gpxtpx:hr>120</gpxtpx:hr></gpxtpx:TrackPointExtension></extensions></trkpt>
<trkpt lat="22.4608453" lon="114.1943597">
<ele>23</ele><time>2023-03-19T08:34:06.999Z</time><extensions><gpxtpx:TrackPointExtension><gpxtpx:hr>120</gpxtpx:hr></gpxtpx:TrackPointExtension></extensions></trkpt>
<trkpt lat="22.4608169" lon="114.1943978">
<ele>23</ele><time>2023-03-19T08:34:08.999Z</time><extensions><gpxtpx:TrackPointExtension><gpxtpx:hr>120</gpxtpx:hr></gpxtpx:TrackPointExtension></extensions></trkpt>
<trkpt lat="22.4607978" lon="114.1944507">
<ele>24</ele><time>2023-03-19T08:34:10.999Z</time><extensions><gpxtpx:TrackPointExtension><gpxtpx:hr>120</gpxtpx:hr></gpxtpx:TrackPointExtension></extensions></trkpt>
<trkpt lat="22.4607738" lon="114.1944968">
<ele>24</ele><time>2023-03-19T08:34:12.999Z</time><extensions><gpxtpx:TrackPointExtension><gpxtpx:hr>120</gpxtpx:hr></gpxtpx:TrackPointExtension></extensions></trkpt>
<trkpt lat="22.4607567" lon="114.1945576">
<ele>24</ele><time>2023-03-19T08:34:14.999Z</time><extensions><gpxtpx:TrackPointExtension><gpxtpx:hr>119</gpxtpx:hr></gpxtpx:TrackPointExtension></extensions></trkpt>
<trkpt lat="22.4607311" lon="114.1946117">
<ele>24</ele><time>2023-03-19T08:34:16.999Z</time><extensions><gpxtpx:TrackPointExtension><gpxtpx:hr>119</gpxtpx:hr></gpxtpx:TrackPointExtension></extensions></trkpt>
<trkpt lat="22.4607128" lon="114.1946712">
<ele>24</ele><time>2023-03-19T08:34:18.999Z</time><extensions><gpxtpx:TrackPointExtension><gpxtpx:hr>119</gpxtpx:hr></gpxtpx:TrackPointExtension></extensions></trkpt>
<trkpt lat="22.4606919" lon="114.1947189">
<ele>24</ele><time>2023-03-19T08:34:20.999Z</time><extensions><gpxtpx:TrackPointExtension><gpxtpx:hr>119</gpxtpx:hr></gpxtpx:TrackPointExtension></extensions></trkpt>
<trkpt lat="22.4606705" lon="114.1947783">
<ele>24</ele><time>2023-03-19T08:34:22.999Z</time><extensions><gpxtpx:TrackPointExtension><gpxtpx:hr>119</gpxtpx:hr></gpxtpx:TrackPointExtension></extensions></trkpt>
<trkpt lat="22.4606482" lon="114.1948277">
<ele>24</ele><time>2023-03-19T08:34:24.999Z</time><extensions><gpxtpx:TrackPointExtension><gpxtpx:hr>123</gpxtpx:hr></gpxtpx:TrackPointExtension></extensions></trkpt>
<trkpt lat="22.4606360" lon="114.1948806">
<ele>24</ele><time>2023-03-19T08:34:26.999Z</time><extensions><gpxtpx:TrackPointExtension><gpxtpx:hr>123</gpxtpx:hr></gpxtpx:TrackPointExtension></extensions></trkpt>
<trkpt lat="22.4605984" lon="114.1949653">
<ele>24</ele><time>2023-03-19T08:34:30.999Z</time><extensions><gpxtpx:TrackPointExtension><gpxtpx:hr>128</gpxtpx:hr></gpxtpx:TrackPointExtension></extensions></trkpt>
<trkpt lat="22.4605765" lon="114.1950317">
<ele>24</ele><time>2023-03-19T08:34:33.999Z</time><extensions><gpxtpx:TrackPointExtension><gpxtpx:hr>128</gpxtpx:hr></gpxtpx:TrackPointExtension></extensions></trkpt>
<trkpt lat="22.4605568" lon="114.1950792">
<ele>24</ele><time>2023-03-19T08:34:35.999Z</time><extensions><gpxtpx:TrackPointExtension><gpxtpx:hr>124</gpxtpx:hr></gpxtpx:TrackPointExtension></extensions></trkpt>
<trkpt lat="22.4605455" lon="114.1951269">
<ele>24</ele><time>2023-03-19T08:34:37.999Z</time><extensions><gpxtpx:TrackPointExtension><gpxtpx:hr>124</gpxtpx:hr></gpxtpx:TrackPointExtension></extensions></trkpt>
<trkpt lat="22.4605212" lon="114.1951900">
<ele>24</ele><time>2023-03-19T08:34:40.999Z</time><extensions><gpxtpx:TrackPointExtension><gpxtpx:hr>124</gpxtpx:hr></gpxtpx:TrackPointExtension></extensions></trkpt>
<trkpt lat="22.4605025" lon="114.1952393">
<ele>24</ele><time>2023-03-19T08:34:42.999Z</time><extensions><gpxtpx:TrackPointExtension><gpxtpx:hr>124</gpxtpx:hr></gpxtpx:TrackPointExtension></extensions></trkpt>
<trkpt lat="22.4604801" lon="114.1953009">
<ele>24</ele><time>2023-03-19T08:34:45.998Z</time><extensions><gpxtpx:TrackPointExtension><gpxtpx:hr>122</gpxtpx:hr></gpxtpx:TrackPointExtension></extensions></trkpt>
<trkpt lat="22.4604452" lon="114.1953676">
<ele>24</ele><time>2023-03-19T08:34:48.998Z</time><extensions><gpxtpx:TrackPointExtension><gpxtpx:hr>122</gpxtpx:hr></gpxtpx:TrackPointExtension></extensions></trkpt>
<trkpt lat="22.4604115" lon="114.1954095">
<ele>24</ele><time>2023-03-19T08:34:51.998Z</time><extensions><gpxtpx:TrackPointExtension><gpxtpx:hr>118</gpxtpx:hr></gpxtpx:TrackPointExtension></extensions></trkpt>
<trkpt lat="22.4604052" lon="114.1954818">
<ele>24</ele><time>2023-03-19T08:34:53.998Z</time><extensions><gpxtpx:TrackPointExtension><gpxtpx:hr>118</gpxtpx:hr></gpxtpx:TrackPointExtension></extensions></trkpt>
<trkpt lat="22.4603812" lon="114.1955313">
<ele>24</ele><time>2023-03-19T08:34:55.998Z</time><extensions><gpxtpx:TrackPointExtension><gpxtpx:hr>118</gpxtpx:hr></gpxtpx:TrackPointExtension></extensions></trkpt>
<trkpt lat="22.4603665" lon="114.1955858">
<ele>24</ele><time>2023-03-19T08:34:57.998Z</time><extensions><gpxtpx:TrackPointExtension><gpxtpx:hr>118</gpxtpx:hr></gpxtpx:TrackPointExtension></extensions></trkpt>
<trkpt lat="22.4603514" lon="114.1956437">
<ele>24</ele><time>2023-03-19T08:34:59.998Z</time><extensions><gpxtpx:TrackPointExtension><gpxtpx:hr>119</gpxtpx:hr></gpxtpx:TrackPointExtension></extensions></trkpt>
<trkpt lat="22.4603199" lon="114.1957016">
<ele>24</ele><time>2023-03-19T08:35:02.998Z</time><extensions><gpxtpx:TrackPointExtension><gpxtpx:hr>119</gpxtpx:hr></gpxtpx:TrackPointExtension></extensions></trkpt>
<trkpt lat="22.4603093" lon="114.1957545">
<ele>24</ele><time>2023-03-19T08:35:04.998Z</time><extensions><gpxtpx:TrackPointExtension><gpxtpx:hr>119</gpxtpx:hr></gpxtpx:TrackPointExtension></extensions></trkpt>
<trkpt lat="22.4603002" lon="114.1958148">
<ele>24</ele><time>2023-03-19T08:35:07.998Z</time><extensions><gpxtpx:TrackPointExtension><gpxtpx:hr>117</gpxtpx:hr></gpxtpx:TrackPointExtension></extensions></trkpt>
<trkpt lat="22.4602771" lon="114.1958636">
<ele>24</ele><time>2023-03-19T08:35:10.998Z</time><extensions><gpxtpx:TrackPointExtension><gpxtpx:hr>128</gpxtpx:hr></gpxtpx:TrackPointExtension></extensions></trkpt>
<trkpt lat="22.4602549" lon="114.1959109">
<ele>24</ele><time>2023-03-19T08:35:12.998Z</time><extensions><gpxtpx:TrackPointExtension><gpxtpx:hr>128</gpxtpx:hr></gpxtpx:TrackPointExtension></extensions></trkpt>
<trkpt lat="22.4602287" lon="114.1959527">
<ele>24</ele><time>2023-03-19T08:35:14.998Z</time><extensions><gpxtpx:TrackPointExtension><gpxtpx:hr>128</gpxtpx:hr></gpxtpx:TrackPointExtension></extensions></trkpt>
<trkpt lat="22.4602034" lon="114.1959959">
<ele>24</ele><time>2023-03-19T08:35:15.998Z</time><extensions><gpxtpx:TrackPointExtension><gpxtpx:hr>128</gpxtpx:hr></gpxtpx:TrackPointExtension></extensions></trkpt>
<trkpt lat="22.4601820" lon="114.1960477">
<ele>24</ele><time>2023-03-19T08:35:16.998Z</time><extensions><gpxtpx:TrackPointExtension><gpxtpx:hr>128</gpxtpx:hr></gpxtpx:TrackPointExtension></extensions></trkpt>
<trkpt lat="22.4601414" lon="114.1961226">
<ele>24</ele><time>2023-03-19T08:35:18.998Z</time><extensions><gpxtpx:TrackPointExtension><gpxtpx:hr>128</gpxtpx:hr></gpxtpx:TrackPointExtension></extensions></trkpt>
<trkpt lat="22.4601095" lon="114.1961968">
<ele>24</ele><time>2023-03-19T08:35:20.998Z</time><extensions><gpxtpx:TrackPointExtension><gpxtpx:hr>128</gpxtpx:hr></gpxtpx:TrackPointExtension></extensions></trkpt>
<trkpt lat="22.4600834" lon="114.1962599">
<ele>23</ele><time>2023-03-19T08:35:22.998Z</time><extensions><gpxtpx:TrackPointExtension><gpxtpx:hr>128</gpxtpx:hr></gpxtpx:TrackPointExtension></extensions></trkpt>
<trkpt lat="22.4600495" lon="114.1963284">
<ele>23</ele><time>2023-03-19T08:35:24.998Z</time><extensions><gpxtpx:TrackPointExtension><gpxtpx:hr>126</gpxtpx:hr></gpxtpx:TrackPointExtension></extensions></trkpt>
<trkpt lat="22.4600150" lon="114.1963873">
<ele>23</ele><time>2023-03-19T08:35:26.998Z</time><extensions><gpxtpx:TrackPointExtension><gpxtpx:hr>126</gpxtpx:hr></gpxtpx:TrackPointExtension></extensions></trkpt>
<trkpt lat="22.4599862" lon="114.1964437">
<ele>23</ele><time>2023-03-19T08:35:28.998Z</time><extensions><gpxtpx:TrackPointExtension><gpxtpx:hr>126</gpxtpx:hr></gpxtpx:TrackPointExtension></extensions></trkpt>
<trkpt lat="22.4599599" lon="114.1964961">
<ele>23</ele><time>2023-03-19T08:35:30.998Z</time><extensions><gpxtpx:TrackPointExtension><gpxtpx:hr>131</gpxtpx:hr></gpxtpx:TrackPointExtension></extensions></trkpt>
<trkpt lat="22.4599293" lon="114.1965394">
<ele>23</ele><time>2023-03-19T08:35:32.998Z</time><extensions><gpxtpx:TrackPointExtension><gpxtpx:hr>131</gpxtpx:hr></gpxtpx:TrackPointExtension></extensions></trkpt>
<trkpt lat="22.4599018" lon="114.1965970">
<ele>23</ele><time>2023-03-19T08:35:34.998Z</time><extensions><gpxtpx:TrackPointExtension><gpxtpx:hr>127</gpxtpx:hr></gpxtpx:TrackPointExtension></extensions></trkpt>
<trkpt lat="22.4598712" lon="114.1966419">
<ele>23</ele><time>2023-03-19T08:35:36.999Z</time><extensions><gpxtpx:TrackPointExtension><gpxtpx:hr>127</gpxtpx:hr></gpxtpx:TrackPointExtension></extensions></trkpt>
<trkpt lat="22.4598386" lon="114.1966836">
<ele>23</ele><time>2023-03-19T08:35:38.999Z</time><extensions><gpxtpx:TrackPointExtension><gpxtpx:hr>127</gpxtpx:hr></gpxtpx:TrackPointExtension></extensions></trkpt>
<trkpt lat="22.4598064" lon="114.1967191">
<ele>23</ele><time>2023-03-19T08:35:40.999Z</time><extensions><gpxtpx:TrackPointExtension><gpxtpx:hr>125</gpxtpx:hr></gpxtpx:TrackPointExtension></extensions></trkpt>
<trkpt lat="22.4597617" lon="114.1967664">
<ele>23</ele><time>2023-03-19T08:35:43.999Z</time><extensions><gpxtpx:TrackPointExtension><gpxtpx:hr>125</gpxtpx:hr></gpxtpx:TrackPointExtension></extensions></trkpt>
<trkpt lat="22.4597198" lon="114.1967977">
<ele>23</ele><time>2023-03-19T08:35:45.999Z</time><extensions><gpxtpx:TrackPointExtension><gpxtpx:hr>125</gpxtpx:hr></gpxtpx:TrackPointExtension></extensions></trkpt>
<trkpt lat="22.4596789" lon="114.1968393">
<ele>23</ele><time>2023-03-19T08:35:48.999Z</time><extensions><gpxtpx:TrackPointExtension><gpxtpx:hr>125</gpxtpx:hr></gpxtpx:TrackPointExtension></extensions></trkpt>
<trkpt lat="22.4596483" lon="114.1968773">
<ele>23</ele><time>2023-03-19T08:35:50.999Z</time><extensions><gpxtpx:TrackPointExtension><gpxtpx:hr>125</gpxtpx:hr></gpxtpx:TrackPointExtension></extensions></trkpt>
<trkpt lat="22.4596053" lon="114.1969352">
<ele>23</ele><time>2023-03-19T08:35:53.999Z</time><extensions><gpxtpx:TrackPointExtension><gpxtpx:hr>125</gpxtpx:hr></gpxtpx:TrackPointExtension></extensions></trkpt>
<trkpt lat="22.4595623" lon="114.1969926">
<ele>23</ele><time>2023-03-19T08:35:56.999Z</time><extensions><gpxtpx:TrackPointExtension><gpxtpx:hr>124</gpxtpx:hr></gpxtpx:TrackPointExtension></extensions></trkpt>
<trkpt lat="22.4595189" lon="114.1970291">
<ele>23</ele><time>2023-03-19T08:35:58.999Z</time><extensions><gpxtpx:TrackPointExtension><gpxtpx:hr>124</gpxtpx:hr></gpxtpx:TrackPointExtension></extensions></trkpt>
<trkpt lat="22.4594874" lon="114.1970724">
<ele>23</ele><time>2023-03-19T08:36:01.999Z</time><extensions><gpxtpx:TrackPointExtension><gpxtpx:hr>124</gpxtpx:hr></gpxtpx:TrackPointExtension></extensions></trkpt>
<trkpt lat="22.4594623" lon="114.1971325">
<ele>23</ele><time>2023-03-19T08:36:03.999Z</time><extensions><gpxtpx:TrackPointExtension><gpxtpx:hr>124</gpxtpx:hr></gpxtpx:TrackPointExtension></extensions></trkpt>
<trkpt lat="22.4594468" lon="114.1972003">
<ele>23</ele><time>2023-03-19T08:36:06.999Z</time><extensions><gpxtpx:TrackPointExtension><gpxtpx:hr>124</gpxtpx:hr></gpxtpx:TrackPointExtension></extensions></trkpt>
<trkpt lat="22.4594234" lon="114.1972546">
<ele>23</ele><time>2023-03-19T08:36:08.999Z</time><extensions><gpxtpx:TrackPointExtension><gpxtpx:hr>124</gpxtpx:hr></gpxtpx:TrackPointExtension></extensions></trkpt>
<trkpt lat="22.4594170" lon="114.1973137">
<ele>23</ele><time>2023-03-19T08:36:10.999Z</time><extensions><gpxtpx:TrackPointExtension><gpxtpx:hr>125</gpxtpx:hr></gpxtpx:TrackPointExtension></extensions></trkpt>
<trkpt lat="22.4593736" lon="114.1973547">
<ele>23</ele><time>2023-03-19T08:36:12.999Z</time><extensions><gpxtpx:TrackPointExtension><gpxtpx:hr>125</gpxtpx:hr></gpxtpx:TrackPointExtension></extensions></trkpt>
<trkpt lat="22.4593506" lon="114.1974212">
<ele>22</ele><time>2023-03-19T08:36:14.999Z</time><extensions><gpxtpx:TrackPointExtension><gpxtpx:hr>122</gpxtpx:hr></gpxtpx:TrackPointExtension></extensions></trkpt>
<trkpt lat="22.4593299" lon="114.1974761">
<ele>22</ele><time>2023-03-19T08:36:16.999Z</time><extensions><gpxtpx:TrackPointExtension><gpxtpx:hr>122</gpxtpx:hr></gpxtpx:TrackPointExtension></extensions></trkpt>
<trkpt lat="22.4593189" lon="114.1975239">
<ele>22</ele><time>2023-03-19T08:36:17.999Z</time><extensions><gpxtpx:TrackPointExtension><gpxtpx:hr>122</gpxtpx:hr></gpxtpx:TrackPointExtension></extensions></trkpt>
<trkpt lat="22.4593046" lon="114.1975938">
<ele>22</ele><time>2023-03-19T08:36:19.999Z</time><extensions><gpxtpx:TrackPointExtension><gpxtpx:hr>121</gpxtpx:hr></gpxtpx:TrackPointExtension></extensions></trkpt>
<trkpt lat="22.4592926" lon="114.1976671">
<ele>22</ele><time>2023-03-19T08:36:21.999Z</time><extensions><gpxtpx:TrackPointExtension><gpxtpx:hr>121</gpxtpx:hr></gpxtpx:TrackPointExtension></extensions></trkpt>
<trkpt lat="22.4592940" lon="114.1977272">
<ele>22</ele><time>2023-03-19T08:36:23.999Z</time><extensions><gpxtpx:TrackPointExtension><gpxtpx:hr>121</gpxtpx:hr></gpxtpx:TrackPointExtension></extensions></trkpt>
<trkpt lat="22.4592982" lon="114.1977964">
<ele>22</ele><time>2023-03-19T08:36:26.999Z</time><extensions><gpxtpx:TrackPointExtension><gpxtpx:hr>121</gpxtpx:hr></gpxtpx:TrackPointExtension></extensions></trkpt>
<trkpt lat="22.4593042" lon="114.1978553">
<ele>22</ele><time>2023-03-19T08:36:29.999Z</time><extensions><gpxtpx:TrackPointExtension><gpxtpx:hr>119</gpxtpx:hr></gpxtpx:TrackPointExtension></extensions></trkpt>
<trkpt lat="22.4593015" lon="114.1979093">
<ele>22</ele><time>2023-03-19T08:36:33.999Z</time><extensions><gpxtpx:TrackPointExtension><gpxtpx:hr>119</gpxtpx:hr></gpxtpx:TrackPointExtension></extensions></trkpt>
<trkpt lat="22.4592935" lon="114.1979730">
<ele>22</ele><time>2023-03-19T08:36:44.999Z</time><extensions><gpxtpx:TrackPointExtension><gpxtpx:hr>113</gpxtpx:hr></gpxtpx:TrackPointExtension></extensions></trkpt>
<trkpt lat="22.4592938" lon="114.1980447">
<ele>21</ele><time>2023-03-19T08:36:48.999Z</time><extensions><gpxtpx:TrackPointExtension><gpxtpx:hr>113</gpxtpx:hr></gpxtpx:TrackPointExtension></extensions></trkpt>
<trkpt lat="22.4592987" lon="114.1981136">
<ele>21</ele><time>2023-03-19T08:36:51.998Z</time><extensions><gpxtpx:TrackPointExtension><gpxtpx:hr>113</gpxtpx:hr></gpxtpx:TrackPointExtension></extensions></trkpt>
<trkpt lat="22.4592943" lon="114.1981685">
<ele>21</ele><time>2023-03-19T08:36:53.998Z</time><extensions><gpxtpx:TrackPointExtension><gpxtpx:hr>113</gpxtpx:hr></gpxtpx:TrackPointExtension></extensions></trkpt>
<trkpt lat="22.4592906" lon="114.1982229">
<ele>21</ele><time>2023-03-19T08:36:55.998Z</time><extensions><gpxtpx:TrackPointExtension><gpxtpx:hr>114</gpxtpx:hr></gpxtpx:TrackPointExtension></extensions></trkpt>
<trkpt lat="22.4592875" lon="114.1982937">
<ele>21</ele><time>2023-03-19T08:36:57.998Z</time><extensions><gpxtpx:TrackPointExtension><gpxtpx:hr>114</gpxtpx:hr></gpxtpx:TrackPointExtension></extensions></trkpt>
<trkpt lat="22.4593105" lon="114.1983698">
<ele>20</ele><time>2023-03-19T08:36:59.998Z</time><extensions><gpxtpx:TrackPointExtension><gpxtpx:hr>117</gpxtpx:hr></gpxtpx:TrackPointExtension></extensions></trkpt>
<trkpt lat="22.4593391" lon="114.1984549">
<ele>20</ele><time>2023-03-19T08:37:01.998Z</time><extensions><gpxtpx:TrackPointExtension><gpxtpx:hr>117</gpxtpx:hr></gpxtpx:TrackPointExtension></extensions></trkpt>
<trkpt lat="22.4593564" lon="114.1985483">
<ele>20</ele><time>2023-03-19T08:37:03.998Z</time><extensions><gpxtpx:TrackPointExtension><gpxtpx:hr>117</gpxtpx:hr></gpxtpx:TrackPointExtension></extensions></trkpt>
<trkpt lat="22.4593679" lon="114.1986011">
<ele>20</ele><time>2023-03-19T08:37:04.998Z</time><extensions><gpxtpx:TrackPointExtension><gpxtpx:hr>119</gpxtpx:hr></gpxtpx:TrackPointExtension></extensions></trkpt>
<trkpt lat="22.4593703" lon="114.1986935">
<ele>20</ele><time>2023-03-19T08:37:06.998Z</time><extensions><gpxtpx:TrackPointExtension><gpxtpx:hr>119</gpxtpx:hr></gpxtpx:TrackPointExtension></extensions></trkpt>
<trkpt lat="22.4593881" lon="114.1987449">
<ele>20</ele><time>2023-03-19T08:37:07.998Z</time><extensions><gpxtpx:TrackPointExtension><gpxtpx:hr>119</gpxtpx:hr></gpxtpx:TrackPointExtension></extensions></trkpt>
<trkpt lat="22.4594031" lon="114.1988317">
<ele>20</ele><time>2023-03-19T08:37:09.998Z</time><extensions><gpxtpx:TrackPointExtension><gpxtpx:hr>118</gpxtpx:hr></gpxtpx:TrackPointExtension></extensions></trkpt>
<trkpt lat="22.4594218" lon="114.1989186">
<ele>20</ele><time>2023-03-19T08:37:11.998Z</time><extensions><gpxtpx:TrackPointExtension><gpxtpx:hr>118</gpxtpx:hr></gpxtpx:TrackPointExtension></extensions></trkpt>
<trkpt lat="22.4594384" lon="114.1990020">
<ele>20</ele><time>2023-03-19T08:37:13.998Z</time><extensions><gpxtpx:TrackPointExtension><gpxtpx:hr>118</gpxtpx:hr></gpxtpx:TrackPointExtension></extensions></trkpt>
<trkpt lat="22.4594661" lon="114.1990768">
<ele>20</ele><time>2023-03-19T08:37:15.998Z</time><extensions><gpxtpx:TrackPointExtension><gpxtpx:hr>110</gpxtpx:hr></gpxtpx:TrackPointExtension></extensions></trkpt>
<trkpt lat="22.4594917" lon="114.1991428">
<ele>20</ele><time>2023-03-19T08:37:17.998Z</time><extensions><gpxtpx:TrackPointExtension><gpxtpx:hr>110</gpxtpx:hr></gpxtpx:TrackPointExtension></extensions></trkpt>
<trkpt lat="22.4595041" lon="114.1992202">
<ele>20</ele><time>2023-03-19T08:37:19.998Z</time><extensions><gpxtpx:TrackPointExtension><gpxtpx:hr>109</gpxtpx:hr></gpxtpx:TrackPointExtension></extensions></trkpt>
<trkpt lat="22.4595185" lon="114.1992962">
<ele>20</ele><time>2023-03-19T08:37:21.998Z</time><extensions><gpxtpx:TrackPointExtension><gpxtpx:hr>109</gpxtpx:hr></gpxtpx:TrackPointExtension></extensions></trkpt>
<trkpt lat="22.4595338" lon="114.1993802">
<ele>20</ele><time>2023-03-19T08:37:23.998Z</time><extensions><gpxtpx:TrackPointExtension><gpxtpx:hr>109</gpxtpx:hr></gpxtpx:TrackPointExtension></extensions></trkpt>
<trkpt lat="22.4595527" lon="114.1994668">
<ele>20</ele><time>2023-03-19T08:37:25.998Z</time><extensions><gpxtpx:TrackPointExtension><gpxtpx:hr>111</gpxtpx:hr></gpxtpx:TrackPointExtension></extensions></trkpt>
<trkpt lat="22.4595572" lon="114.1995541">
<ele>20</ele><time>2023-03-19T08:37:27.998Z</time><extensions><gpxtpx:TrackPointExtension><gpxtpx:hr>111</gpxtpx:hr></gpxtpx:TrackPointExtension></extensions></trkpt>
<trkpt lat="22.4595759" lon="114.1996281">
<ele>20</ele><time>2023-03-19T08:37:29.998Z</time><extensions><gpxtpx:TrackPointExtension><gpxtpx:hr>110</gpxtpx:hr></gpxtpx:TrackPointExtension></extensions></trkpt>
<trkpt lat="22.4595887" lon="114.1996984">
<ele>20</ele><time>2023-03-19T08:37:31.998Z</time><extensions><gpxtpx:TrackPointExtension><gpxtpx:hr>110</gpxtpx:hr></gpxtpx:TrackPointExtension></extensions></trkpt>
<trkpt lat="22.4596151" lon="114.1997549">
<ele>20</ele><time>2023-03-19T08:37:33.998Z</time><extensions><gpxtpx:TrackPointExtension><gpxtpx:hr>110</gpxtpx:hr></gpxtpx:TrackPointExtension></extensions></trkpt>
<trkpt lat="22.4596241" lon="114.1998212">
<ele>20</ele><time>2023-03-19T08:37:35.998Z</time><extensions><gpxtpx:TrackPointExtension><gpxtpx:hr>113</gpxtpx:hr></gpxtpx:TrackPointExtension></extensions></trkpt>
<trkpt lat="22.4596261" lon="114.1998781">
<ele>20</ele><time>2023-03-19T08:37:37.998Z</time><extensions><gpxtpx:TrackPointExtension><gpxtpx:hr>113</gpxtpx:hr></gpxtpx:TrackPointExtension></extensions></trkpt>
<trkpt lat="22.4596541" lon="114.1999390">
<ele>20</ele><time>2023-03-19T08:37:39.998Z</time><extensions><gpxtpx:TrackPointExtension><gpxtpx:hr>111</gpxtpx:hr></gpxtpx:TrackPointExtension></extensions></trkpt>
<trkpt lat="22.4596659" lon="114.1999961">
<ele>20</ele><time>2023-03-19T08:37:41.999Z</time><extensions><gpxtpx:TrackPointExtension><gpxtpx:hr>111</gpxtpx:hr></gpxtpx:TrackPointExtension></extensions></trkpt>
<trkpt lat="22.4596736" lon="114.2000630">
<ele>20</ele><time>2023-03-19T08:37:43.999Z</time><extensions><gpxtpx:TrackPointExtension><gpxtpx:hr>111</gpxtpx:hr></gpxtpx:TrackPointExtension></extensions></trkpt>
<trkpt lat="22.4596863" lon="114.2001338">
<ele>19</ele><time>2023-03-19T08:37:45.999Z</time><extensions><gpxtpx:TrackPointExtension><gpxtpx:hr>113</gpxtpx:hr></gpxtpx:TrackPointExtension></extensions></trkpt>
<trkpt lat="22.4597041" lon="114.2002026">
<ele>19</ele><time>2023-03-19T08:37:47.999Z</time><extensions><gpxtpx:TrackPointExtension><gpxtpx:hr>113</gpxtpx:hr></gpxtpx:TrackPointExtension></extensions></trkpt>
<trkpt lat="22.4597146" lon="114.2002661">
<ele>19</ele><time>2023-03-19T08:37:49.999Z</time><extensions><gpxtpx:TrackPointExtension><gpxtpx:hr>114</gpxtpx:hr></gpxtpx:TrackPointExtension></extensions></trkpt>
<trkpt lat="22.4597252" lon="114.2003240">
<ele>19</ele><time>2023-03-19T08:37:51.999Z</time><extensions><gpxtpx:TrackPointExtension><gpxtpx:hr>114</gpxtpx:hr></gpxtpx:TrackPointExtension></extensions></trkpt>
<trkpt lat="22.4597423" lon="114.2003813">
<ele>19</ele><time>2023-03-19T08:37:54.999Z</time><extensions><gpxtpx:TrackPointExtension><gpxtpx:hr>116</gpxtpx:hr></gpxtpx:TrackPointExtension></extensions></trkpt>
<trkpt lat="22.4597538" lon="114.2004355">
<ele>19</ele><time>2023-03-19T08:38:12.999Z</time><extensions><gpxtpx:TrackPointExtension><gpxtpx:hr>115</gpxtpx:hr></gpxtpx:TrackPointExtension></extensions></trkpt>
<trkpt lat="22.4597587" lon="114.2004895">
<ele>19</ele><time>2023-03-19T08:38:16.999Z</time><extensions><gpxtpx:TrackPointExtension><gpxtpx:hr>108</gpxtpx:hr></gpxtpx:TrackPointExtension></extensions></trkpt>
<trkpt lat="22.4597827" lon="114.2005518">
<ele>19</ele><time>2023-03-19T08:38:21.999Z</time><extensions><gpxtpx:TrackPointExtension><gpxtpx:hr>108</gpxtpx:hr></gpxtpx:TrackPointExtension></extensions></trkpt>
<trkpt lat="22.4598079" lon="114.2006299">
<ele>19</ele><time>2023-03-19T08:38:24.999Z</time><extensions><gpxtpx:TrackPointExtension><gpxtpx:hr>107</gpxtpx:hr></gpxtpx:TrackPointExtension></extensions></trkpt>
<trkpt lat="22.4598145" lon="114.2007052">
<ele>19</ele><time>2023-03-19T08:38:26.999Z</time><extensions><gpxtpx:TrackPointExtension><gpxtpx:hr>107</gpxtpx:hr></gpxtpx:TrackPointExtension></extensions></trkpt>
<trkpt lat="22.4598196" lon="114.2007849">
<ele>19</ele><time>2023-03-19T08:38:28.999Z</time><extensions><gpxtpx:TrackPointExtension><gpxtpx:hr>107</gpxtpx:hr></gpxtpx:TrackPointExtension></extensions></trkpt>
<trkpt lat="22.4598185" lon="114.2008515">
<ele>19</ele><time>2023-03-19T08:38:30.999Z</time><extensions><gpxtpx:TrackPointExtension><gpxtpx:hr>111</gpxtpx:hr></gpxtpx:TrackPointExtension></extensions></trkpt>
<trkpt lat="22.4598198" lon="114.2009253">
<ele>19</ele><time>2023-03-19T08:38:32.999Z</time><extensions><gpxtpx:TrackPointExtension><gpxtpx:hr>111</gpxtpx:hr></gpxtpx:TrackPointExtension></extensions></trkpt>
<trkpt lat="22.4598336" lon="114.2010005">
<ele>19</ele><time>2023-03-19T08:38:34.999Z</time><extensions><gpxtpx:TrackPointExtension><gpxtpx:hr>110</gpxtpx:hr></gpxtpx:TrackPointExtension></extensions></trkpt>
<trkpt lat="22.4598332" lon="114.2010755">
<ele>19</ele><time>2023-03-19T08:38:36.999Z</time><extensions><gpxtpx:TrackPointExtension><gpxtpx:hr>110</gpxtpx:hr></gpxtpx:TrackPointExtension></extensions></trkpt>
<trkpt lat="22.4598391" lon="114.2011426">
<ele>18</ele><time>2023-03-19T08:38:38.999Z</time><extensions><gpxtpx:TrackPointExtension><gpxtpx:hr>110</gpxtpx:hr></gpxtpx:TrackPointExtension></extensions></trkpt>
<trkpt lat="22.4598507" lon="114.2012108">
<ele>18</ele><time>2023-03-19T08:38:40.999Z</time><extensions><gpxtpx:TrackPointExtension><gpxtpx:hr>110</gpxtpx:hr></gpxtpx:TrackPointExtension></extensions></trkpt>
<trkpt lat="22.4598551" lon="114.2012869">
<ele>18</ele><time>2023-03-19T08:38:42.999Z</time><extensions><gpxtpx:TrackPointExtension><gpxtpx:hr>110</gpxtpx:hr></gpxtpx:TrackPointExtension></extensions></trkpt>
<trkpt lat="22.4598817" lon="114.2013693">
<ele>18</ele><time>2023-03-19T08:38:44.999Z</time><extensions><gpxtpx:TrackPointExtension><gpxtpx:hr>110</gpxtpx:hr></gpxtpx:TrackPointExtension></extensions></trkpt>
<trkpt lat="22.4598781" lon="114.2014431">
<ele>18</ele><time>2023-03-19T08:38:46.999Z</time><extensions><gpxtpx:TrackPointExtension><gpxtpx:hr>110</gpxtpx:hr></gpxtpx:TrackPointExtension></extensions></trkpt>
<trkpt lat="22.4598834" lon="114.2015233">
<ele>18</ele><time>2023-03-19T08:38:48.999Z</time><extensions><gpxtpx:TrackPointExtension><gpxtpx:hr>110</gpxtpx:hr></gpxtpx:TrackPointExtension></extensions></trkpt>
<trkpt lat="22.4598930" lon="114.2016061">
<ele>18</ele><time>2023-03-19T08:38:50.999Z</time><extensions><gpxtpx:TrackPointExtension><gpxtpx:hr>110</gpxtpx:hr></gpxtpx:TrackPointExtension></extensions></trkpt>
<trkpt lat="22.4599047" lon="114.2016896">
<ele>18</ele><time>2023-03-19T08:38:52.999Z</time><extensions><gpxtpx:TrackPointExtension><gpxtpx:hr>110</gpxtpx:hr></gpxtpx:TrackPointExtension></extensions></trkpt>
<trkpt lat="22.4599050" lon="114.2017727">
<ele>18</ele><time>2023-03-19T08:38:54.999Z</time><extensions><gpxtpx:TrackPointExtension><gpxtpx:hr>109</gpxtpx:hr></gpxtpx:TrackPointExtension></extensions></trkpt>
<trkpt lat="22.4599122" lon="114.2018468">
<ele>18</ele><time>2023-03-19T08:38:56.999Z</time><extensions><gpxtpx:TrackPointExtension><gpxtpx:hr>109</gpxtpx:hr></gpxtpx:TrackPointExtension></extensions></trkpt>
<trkpt lat="22.4599226" lon="114.2019232">
<ele>18</ele><time>2023-03-19T08:38:58.999Z</time><extensions><gpxtpx:TrackPointExtension><gpxtpx:hr>109</gpxtpx:hr></gpxtpx:TrackPointExtension></extensions></trkpt>
<trkpt lat="22.4599296" lon="114.2019718">
<ele>18</ele><time>2023-03-19T08:38:59.998Z</time><extensions><gpxtpx:TrackPointExtension><gpxtpx:hr>110</gpxtpx:hr></gpxtpx:TrackPointExtension></extensions></trkpt>
<trkpt lat="22.4599336" lon="114.2020625">
<ele>18</ele><time>2023-03-19T08:39:01.998Z</time><extensions><gpxtpx:TrackPointExtension><gpxtpx:hr>110</gpxtpx:hr></gpxtpx:TrackPointExtension></extensions></trkpt>
<trkpt lat="22.4599509" lon="114.2021528">
<ele>18</ele><time>2023-03-19T08:39:03.998Z</time><extensions><gpxtpx:TrackPointExtension><gpxtpx:hr>110</gpxtpx:hr></gpxtpx:TrackPointExtension></extensions></trkpt>
<trkpt lat="22.4599491" lon="114.2022466">
<ele>17</ele><time>2023-03-19T08:39:05.998Z</time><extensions><gpxtpx:TrackPointExtension><gpxtpx:hr>110</gpxtpx:hr></gpxtpx:TrackPointExtension></extensions></trkpt>
<trkpt lat="22.4599540" lon="114.2023374">
<ele>17</ele><time>2023-03-19T08:39:07.998Z</time><extensions><gpxtpx:TrackPointExtension><gpxtpx:hr>110</gpxtpx:hr></gpxtpx:TrackPointExtension></extensions></trkpt>
<trkpt lat="22.4599632" lon="114.2024178">
<ele>17</ele><time>2023-03-19T08:39:09.998Z</time><extensions><gpxtpx:TrackPointExtension><gpxtpx:hr>110</gpxtpx:hr></gpxtpx:TrackPointExtension></extensions></trkpt>
<trkpt lat="22.4599742" lon="114.2025144">
<ele>17</ele><time>2023-03-19T08:39:11.998Z</time><extensions><gpxtpx:TrackPointExtension><gpxtpx:hr>110</gpxtpx:hr></gpxtpx:TrackPointExtension></extensions></trkpt>
<trkpt lat="22.4599810" lon="114.2026108">
<ele>17</ele><time>2023-03-19T08:39:13.998Z</time><extensions><gpxtpx:TrackPointExtension><gpxtpx:hr>110</gpxtpx:hr></gpxtpx:TrackPointExtension></extensions></trkpt>
<trkpt lat="22.4599878" lon="114.2026663">
<ele>17</ele><time>2023-03-19T08:39:14.998Z</time><extensions><gpxtpx:TrackPointExtension><gpxtpx:hr>113</gpxtpx:hr></gpxtpx:TrackPointExtension></extensions></trkpt>
<trkpt lat="22.4599962" lon="114.2027145">
<ele>17</ele><time>2023-03-19T08:39:15.998Z</time><extensions><gpxtpx:TrackPointExtension><gpxtpx:hr>113</gpxtpx:hr></gpxtpx:TrackPointExtension></extensions></trkpt>
<trkpt lat="22.4600058" lon="114.2028075">
<ele>17</ele><time>2023-03-19T08:39:17.998Z</time><extensions><gpxtpx:TrackPointExtension><gpxtpx:hr>113</gpxtpx:hr></gpxtpx:TrackPointExtension></extensions></trkpt>
<trkpt lat="22.4600076" lon="114.2028633">
<ele>17</ele><time>2023-03-19T08:39:18.998Z</time><extensions><gpxtpx:TrackPointExtension><gpxtpx:hr>113</gpxtpx:hr></gpxtpx:TrackPointExtension></extensions></trkpt>
<trkpt lat="22.4600186" lon="114.2029488">
<ele>16</ele><time>2023-03-19T08:39:20.998Z</time><extensions><gpxtpx:TrackPointExtension><gpxtpx:hr>114</gpxtpx:hr></gpxtpx:TrackPointExtension></extensions></trkpt>
<trkpt lat="22.4600296" lon="114.2029975">
<ele>16</ele><time>2023-03-19T08:39:21.998Z</time><extensions><gpxtpx:TrackPointExtension><gpxtpx:hr>114</gpxtpx:hr></gpxtpx:TrackPointExtension></extensions></trkpt>
<trkpt lat="22.4600402" lon="114.2030881">
<ele>16</ele><time>2023-03-19T08:39:23.998Z</time><extensions><gpxtpx:TrackPointExtension><gpxtpx:hr>114</gpxtpx:hr></gpxtpx:TrackPointExtension></extensions></trkpt>
<trkpt lat="22.4600626" lon="114.2031502">
<ele>16</ele><time>2023-03-19T08:39:25.998Z</time><extensions><gpxtpx:TrackPointExtension><gpxtpx:hr>113</gpxtpx:hr></gpxtpx:TrackPointExtension></extensions></trkpt>
<trkpt lat="22.4600764" lon="114.2032183">
<ele>16</ele><time>2023-03-19T08:39:27.998Z</time><extensions><gpxtpx:TrackPointExtension><gpxtpx:hr>113</gpxtpx:hr></gpxtpx:TrackPointExtension></extensions></trkpt>
<trkpt lat="22.4600941" lon="114.2032903">
<ele>15</ele><time>2023-03-19T08:39:29.998Z</time><extensions><gpxtpx:TrackPointExtension><gpxtpx:hr>113</gpxtpx:hr></gpxtpx:TrackPointExtension></extensions></trkpt>
<trkpt lat="22.4601097" lon="114.2033575">
<ele>15</ele><time>2023-03-19T08:39:31.998Z</time><extensions><gpxtpx:TrackPointExtension><gpxtpx:hr>113</gpxtpx:hr></gpxtpx:TrackPointExtension></extensions></trkpt>
<trkpt lat="22.4601270" lon="114.2034118">
<ele>15</ele><time>2023-03-19T08:39:33.998Z</time><extensions><gpxtpx:TrackPointExtension><gpxtpx:hr>113</gpxtpx:hr></gpxtpx:TrackPointExtension></extensions></trkpt>
<trkpt lat="22.4601368" lon="114.2034663">
<ele>15</ele><time>2023-03-19T08:39:35.998Z</time><extensions><gpxtpx:TrackPointExtension><gpxtpx:hr>113</gpxtpx:hr></gpxtpx:TrackPointExtension></extensions></trkpt>
<trkpt lat="22.4601471" lon="114.2035260">
<ele>15</ele><time>2023-03-19T08:39:56.000Z</time><extensions><gpxtpx:TrackPointExtension><gpxtpx:hr>117</gpxtpx:hr></gpxtpx:TrackPointExtension></extensions></trkpt>
<trkpt lat="22.4601726" lon="114.2035679">
<ele>14</ele><time>2023-03-19T08:39:59.000Z</time><extensions><gpxtpx:TrackPointExtension><gpxtpx:hr>117</gpxtpx:hr></gpxtpx:TrackPointExtension></extensions></trkpt>
<trkpt lat="22.4601719" lon="114.2036170">
<ele>14</ele><time>2023-03-19T08:40:03.000Z</time><extensions><gpxtpx:TrackPointExtension><gpxtpx:hr>117</gpxtpx:hr></gpxtpx:TrackPointExtension></extensions></trkpt>
<trkpt lat="22.4601226" lon="114.2036367">
<ele>14</ele><time>2023-03-19T08:40:06.999Z</time><extensions><gpxtpx:TrackPointExtension><gpxtpx:hr>116</gpxtpx:hr></gpxtpx:TrackPointExtension></extensions></trkpt>
<trkpt lat="22.4601025" lon="114.2036835">
<ele>14</ele><time>2023-03-19T08:40:32.999Z</time><extensions><gpxtpx:TrackPointExtension><gpxtpx:hr>112</gpxtpx:hr></gpxtpx:TrackPointExtension></extensions></trkpt>
<trkpt lat="22.4601410" lon="114.2037153">
<ele>14</ele><time>2023-03-19T08:41:34.998Z</time><extensions><gpxtpx:TrackPointExtension><gpxtpx:hr>108</gpxtpx:hr></gpxtpx:TrackPointExtension></extensions></trkpt>
<trkpt lat="22.4601627" lon="114.2037648">
<ele>14</ele><time>2023-03-19T08:41:37.998Z</time><extensions><gpxtpx:TrackPointExtension><gpxtpx:hr>108</gpxtpx:hr></gpxtpx:TrackPointExtension></extensions></trkpt>
<trkpt lat="22.4602130" lon="114.2037876">
<ele>14</ele><time>2023-03-19T08:41:41.998Z</time><extensions><gpxtpx:TrackPointExtension><gpxtpx:hr>107</gpxtpx:hr></gpxtpx:TrackPointExtension></extensions></trkpt>
<trkpt lat="22.4602615" lon="114.2038007">
<ele>14</ele><time>2023-03-19T08:41:44.998Z</time><extensions><gpxtpx:TrackPointExtension><gpxtpx:hr>108</gpxtpx:hr></gpxtpx:TrackPointExtension></extensions></trkpt>
<trkpt lat="22.4602948" lon="114.2038383">
<ele>14</ele><time>2023-03-19T08:41:46.998Z</time><extensions><gpxtpx:TrackPointExtension><gpxtpx:hr>108</gpxtpx:hr></gpxtpx:TrackPointExtension></extensions></trkpt>
<trkpt lat="22.4603218" lon="114.2038859">
<ele>14</ele><time>2023-03-19T08:41:48.998Z</time><extensions><gpxtpx:TrackPointExtension><gpxtpx:hr>108</gpxtpx:hr></gpxtpx:TrackPointExtension></extensions></trkpt>
<trkpt lat="22.4603526" lon="114.2039392">
<ele>14</ele><time>2023-03-19T08:41:50.998Z</time><extensions><gpxtpx:TrackPointExtension><gpxtpx:hr>112</gpxtpx:hr></gpxtpx:TrackPointExtension></extensions></trkpt>
<trkpt lat="22.4603829" lon="114.2039933">
<ele>14</ele><time>2023-03-19T08:41:52.998Z</time><extensions><gpxtpx:TrackPointExtension><gpxtpx:hr>112</gpxtpx:hr></gpxtpx:TrackPointExtension></extensions></trkpt>
<trkpt lat="22.4604074" lon="114.2040532">
<ele>14</ele><time>2023-03-19T08:41:55.000Z</time><extensions><gpxtpx:TrackPointExtension><gpxtpx:hr>118</gpxtpx:hr></gpxtpx:TrackPointExtension></extensions></trkpt>
<trkpt lat="22.4604291" lon="114.2040991">
<ele>14</ele><time>2023-03-19T08:41:57.000Z</time><extensions><gpxtpx:TrackPointExtension><gpxtpx:hr>118</gpxtpx:hr></gpxtpx:TrackPointExtension></extensions></trkpt>
<trkpt lat="22.4604546" lon="114.2041572">
<ele>14</ele><time>2023-03-19T08:41:59.000Z</time><extensions><gpxtpx:TrackPointExtension><gpxtpx:hr>118</gpxtpx:hr></gpxtpx:TrackPointExtension></extensions></trkpt>
<trkpt lat="22.4604827" lon="114.2042135">
<ele>14</ele><time>2023-03-19T08:42:01.000Z</time><extensions><gpxtpx:TrackPointExtension><gpxtpx:hr>118</gpxtpx:hr></gpxtpx:TrackPointExtension></extensions></trkpt>
<trkpt lat="22.4605179" lon="114.2042605">
<ele>14</ele><time>2023-03-19T08:42:03.000Z</time><extensions><gpxtpx:TrackPointExtension><gpxtpx:hr>118</gpxtpx:hr></gpxtpx:TrackPointExtension></extensions></trkpt>
<trkpt lat="22.4605540" lon="114.2043149">
<ele>14</ele><time>2023-03-19T08:42:05.000Z</time><extensions><gpxtpx:TrackPointExtension><gpxtpx:hr>118</gpxtpx:hr></gpxtpx:TrackPointExtension></extensions></trkpt>
<trkpt lat="22.4605889" lon="114.2043694">
<ele>14</ele><time>2023-03-19T08:42:07.000Z</time><extensions><gpxtpx:TrackPointExtension><gpxtpx:hr>118</gpxtpx:hr></gpxtpx:TrackPointExtension></extensions></trkpt>
<trkpt lat="22.4606186" lon="114.2044307">
<ele>13</ele><time>2023-03-19T08:42:09.000Z</time><extensions><gpxtpx:TrackPointExtension><gpxtpx:hr>118</gpxtpx:hr></gpxtpx:TrackPointExtension></extensions></trkpt>
<trkpt lat="22.4606546" lon="114.2044849">
<ele>13</ele><time>2023-03-19T08:42:11.000Z</time><extensions><gpxtpx:TrackPointExtension><gpxtpx:hr>118</gpxtpx:hr></gpxtpx:TrackPointExtension></extensions></trkpt>
<trkpt lat="22.4606881" lon="114.2045465">
<ele>13</ele><time>2023-03-19T08:42:12.999Z</time><extensions><gpxtpx:TrackPointExtension><gpxtpx:hr>118</gpxtpx:hr></gpxtpx:TrackPointExtension></extensions></trkpt>
<trkpt lat="22.4607219" lon="114.2046069">
<ele>13</ele><time>2023-03-19T08:42:14.999Z</time><extensions><gpxtpx:TrackPointExtension><gpxtpx:hr>119</gpxtpx:hr></gpxtpx:TrackPointExtension></extensions></trkpt>
<trkpt lat="22.4607648" lon="114.2046376">
<ele>13</ele><time>2023-03-19T08:42:18.999Z</time><extensions><gpxtpx:TrackPointExtension><gpxtpx:hr>119</gpxtpx:hr></gpxtpx:TrackPointExtension></extensions></trkpt>
<trkpt lat="22.4608068" lon="114.2046700">
<ele>13</ele><time>2023-03-19T08:42:22.999Z</time><extensions><gpxtpx:TrackPointExtension><gpxtpx:hr>112</gpxtpx:hr></gpxtpx:TrackPointExtension></extensions></trkpt>
<trkpt lat="22.4608609" lon="114.2047089">
<ele>13</ele><time>2023-03-19T08:42:25.999Z</time><extensions><gpxtpx:TrackPointExtension><gpxtpx:hr>112</gpxtpx:hr></gpxtpx:TrackPointExtension></extensions></trkpt>
<trkpt lat="22.4608948" lon="114.2047422">
<ele>12</ele><time>2023-03-19T08:42:27.999Z</time><extensions><gpxtpx:TrackPointExtension><gpxtpx:hr>112</gpxtpx:hr></gpxtpx:TrackPointExtension></extensions></trkpt>
<trkpt lat="22.4609426" lon="114.2047789">
<ele>12</ele><time>2023-03-19T08:42:29.999Z</time><extensions><gpxtpx:TrackPointExtension><gpxtpx:hr>114</gpxtpx:hr></gpxtpx:TrackPointExtension></extensions></trkpt>
<trkpt lat="22.4609967" lon="114.2048140">
<ele>12</ele><time>2023-03-19T08:42:31.999Z</time><extensions><gpxtpx:TrackPointExtension><gpxtpx:hr>114</gpxtpx:hr></gpxtpx:TrackPointExtension></extensions></trkpt>
<trkpt lat="22.4610577" lon="114.2048574">
<ele>12</ele><time>2023-03-19T08:42:33.999Z</time><extensions><gpxtpx:TrackPointExtension><gpxtpx:hr>114</gpxtpx:hr></gpxtpx:TrackPointExtension></extensions></trkpt>
<trkpt lat="22.4611034" lon="114.2048736">
<ele>12</ele><time>2023-03-19T08:42:34.999Z</time><extensions><gpxtpx:TrackPointExtension><gpxtpx:hr>114</gpxtpx:hr></gpxtpx:TrackPointExtension></extensions></trkpt>
<trkpt lat="22.4611412" lon="114.2049056">
<ele>12</ele><time>2023-03-19T08:42:35.999Z</time><extensions><gpxtpx:TrackPointExtension><gpxtpx:hr>114</gpxtpx:hr></gpxtpx:TrackPointExtension></extensions></trkpt>
<trkpt lat="22.4612205" lon="114.2049299">
<ele>11</ele><time>2023-03-19T08:42:37.999Z</time><extensions><gpxtpx:TrackPointExtension><gpxtpx:hr>114</gpxtpx:hr></gpxtpx:TrackPointExtension></extensions></trkpt>
<trkpt lat="22.4612640" lon="114.2049583">
<ele>11</ele><time>2023-03-19T08:42:38.999Z</time><extensions><gpxtpx:TrackPointExtension><gpxtpx:hr>114</gpxtpx:hr></gpxtpx:TrackPointExtension></extensions></trkpt>
<trkpt lat="22.4613023" lon="114.2049879">
<ele>11</ele><time>2023-03-19T08:42:39.999Z</time><extensions><gpxtpx:TrackPointExtension><gpxtpx:hr>116</gpxtpx:hr></gpxtpx:TrackPointExtension></extensions></trkpt>
<trkpt lat="22.4613449" lon="114.2050252">
<ele>11</ele><time>2023-03-19T08:42:40.999Z</time><extensions><gpxtpx:TrackPointExtension><gpxtpx:hr>116</gpxtpx:hr></gpxtpx:TrackPointExtension></extensions></trkpt>
<trkpt lat="22.4614123" lon="114.2050752">
<ele>11</ele><time>2023-03-19T08:42:42.999Z</time><extensions><gpxtpx:TrackPointExtension><gpxtpx:hr>116</gpxtpx:hr></gpxtpx:TrackPointExtension></extensions></trkpt>
<trkpt lat="22.4614505" lon="114.2051320">
<ele>11</ele><time>2023-03-19T08:42:44.999Z</time><extensions><gpxtpx:TrackPointExtension><gpxtpx:hr>116</gpxtpx:hr></gpxtpx:TrackPointExtension></extensions></trkpt>
<trkpt lat="22.4614968" lon="114.2051873">
<ele>11</ele><time>2023-03-19T08:42:46.999Z</time><extensions><gpxtpx:TrackPointExtension><gpxtpx:hr>116</gpxtpx:hr></gpxtpx:TrackPointExtension></extensions></trkpt>
<trkpt lat="22.4615347" lon="114.2052330">
<ele>11</ele><time>2023-03-19T08:42:48.999Z</time><extensions><gpxtpx:TrackPointExtension><gpxtpx:hr>116</gpxtpx:hr></gpxtpx:TrackPointExtension></extensions></trkpt>
<trkpt lat="22.4615982" lon="114.2052616">
<ele>10</ele><time>2023-03-19T08:42:50.999Z</time><extensions><gpxtpx:TrackPointExtension><gpxtpx:hr>116</gpxtpx:hr></gpxtpx:TrackPointExtension></extensions></trkpt>
<trkpt lat="22.4616621" lon="114.2052814">
<ele>10</ele><time>2023-03-19T08:42:52.999Z</time><extensions><gpxtpx:TrackPointExtension><gpxtpx:hr>116</gpxtpx:hr></gpxtpx:TrackPointExtension></extensions></trkpt>
<trkpt lat="22.4617125" lon="114.2053385">
<ele>9</ele><time>2023-03-19T08:42:54.999Z</time><extensions><gpxtpx:TrackPointExtension><gpxtpx:hr>116</gpxtpx:hr></gpxtpx:TrackPointExtension></extensions></trkpt>
<trkpt lat="22.4617684" lon="114.2053731">
<ele>9</ele><time>2023-03-19T08:42:56.999Z</time><extensions><gpxtpx:TrackPointExtension><gpxtpx:hr>116</gpxtpx:hr></gpxtpx:TrackPointExtension></extensions></trkpt>
<trkpt lat="22.4618230" lon="114.2054092">
<ele>9</ele><time>2023-03-19T08:42:58.999Z</time><extensions><gpxtpx:TrackPointExtension><gpxtpx:hr>116</gpxtpx:hr></gpxtpx:TrackPointExtension></extensions></trkpt>
<trkpt lat="22.4618808" lon="114.2054360">
<ele>9</ele><time>2023-03-19T08:43:00.999Z</time><extensions><gpxtpx:TrackPointExtension><gpxtpx:hr>115</gpxtpx:hr></gpxtpx:TrackPointExtension></extensions></trkpt>
<trkpt lat="22.4619407" lon="114.2054223">
<ele>9</ele><time>2023-03-19T08:43:02.999Z</time><extensions><gpxtpx:TrackPointExtension><gpxtpx:hr>115</gpxtpx:hr></gpxtpx:TrackPointExtension></extensions></trkpt>
<trkpt lat="22.4620032" lon="114.2054293">
<ele>9</ele><time>2023-03-19T08:43:03.999Z</time><extensions><gpxtpx:TrackPointExtension><gpxtpx:hr>115</gpxtpx:hr></gpxtpx:TrackPointExtension></extensions></trkpt>
<trkpt lat="22.4620506" lon="114.2054457">
<ele>9</ele><time>2023-03-19T08:43:05.999Z</time><extensions><gpxtpx:TrackPointExtension><gpxtpx:hr>113</gpxtpx:hr></gpxtpx:TrackPointExtension></extensions></trkpt>
<trkpt lat="22.4620960" lon="114.2054792">
<ele>9</ele><time>2023-03-19T08:43:08.999Z</time><extensions><gpxtpx:TrackPointExtension><gpxtpx:hr>113</gpxtpx:hr></gpxtpx:TrackPointExtension></extensions></trkpt>
<trkpt lat="22.4621317" lon="114.2055251">
<ele>9</ele><time>2023-03-19T08:43:17.998Z</time><extensions><gpxtpx:TrackPointExtension><gpxtpx:hr>114</gpxtpx:hr></gpxtpx:TrackPointExtension></extensions></trkpt>
<trkpt lat="22.4621706" lon="114.2055635">
<ele>9</ele><time>2023-03-19T08:43:20.998Z</time><extensions><gpxtpx:TrackPointExtension><gpxtpx:hr>116</gpxtpx:hr></gpxtpx:TrackPointExtension></extensions></trkpt>
<trkpt lat="22.4622186" lon="114.2056210">
<ele>9</ele><time>2023-03-19T08:43:23.998Z</time><extensions><gpxtpx:TrackPointExtension><gpxtpx:hr>116</gpxtpx:hr></gpxtpx:TrackPointExtension></extensions></trkpt>
<trkpt lat="22.4622466" lon="114.2056665">
<ele>10</ele><time>2023-03-19T08:43:25.998Z</time><extensions><gpxtpx:TrackPointExtension><gpxtpx:hr>117</gpxtpx:hr></gpxtpx:TrackPointExtension></extensions></trkpt>
<trkpt lat="22.4622803" lon="114.2057170">
<ele>10</ele><time>2023-03-19T08:43:27.998Z</time><extensions><gpxtpx:TrackPointExtension><gpxtpx:hr>117</gpxtpx:hr></gpxtpx:TrackPointExtension></extensions></trkpt>
<trkpt lat="22.4623103" lon="114.2057730">
<ele>11</ele><time>2023-03-19T08:43:29.998Z</time><extensions><gpxtpx:TrackPointExtension><gpxtpx:hr>119</gpxtpx:hr></gpxtpx:TrackPointExtension></extensions></trkpt>
<trkpt lat="22.4623344" lon="114.2058449">
<ele>11</ele><time>2023-03-19T08:43:33.998Z</time><extensions><gpxtpx:TrackPointExtension><gpxtpx:hr>119</gpxtpx:hr></gpxtpx:TrackPointExtension></extensions></trkpt>
<trkpt lat="22.4623547" lon="114.2058979">
<ele>11</ele><time>2023-03-19T08:43:35.998Z</time><extensions><gpxtpx:TrackPointExtension><gpxtpx:hr>119</gpxtpx:hr></gpxtpx:TrackPointExtension></extensions></trkpt>
<trkpt lat="22.4623723" lon="114.2059536">
<ele>11</ele><time>2023-03-19T08:43:37.998Z</time><extensions><gpxtpx:TrackPointExtension><gpxtpx:hr>119</gpxtpx:hr></gpxtpx:TrackPointExtension></extensions></trkpt>
<trkpt lat="22.4624102" lon="114.2060187">
<ele>11</ele><time>2023-03-19T08:43:39.998Z</time><extensions><gpxtpx:TrackPointExtension><gpxtpx:hr>119</gpxtpx:hr></gpxtpx:TrackPointExtension></extensions></trkpt>
<trkpt lat="22.4624518" lon="114.2060864">
<ele>11</ele><time>2023-03-19T08:43:41.998Z</time><extensions><gpxtpx:TrackPointExtension><gpxtpx:hr>119</gpxtpx:hr></gpxtpx:TrackPointExtension></extensions></trkpt>
<trkpt lat="22.4624859" lon="114.2061193">
<ele>11</ele><time>2023-03-19T08:43:53.998Z</time><extensions><gpxtpx:TrackPointExtension><gpxtpx:hr>119</gpxtpx:hr></gpxtpx:TrackPointExtension></extensions></trkpt>
<trkpt lat="22.4625078" lon="114.2061647">
<ele>11</ele><time>2023-03-19T08:44:32.999Z</time><extensions><gpxtpx:TrackPointExtension><gpxtpx:hr>122</gpxtpx:hr></gpxtpx:TrackPointExtension></extensions></trkpt>
<trkpt lat="22.4625296" lon="114.2062078">
<ele>11</ele><time>2023-03-19T08:44:47.999Z</time><extensions><gpxtpx:TrackPointExtension><gpxtpx:hr>119</gpxtpx:hr></gpxtpx:TrackPointExtension></extensions></trkpt>
<trkpt lat="22.4625655" lon="114.2062695">
<ele>11</ele><time>2023-03-19T08:44:50.999Z</time><extensions><gpxtpx:TrackPointExtension><gpxtpx:hr>117</gpxtpx:hr></gpxtpx:TrackPointExtension></extensions></trkpt>
<trkpt lat="22.4625894" lon="114.2063113">
<ele>11</ele><time>2023-03-19T08:44:52.999Z</time><extensions><gpxtpx:TrackPointExtension><gpxtpx:hr>117</gpxtpx:hr></gpxtpx:TrackPointExtension></extensions></trkpt>
<trkpt lat="22.4626311" lon="114.2063716">
<ele>11</ele><time>2023-03-19T08:44:55.999Z</time><extensions><gpxtpx:TrackPointExtension><gpxtpx:hr>117</gpxtpx:hr></gpxtpx:TrackPointExtension></extensions></trkpt>
<trkpt lat="22.4626639" lon="114.2064208">
<ele>11</ele><time>2023-03-19T08:44:58.999Z</time><extensions><gpxtpx:TrackPointExtension><gpxtpx:hr>117</gpxtpx:hr></gpxtpx:TrackPointExtension></extensions></trkpt>
<trkpt lat="22.4627054" lon="114.2064785">
<ele>11</ele><time>2023-03-19T08:45:01.999Z</time><extensions><gpxtpx:TrackPointExtension><gpxtpx:hr>116</gpxtpx:hr></gpxtpx:TrackPointExtension></extensions></trkpt>
<trkpt lat="22.4627373" lon="114.2065212">
<ele>11</ele><time>2023-03-19T08:45:04.999Z</time><extensions><gpxtpx:TrackPointExtension><gpxtpx:hr>114</gpxtpx:hr></gpxtpx:TrackPointExtension></extensions></trkpt>
<trkpt lat="22.4627771" lon="114.2065685">
<ele>11</ele><time>2023-03-19T08:45:07.999Z</time><extensions><gpxtpx:TrackPointExtension><gpxtpx:hr>114</gpxtpx:hr></gpxtpx:TrackPointExtension></extensions></trkpt>
<trkpt lat="22.4628024" lon="114.2066117">
<ele>11</ele><time>2023-03-19T08:45:10.999Z</time><extensions><gpxtpx:TrackPointExtension><gpxtpx:hr>112</gpxtpx:hr></gpxtpx:TrackPointExtension></extensions></trkpt>
<trkpt lat="22.4628430" lon="114.2066590">
<ele>11</ele><time>2023-03-19T08:45:13.998Z</time><extensions><gpxtpx:TrackPointExtension><gpxtpx:hr>112</gpxtpx:hr></gpxtpx:TrackPointExtension></extensions></trkpt>
<trkpt lat="22.4628875" lon="114.2066911">
<ele>11</ele><time>2023-03-19T08:45:15.998Z</time><extensions><gpxtpx:TrackPointExtension><gpxtpx:hr>113</gpxtpx:hr></gpxtpx:TrackPointExtension></extensions></trkpt>
<trkpt lat="22.4629171" lon="114.2067318">
<ele>11</ele><time>2023-03-19T08:45:17.998Z</time><extensions><gpxtpx:TrackPointExtension><gpxtpx:hr>113</gpxtpx:hr></gpxtpx:TrackPointExtension></extensions></trkpt>
<trkpt lat="22.4629557" lon="114.2067761">
<ele>11</ele><time>2023-03-19T08:45:20.998Z</time><extensions><gpxtpx:TrackPointExtension><gpxtpx:hr>112</gpxtpx:hr></gpxtpx:TrackPointExtension></extensions></trkpt>
<trkpt lat="22.4629909" lon="114.2068076">
<ele>11</ele><time>2023-03-19T08:45:22.998Z</time><extensions><gpxtpx:TrackPointExtension><gpxtpx:hr>112</gpxtpx:hr></gpxtpx:TrackPointExtension></extensions></trkpt>
<trkpt lat="22.4630324" lon="114.2068532">
<ele>11</ele><time>2023-03-19T08:45:25.998Z</time><extensions><gpxtpx:TrackPointExtension><gpxtpx:hr>112</gpxtpx:hr></gpxtpx:TrackPointExtension></extensions></trkpt>
<trkpt lat="22.4630697" lon="114.2068843">
<ele>11</ele><time>2023-03-19T08:45:27.998Z</time><extensions><gpxtpx:TrackPointExtension><gpxtpx:hr>112</gpxtpx:hr></gpxtpx:TrackPointExtension></extensions></trkpt>
<trkpt lat="22.4631208" lon="114.2069270">
<ele>11</ele><time>2023-03-19T08:45:30.998Z</time><extensions><gpxtpx:TrackPointExtension><gpxtpx:hr>112</gpxtpx:hr></gpxtpx:TrackPointExtension></extensions></trkpt>
<trkpt lat="22.4631641" lon="114.2069665">
<ele>11</ele><time>2023-03-19T08:45:33.998Z</time><extensions><gpxtpx:TrackPointExtension><gpxtpx:hr>112</gpxtpx:hr></gpxtpx:TrackPointExtension></extensions></trkpt>
<trkpt lat="22.4632040" lon="114.2069995">
<ele>11</ele><time>2023-03-19T08:45:35.998Z</time><extensions><gpxtpx:TrackPointExtension><gpxtpx:hr>109</gpxtpx:hr></gpxtpx:TrackPointExtension></extensions></trkpt>
<trkpt lat="22.4632437" lon="114.2070365">
<ele>11</ele><time>2023-03-19T08:45:38.998Z</time><extensions><gpxtpx:TrackPointExtension><gpxtpx:hr>109</gpxtpx:hr></gpxtpx:TrackPointExtension></extensions></trkpt>
<trkpt lat="22.4632920" lon="114.2070674">
<ele>11</ele><time>2023-03-19T08:45:41.998Z</time><extensions><gpxtpx:TrackPointExtension><gpxtpx:hr>110</gpxtpx:hr></gpxtpx:TrackPointExtension></extensions></trkpt>
<trkpt lat="22.4633299" lon="114.2070983">
<ele>11</ele><time>2023-03-19T08:45:46.998Z</time><extensions><gpxtpx:TrackPointExtension><gpxtpx:hr>112</gpxtpx:hr></gpxtpx:TrackPointExtension></extensions></trkpt>
<trkpt lat="22.4633668" lon="114.2071272">
<ele>11</ele><time>2023-03-19T08:45:49.998Z</time><extensions><gpxtpx:TrackPointExtension><gpxtpx:hr>117</gpxtpx:hr></gpxtpx:TrackPointExtension></extensions></trkpt>
<trkpt lat="22.4634210" lon="114.2071654">
<ele>11</ele><time>2023-03-19T08:45:53.998Z</time><extensions><gpxtpx:TrackPointExtension><gpxtpx:hr>117</gpxtpx:hr></gpxtpx:TrackPointExtension></extensions></trkpt>
<trkpt lat="22.4634657" lon="114.2071891">
<ele>11</ele><time>2023-03-19T08:45:55.998Z</time><extensions><gpxtpx:TrackPointExtension><gpxtpx:hr>111</gpxtpx:hr></gpxtpx:TrackPointExtension></extensions></trkpt>
<trkpt lat="22.4635203" lon="114.2072247">
<ele>11</ele><time>2023-03-19T08:45:58.998Z</time><extensions><gpxtpx:TrackPointExtension><gpxtpx:hr>111</gpxtpx:hr></gpxtpx:TrackPointExtension></extensions></trkpt>
<trkpt lat="22.4635700" lon="114.2072547">
<ele>11</ele><time>2023-03-19T08:46:01.998Z</time><extensions><gpxtpx:TrackPointExtension><gpxtpx:hr>110</gpxtpx:hr></gpxtpx:TrackPointExtension></extensions></trkpt>
<trkpt lat="22.4636215" lon="114.2072758">
<ele>11</ele><time>2023-03-19T08:46:03.998Z</time><extensions><gpxtpx:TrackPointExtension><gpxtpx:hr>110</gpxtpx:hr></gpxtpx:TrackPointExtension></extensions></trkpt>
<trkpt lat="22.4636764" lon="114.2073088">
<ele>11</ele><time>2023-03-19T08:46:05.999Z</time><extensions><gpxtpx:TrackPointExtension><gpxtpx:hr>113</gpxtpx:hr></gpxtpx:TrackPointExtension></extensions></trkpt>
<trkpt lat="22.4637187" lon="114.2073260">
<ele>11</ele><time>2023-03-19T08:46:08.000Z</time><extensions><gpxtpx:TrackPointExtension><gpxtpx:hr>113</gpxtpx:hr></gpxtpx:TrackPointExtension></extensions></trkpt>
<trkpt lat="22.4637846" lon="114.2073513">
<ele>11</ele><time>2023-03-19T08:46:10.000Z</time><extensions><gpxtpx:TrackPointExtension><gpxtpx:hr>113</gpxtpx:hr></gpxtpx:TrackPointExtension></extensions></trkpt>
<trkpt lat="22.4638445" lon="114.2073763">
<ele>11</ele><time>2023-03-19T08:46:12.000Z</time><extensions><gpxtpx:TrackPointExtension><gpxtpx:hr>113</gpxtpx:hr></gpxtpx:TrackPointExtension></extensions></trkpt>
<trkpt lat="22.4639203" lon="114.2074223">
<ele>11</ele><time>2023-03-19T08:46:14.000Z</time><extensions><gpxtpx:TrackPointExtension><gpxtpx:hr>113</gpxtpx:hr></gpxtpx:TrackPointExtension></extensions></trkpt>
<trkpt lat="22.4639661" lon="114.2074361">
<ele>11</ele><time>2023-03-19T08:46:15.000Z</time><extensions><gpxtpx:TrackPointExtension><gpxtpx:hr>114</gpxtpx:hr></gpxtpx:TrackPointExtension></extensions></trkpt>
<trkpt lat="22.4640345" lon="114.2074564">
<ele>11</ele><time>2023-03-19T08:46:17.000Z</time><extensions><gpxtpx:TrackPointExtension><gpxtpx:hr>114</gpxtpx:hr></gpxtpx:TrackPointExtension></extensions></trkpt>
<trkpt lat="22.4641117" lon="114.2074832">
<ele>11</ele><time>2023-03-19T08:46:19.000Z</time><extensions><gpxtpx:TrackPointExtension><gpxtpx:hr>114</gpxtpx:hr></gpxtpx:TrackPointExtension></extensions></trkpt>
<trkpt lat="22.4641639" lon="114.2074984">
<ele>11</ele><time>2023-03-19T08:46:20.000Z</time><extensions><gpxtpx:TrackPointExtension><gpxtpx:hr>114</gpxtpx:hr></gpxtpx:TrackPointExtension></extensions></trkpt>
<trkpt lat="22.4642060" lon="114.2075176">
<ele>11</ele><time>2023-03-19T08:46:20.999Z</time><extensions><gpxtpx:TrackPointExtension><gpxtpx:hr>114</gpxtpx:hr></gpxtpx:TrackPointExtension></extensions></trkpt>
<trkpt lat="22.4642804" lon="114.2075434">
<ele>11</ele><time>2023-03-19T08:46:22.999Z</time><extensions><gpxtpx:TrackPointExtension><gpxtpx:hr>114</gpxtpx:hr></gpxtpx:TrackPointExtension></extensions></trkpt>
<trkpt lat="22.4643364" lon="114.2075655">
<ele>11</ele><time>2023-03-19T08:46:24.999Z</time><extensions><gpxtpx:TrackPointExtension><gpxtpx:hr>114</gpxtpx:hr></gpxtpx:TrackPointExtension></extensions></trkpt>
<trkpt lat="22.4643861" lon="114.2075882">
<ele>11</ele><time>2023-03-19T08:46:26.999Z</time><extensions><gpxtpx:TrackPointExtension><gpxtpx:hr>114</gpxtpx:hr></gpxtpx:TrackPointExtension></extensions></trkpt>
<trkpt lat="22.4644433" lon="114.2076274">
<ele>11</ele><time>2023-03-19T08:46:28.999Z</time><extensions><gpxtpx:TrackPointExtension><gpxtpx:hr>114</gpxtpx:hr></gpxtpx:TrackPointExtension></extensions></trkpt>
<trkpt lat="22.4645052" lon="114.2076757">
<ele>11</ele><time>2023-03-19T08:46:30.999Z</time><extensions><gpxtpx:TrackPointExtension><gpxtpx:hr>113</gpxtpx:hr></gpxtpx:TrackPointExtension></extensions></trkpt>
<trkpt lat="22.4645600" lon="114.2077235">
<ele>11</ele><time>2023-03-19T08:46:32.999Z</time><extensions><gpxtpx:TrackPointExtension><gpxtpx:hr>113</gpxtpx:hr></gpxtpx:TrackPointExtension></extensions></trkpt>
<trkpt lat="22.4646197" lon="114.2077671">
<ele>11</ele><time>2023-03-19T08:46:34.999Z</time><extensions><gpxtpx:TrackPointExtension><gpxtpx:hr>113</gpxtpx:hr></gpxtpx:TrackPointExtension></extensions></trkpt>
<trkpt lat="22.4646587" lon="114.2077929">
<ele>11</ele><time>2023-03-19T08:46:35.999Z</time><extensions><gpxtpx:TrackPointExtension><gpxtpx:hr>113</gpxtpx:hr></gpxtpx:TrackPointExtension></extensions></trkpt>
<trkpt lat="22.4647248" lon="114.2078456">
<ele>11</ele><time>2023-03-19T08:46:37.999Z</time><extensions><gpxtpx:TrackPointExtension><gpxtpx:hr>113</gpxtpx:hr></gpxtpx:TrackPointExtension></extensions></trkpt>
<trkpt lat="22.4647837" lon="114.2078980">
<ele>11</ele><time>2023-03-19T08:46:39.999Z</time><extensions><gpxtpx:TrackPointExtension><gpxtpx:hr>114</gpxtpx:hr></gpxtpx:TrackPointExtension></extensions></trkpt>
<trkpt lat="22.4648437" lon="114.2079555">
<ele>11</ele><time>2023-03-19T08:46:41.999Z</time><extensions><gpxtpx:TrackPointExtension><gpxtpx:hr>114</gpxtpx:hr></gpxtpx:TrackPointExtension></extensions></trkpt>
<trkpt lat="22.4649051" lon="114.2080082">
<ele>11</ele><time>2023-03-19T08:46:43.999Z</time><extensions><gpxtpx:TrackPointExtension><gpxtpx:hr>114</gpxtpx:hr></gpxtpx:TrackPointExtension></extensions></trkpt>
<trkpt lat="22.4649407" lon="114.2080472">
<ele>11</ele><time>2023-03-19T08:46:45.999Z</time><extensions><gpxtpx:TrackPointExtension><gpxtpx:hr>118</gpxtpx:hr></gpxtpx:TrackPointExtension></extensions></trkpt>
<trkpt lat="22.4649778" lon="114.2080801">
<ele>11</ele><time>2023-03-19T08:46:47.999Z</time><extensions><gpxtpx:TrackPointExtension><gpxtpx:hr>118</gpxtpx:hr></gpxtpx:TrackPointExtension></extensions></trkpt>
<trkpt lat="22.4650278" lon="114.2081290">
<ele>11</ele><time>2023-03-19T08:46:51.999Z</time><extensions><gpxtpx:TrackPointExtension><gpxtpx:hr>117</gpxtpx:hr></gpxtpx:TrackPointExtension></extensions></trkpt>
<trkpt lat="22.4650902" lon="114.2081870">
<ele>11</ele><time>2023-03-19T08:46:54.999Z</time><extensions><gpxtpx:TrackPointExtension><gpxtpx:hr>117</gpxtpx:hr></gpxtpx:TrackPointExtension></extensions></trkpt>
<trkpt lat="22.4651345" lon="114.2082310">
<ele>11</ele><time>2023-03-19T08:46:56.999Z</time><extensions><gpxtpx:TrackPointExtension><gpxtpx:hr>117</gpxtpx:hr></gpxtpx:TrackPointExtension></extensions></trkpt>
<trkpt lat="22.4651715" lon="114.2082675">
<ele>11</ele><time>2023-03-19T08:46:58.999Z</time><extensions><gpxtpx:TrackPointExtension><gpxtpx:hr>117</gpxtpx:hr></gpxtpx:TrackPointExtension></extensions></trkpt>
<trkpt lat="22.4652216" lon="114.2083085">
<ele>11</ele><time>2023-03-19T08:47:00.999Z</time><extensions><gpxtpx:TrackPointExtension><gpxtpx:hr>116</gpxtpx:hr></gpxtpx:TrackPointExtension></extensions></trkpt>
<trkpt lat="22.4652655" lon="114.2083489">
<ele>11</ele><time>2023-03-19T08:47:02.999Z</time><extensions><gpxtpx:TrackPointExtension><gpxtpx:hr>116</gpxtpx:hr></gpxtpx:TrackPointExtension></extensions></trkpt>
<trkpt lat="22.4653074" lon="114.2083849">
<ele>11</ele><time>2023-03-19T08:47:04.999Z</time><extensions><gpxtpx:TrackPointExtension><gpxtpx:hr>118</gpxtpx:hr></gpxtpx:TrackPointExtension></extensions></trkpt>
<trkpt lat="22.4653527" lon="114.2084197">
<ele>11</ele><time>2023-03-19T08:47:06.999Z</time><extensions><gpxtpx:TrackPointExtension><gpxtpx:hr>118</gpxtpx:hr></gpxtpx:TrackPointExtension></extensions></trkpt>
<trkpt lat="22.4653887" lon="114.2084560">
<ele>11</ele><time>2023-03-19T08:47:08.999Z</time><extensions><gpxtpx:TrackPointExtension><gpxtpx:hr>118</gpxtpx:hr></gpxtpx:TrackPointExtension></extensions></trkpt>
<trkpt lat="22.4654306" lon="114.2084837">
<ele>11</ele><time>2023-03-19T08:47:10.999Z</time><extensions><gpxtpx:TrackPointExtension><gpxtpx:hr>121</gpxtpx:hr></gpxtpx:TrackPointExtension></extensions></trkpt>
<trkpt lat="22.4654785" lon="114.2085124">
<ele>11</ele><time>2023-03-19T08:47:12.999Z</time><extensions><gpxtpx:TrackPointExtension><gpxtpx:hr>121</gpxtpx:hr></gpxtpx:TrackPointExtension></extensions></trkpt>
<trkpt lat="22.4655310" lon="114.2085488">
<ele>11</ele><time>2023-03-19T08:47:14.999Z</time><extensions><gpxtpx:TrackPointExtension><gpxtpx:hr>121</gpxtpx:hr></gpxtpx:TrackPointExtension></extensions></trkpt>
<trkpt lat="22.4655878" lon="114.2085824">
<ele>11</ele><time>2023-03-19T08:47:16.999Z</time><extensions><gpxtpx:TrackPointExtension><gpxtpx:hr>121</gpxtpx:hr></gpxtpx:TrackPointExtension></extensions></trkpt>
<trkpt lat="22.4656350" lon="114.2086056">
<ele>11</ele><time>2023-03-19T08:47:18.999Z</time><extensions><gpxtpx:TrackPointExtension><gpxtpx:hr>121</gpxtpx:hr></gpxtpx:TrackPointExtension></extensions></trkpt>
<trkpt lat="22.4656894" lon="114.2086374">
<ele>11</ele><time>2023-03-19T08:47:20.999Z</time><extensions><gpxtpx:TrackPointExtension><gpxtpx:hr>121</gpxtpx:hr></gpxtpx:TrackPointExtension></extensions></trkpt>
<trkpt lat="22.4657451" lon="114.2086627">
<ele>11</ele><time>2023-03-19T08:47:22.999Z</time><extensions><gpxtpx:TrackPointExtension><gpxtpx:hr>121</gpxtpx:hr></gpxtpx:TrackPointExtension></extensions></trkpt>
<trkpt lat="22.4658144" lon="114.2086824">
<ele>11</ele><time>2023-03-19T08:47:24.998Z</time><extensions><gpxtpx:TrackPointExtension><gpxtpx:hr>120</gpxtpx:hr></gpxtpx:TrackPointExtension></extensions></trkpt>
<trkpt lat="22.4658817" lon="114.2086952">
<ele>11</ele><time>2023-03-19T08:47:26.998Z</time><extensions><gpxtpx:TrackPointExtension><gpxtpx:hr>120</gpxtpx:hr></gpxtpx:TrackPointExtension></extensions></trkpt>
<trkpt lat="22.4659381" lon="114.2087106">
<ele>11</ele><time>2023-03-19T08:47:28.998Z</time><extensions><gpxtpx:TrackPointExtension><gpxtpx:hr>120</gpxtpx:hr></gpxtpx:TrackPointExtension></extensions></trkpt>
<trkpt lat="22.4659847" lon="114.2087286">
<ele>11</ele><time>2023-03-19T08:47:30.998Z</time><extensions><gpxtpx:TrackPointExtension><gpxtpx:hr>119</gpxtpx:hr></gpxtpx:TrackPointExtension></extensions></trkpt>
<trkpt lat="22.4660488" lon="114.2087491">
<ele>10</ele><time>2023-03-19T08:47:33.998Z</time><extensions><gpxtpx:TrackPointExtension><gpxtpx:hr>119</gpxtpx:hr></gpxtpx:TrackPointExtension></extensions></trkpt>
<trkpt lat="22.4661023" lon="114.2087696">
<ele>10</ele><time>2023-03-19T08:47:36.998Z</time><extensions><gpxtpx:TrackPointExtension><gpxtpx:hr>117</gpxtpx:hr></gpxtpx:TrackPointExtension></extensions></trkpt>
<trkpt lat="22.4661532" lon="114.2087717">
<ele>10</ele><time>2023-03-19T08:47:38.998Z</time><extensions><gpxtpx:TrackPointExtension><gpxtpx:hr>117</gpxtpx:hr></gpxtpx:TrackPointExtension></extensions></trkpt>
<trkpt lat="22.4662066" lon="114.2087836">
<ele>10</ele><time>2023-03-19T08:47:40.998Z</time><extensions><gpxtpx:TrackPointExtension><gpxtpx:hr>117</gpxtpx:hr></gpxtpx:TrackPointExtension></extensions></trkpt>
<trkpt lat="22.4662585" lon="114.2087831">
<ele>10</ele><time>2023-03-19T08:47:42.998Z</time><extensions><gpxtpx:TrackPointExtension><gpxtpx:hr>117</gpxtpx:hr></gpxtpx:TrackPointExtension></extensions></trkpt>
<trkpt lat="22.4663039" lon="114.2087943">
<ele>10</ele><time>2023-03-19T08:47:44.998Z</time><extensions><gpxtpx:TrackPointExtension><gpxtpx:hr>117</gpxtpx:hr></gpxtpx:TrackPointExtension></extensions></trkpt>
<trkpt lat="22.4663503" lon="114.2087992">
<ele>10</ele><time>2023-03-19T08:47:46.998Z</time><extensions><gpxtpx:TrackPointExtension><gpxtpx:hr>117</gpxtpx:hr></gpxtpx:TrackPointExtension></extensions></trkpt>
<trkpt lat="22.4664172" lon="114.2088095">
<ele>10</ele><time>2023-03-19T08:47:49.998Z</time><extensions><gpxtpx:TrackPointExtension><gpxtpx:hr>117</gpxtpx:hr></gpxtpx:TrackPointExtension></extensions></trkpt>
<trkpt lat="22.4664710" lon="114.2088139">
<ele>10</ele><time>2023-03-19T08:47:51.998Z</time><extensions><gpxtpx:TrackPointExtension><gpxtpx:hr>117</gpxtpx:hr></gpxtpx:TrackPointExtension></extensions></trkpt>
<trkpt lat="22.4665266" lon="114.2088215">
<ele>10</ele><time>2023-03-19T08:47:54.998Z</time><extensions><gpxtpx:TrackPointExtension><gpxtpx:hr>116</gpxtpx:hr></gpxtpx:TrackPointExtension></extensions></trkpt>
<trkpt lat="22.4665786" lon="114.2088224">
<ele>10</ele><time>2023-03-19T08:47:56.998Z</time><extensions><gpxtpx:TrackPointExtension><gpxtpx:hr>116</gpxtpx:hr></gpxtpx:TrackPointExtension></extensions></trkpt>
<trkpt lat="22.4666293" lon="114.2088272">
<ele>11</ele><time>2023-03-19T08:47:58.998Z</time><extensions><gpxtpx:TrackPointExtension><gpxtpx:hr>116</gpxtpx:hr></gpxtpx:TrackPointExtension></extensions></trkpt>
<trkpt lat="22.4666828" lon="114.2088278">
<ele>11</ele><time>2023-03-19T08:48:00.998Z</time><extensions><gpxtpx:TrackPointExtension><gpxtpx:hr>116</gpxtpx:hr></gpxtpx:TrackPointExtension></extensions></trkpt>
<trkpt lat="22.4667295" lon="114.2088418">
<ele>11</ele><time>2023-03-19T08:48:02.998Z</time><extensions><gpxtpx:TrackPointExtension><gpxtpx:hr>116</gpxtpx:hr></gpxtpx:TrackPointExtension></extensions></trkpt>
<trkpt lat="22.4667796" lon="114.2088450">
<ele>11</ele><time>2023-03-19T08:48:04.998Z</time><extensions><gpxtpx:TrackPointExtension><gpxtpx:hr>115</gpxtpx:hr></gpxtpx:TrackPointExtension></extensions></trkpt>
<trkpt lat="22.4668329" lon="114.2088457">
<ele>11</ele><time>2023-03-19T08:48:06.998Z</time><extensions><gpxtpx:TrackPointExtension><gpxtpx:hr>115</gpxtpx:hr></gpxtpx:TrackPointExtension></extensions></trkpt>
<trkpt lat="22.4668858" lon="114.2088525">
<ele>11</ele><time>2023-03-19T08:48:08.998Z</time><extensions><gpxtpx:TrackPointExtension><gpxtpx:hr>115</gpxtpx:hr></gpxtpx:TrackPointExtension></extensions></trkpt>
<trkpt lat="22.4669439" lon="114.2088616">
<ele>11</ele><time>2023-03-19T08:48:12.000Z</time><extensions><gpxtpx:TrackPointExtension><gpxtpx:hr>114</gpxtpx:hr></gpxtpx:TrackPointExtension></extensions></trkpt>
<trkpt lat="22.4669993" lon="114.2088823">
<ele>11</ele><time>2023-03-19T08:48:15.000Z</time><extensions><gpxtpx:TrackPointExtension><gpxtpx:hr>115</gpxtpx:hr></gpxtpx:TrackPointExtension></extensions></trkpt>
<trkpt lat="22.4670577" lon="114.2088953">
<ele>11</ele><time>2023-03-19T08:48:19.000Z</time><extensions><gpxtpx:TrackPointExtension><gpxtpx:hr>115</gpxtpx:hr></gpxtpx:TrackPointExtension></extensions></trkpt>
<trkpt lat="22.4671225" lon="114.2089007">
<ele>11</ele><time>2023-03-19T08:48:22.000Z</time><extensions><gpxtpx:TrackPointExtension><gpxtpx:hr>115</gpxtpx:hr></gpxtpx:TrackPointExtension></extensions></trkpt>
<trkpt lat="22.4671847" lon="114.2089088">
<ele>11</ele><time>2023-03-19T08:48:25.000Z</time><extensions><gpxtpx:TrackPointExtension><gpxtpx:hr>115</gpxtpx:hr></gpxtpx:TrackPointExtension></extensions></trkpt>
<trkpt lat="22.4672333" lon="114.2089087">
<ele>11</ele><time>2023-03-19T08:48:27.000Z</time><extensions><gpxtpx:TrackPointExtension><gpxtpx:hr>115</gpxtpx:hr></gpxtpx:TrackPointExtension></extensions></trkpt>
<trkpt lat="22.4672907" lon="114.2089188">
<ele>11</ele><time>2023-03-19T08:48:29.999Z</time><extensions><gpxtpx:TrackPointExtension><gpxtpx:hr>115</gpxtpx:hr></gpxtpx:TrackPointExtension></extensions></trkpt>
<trkpt lat="22.4673508" lon="114.2089216">
<ele>11</ele><time>2023-03-19T08:48:32.999Z</time><extensions><gpxtpx:TrackPointExtension><gpxtpx:hr>115</gpxtpx:hr></gpxtpx:TrackPointExtension></extensions></trkpt>
<trkpt lat="22.4674146" lon="114.2089327">
<ele>11</ele><time>2023-03-19T08:48:35.999Z</time><extensions><gpxtpx:TrackPointExtension><gpxtpx:hr>112</gpxtpx:hr></gpxtpx:TrackPointExtension></extensions></trkpt>
<trkpt lat="22.4674812" lon="114.2089382">
<ele>11</ele><time>2023-03-19T08:48:38.999Z</time><extensions><gpxtpx:TrackPointExtension><gpxtpx:hr>112</gpxtpx:hr></gpxtpx:TrackPointExtension></extensions></trkpt>
<trkpt lat="22.4675330" lon="114.2089335">
<ele>11</ele><time>2023-03-19T08:48:40.999Z</time><extensions><gpxtpx:TrackPointExtension><gpxtpx:hr>112</gpxtpx:hr></gpxtpx:TrackPointExtension></extensions></trkpt>
<trkpt lat="22.4675840" lon="114.2089387">
<ele>11</ele><time>2023-03-19T08:48:42.999Z</time><extensions><gpxtpx:TrackPointExtension><gpxtpx:hr>112</gpxtpx:hr></gpxtpx:TrackPointExtension></extensions></trkpt>
<trkpt lat="22.4676344" lon="114.2089398">
<ele>11</ele><time>2023-03-19T08:48:44.999Z</time><extensions><gpxtpx:TrackPointExtension><gpxtpx:hr>112</gpxtpx:hr></gpxtpx:TrackPointExtension></extensions></trkpt>
<trkpt lat="22.4676896" lon="114.2089383">
<ele>11</ele><time>2023-03-19T08:48:46.999Z</time><extensions><gpxtpx:TrackPointExtension><gpxtpx:hr>112</gpxtpx:hr></gpxtpx:TrackPointExtension></extensions></trkpt>
<trkpt lat="22.4677358" lon="114.2089481">
<ele>11</ele><time>2023-03-19T08:48:48.999Z</time><extensions><gpxtpx:TrackPointExtension><gpxtpx:hr>112</gpxtpx:hr></gpxtpx:TrackPointExtension></extensions></trkpt>
<trkpt lat="22.4677848" lon="114.2089517">
<ele>11</ele><time>2023-03-19T08:48:50.999Z</time><extensions><gpxtpx:TrackPointExtension><gpxtpx:hr>112</gpxtpx:hr></gpxtpx:TrackPointExtension></extensions></trkpt>
<trkpt lat="22.4678461" lon="114.2089475">
<ele>11</ele><time>2023-03-19T08:48:53.999Z</time><extensions><gpxtpx:TrackPointExtension><gpxtpx:hr>112</gpxtpx:hr></gpxtpx:TrackPointExtension></extensions></trkpt>
<trkpt lat="22.4679004" lon="114.2089555">
<ele>11</ele><time>2023-03-19T08:48:56.999Z</time><extensions><gpxtpx:TrackPointExtension><gpxtpx:hr>112</gpxtpx:hr></gpxtpx:TrackPointExtension></extensions></trkpt>
<trkpt lat="22.4679531" lon="114.2089443">
<ele>11</ele><time>2023-03-19T08:49:01.999Z</time><extensions><gpxtpx:TrackPointExtension><gpxtpx:hr>112</gpxtpx:hr></gpxtpx:TrackPointExtension></extensions></trkpt>
<trkpt lat="22.4680029" lon="114.2089409">
<ele>11</ele><time>2023-03-19T08:49:06.999Z</time><extensions><gpxtpx:TrackPointExtension><gpxtpx:hr>111</gpxtpx:hr></gpxtpx:TrackPointExtension></extensions></trkpt>
<trkpt lat="22.4680528" lon="114.2089482">
<ele>11</ele><time>2023-03-19T08:49:11.999Z</time><extensions><gpxtpx:TrackPointExtension><gpxtpx:hr>111</gpxtpx:hr></gpxtpx:TrackPointExtension></extensions></trkpt>
<trkpt lat="22.4680976" lon="114.2089344">
<ele>11</ele><time>2023-03-19T08:49:15.999Z</time><extensions><gpxtpx:TrackPointExtension><gpxtpx:hr>114</gpxtpx:hr></gpxtpx:TrackPointExtension></extensions></trkpt>
<trkpt lat="22.4681432" lon="114.2089361">
<ele>11</ele><time>2023-03-19T08:49:18.999Z</time><extensions><gpxtpx:TrackPointExtension><gpxtpx:hr>114</gpxtpx:hr></gpxtpx:TrackPointExtension></extensions></trkpt>
<trkpt lat="22.4681912" lon="114.2089330">
<ele>11</ele><time>2023-03-19T08:49:21.999Z</time><extensions><gpxtpx:TrackPointExtension><gpxtpx:hr>114</gpxtpx:hr></gpxtpx:TrackPointExtension></extensions></trkpt>
<trkpt lat="22.4682263" lon="114.2089680">
<ele>11</ele><time>2023-03-19T08:49:26.998Z</time><extensions><gpxtpx:TrackPointExtension><gpxtpx:hr>115</gpxtpx:hr></gpxtpx:TrackPointExtension></extensions></trkpt>
<trkpt lat="22.4682668" lon="114.2089898">
<ele>11</ele><time>2023-03-19T08:49:30.998Z</time><extensions><gpxtpx:TrackPointExtension><gpxtpx:hr>116</gpxtpx:hr></gpxtpx:TrackPointExtension></extensions></trkpt>
<trkpt lat="22.4683288" lon="114.2089942">
<ele>11</ele><time>2023-03-19T08:49:33.998Z</time><extensions><gpxtpx:TrackPointExtension><gpxtpx:hr>116</gpxtpx:hr></gpxtpx:TrackPointExtension></extensions></trkpt>
<trkpt lat="22.4683922" lon="114.2090166">
<ele>11</ele><time>2023-03-19T08:49:36.998Z</time><extensions><gpxtpx:TrackPointExtension><gpxtpx:hr>117</gpxtpx:hr></gpxtpx:TrackPointExtension></extensions></trkpt>
<trkpt lat="22.4684434" lon="114.2090272">
<ele>11</ele><time>2023-03-19T08:49:38.998Z</time><extensions><gpxtpx:TrackPointExtension><gpxtpx:hr>117</gpxtpx:hr></gpxtpx:TrackPointExtension></extensions></trkpt>
<trkpt lat="22.4685002" lon="114.2090332">
<ele>11</ele><time>2023-03-19T08:49:40.998Z</time><extensions><gpxtpx:TrackPointExtension><gpxtpx:hr>118</gpxtpx:hr></gpxtpx:TrackPointExtension></extensions></trkpt>
<trkpt lat="22.4685428" lon="114.2090516">
<ele>11</ele><time>2023-03-19T08:49:42.998Z</time><extensions><gpxtpx:TrackPointExtension><gpxtpx:hr>118</gpxtpx:hr></gpxtpx:TrackPointExtension></extensions></trkpt>
<trkpt lat="22.4686017" lon="114.2090477">
<ele>11</ele><time>2023-03-19T08:49:44.998Z</time><extensions><gpxtpx:TrackPointExtension><gpxtpx:hr>120</gpxtpx:hr></gpxtpx:TrackPointExtension></extensions></trkpt>
<trkpt lat="22.4686465" lon="114.2090693">
<ele>11</ele><time>2023-03-19T08:49:46.998Z</time><extensions><gpxtpx:TrackPointExtension><gpxtpx:hr>120</gpxtpx:hr></gpxtpx:TrackPointExtension></extensions></trkpt>
<trkpt lat="22.4687040" lon="114.2090778">
<ele>11</ele><time>2023-03-19T08:49:50.998Z</time><extensions><gpxtpx:TrackPointExtension><gpxtpx:hr>121</gpxtpx:hr></gpxtpx:TrackPointExtension></extensions></trkpt>
<trkpt lat="22.4688381" lon="114.2091408">
<ele>11</ele><time>2023-03-19T08:52:05.622Z</time><extensions><gpxtpx:TrackPointExtension><gpxtpx:hr>101</gpxtpx:hr></gpxtpx:TrackPointExtension></extensions></trkpt>
<trkpt lat="22.4686529" lon="114.2091995">
<ele>11</ele><time>2023-03-19T08:52:10.677Z</time><extensions><gpxtpx:TrackPointExtension><gpxtpx:hr>101</gpxtpx:hr></gpxtpx:TrackPointExtension></extensions></trkpt>
<trkpt lat="22.4687342" lon="114.2091665">
<ele>11</ele><time>2023-03-19T08:52:11.659Z</time><extensions><gpxtpx:TrackPointExtension><gpxtpx:hr>101</gpxtpx:hr></gpxtpx:TrackPointExtension></extensions></trkpt>
<trkpt lat="22.4687107" lon="114.2090952">
<ele>11</ele><time>2023-03-19T08:52:13.659Z</time><extensions><gpxtpx:TrackPointExtension><gpxtpx:hr>104</gpxtpx:hr></gpxtpx:TrackPointExtension></extensions></trkpt>
<trkpt lat="22.4687302" lon="114.2089960">
<ele>11</ele><time>2023-03-19T08:52:22.998Z</time><extensions><gpxtpx:TrackPointExtension><gpxtpx:hr>105</gpxtpx:hr></gpxtpx:TrackPointExtension></extensions></trkpt>
<trkpt lat="22.4687013" lon="114.2090349">
<ele>11</ele><time>2023-03-19T08:52:50.999Z</time><extensions><gpxtpx:TrackPointExtension><gpxtpx:hr>105</gpxtpx:hr></gpxtpx:TrackPointExtension></extensions></trkpt>
<trkpt lat="22.4686991" lon="114.2091175">
<ele>10</ele><time>2023-03-19T08:56:04.998Z</time><extensions><gpxtpx:TrackPointExtension><gpxtpx:hr>99</gpxtpx:hr></gpxtpx:TrackPointExtension></extensions></trkpt>
<trkpt lat="22.4687373" lon="114.2090851">
<ele>10</ele><time>2023-03-19T08:56:38.999Z</time><extensions><gpxtpx:TrackPointExtension><gpxtpx:hr>96</gpxtpx:hr></gpxtpx:TrackPointExtension></extensions></trkpt>
<trkpt lat="22.4686960" lon="114.2090648">
<ele>10</ele><time>2023-03-19T08:57:01.999Z</time><extensions><gpxtpx:TrackPointExtension><gpxtpx:hr>100</gpxtpx:hr></gpxtpx:TrackPointExtension></extensions></trkpt>
<trkpt lat="22.4687126" lon="114.2090057">
<ele>10</ele><time>2023-03-19T08:57:10.999Z</time><extensions><gpxtpx:TrackPointExtension><gpxtpx:hr>99</gpxtpx:hr></gpxtpx:TrackPointExtension></extensions></trkpt>
<trkpt lat="22.4686801" lon="114.2087884">
<ele>10</ele><time>2023-03-19T08:57:55.998Z</time><extensions><gpxtpx:TrackPointExtension><gpxtpx:hr>96</gpxtpx:hr></gpxtpx:TrackPointExtension></extensions></trkpt>
<trkpt lat="22.4686771" lon="114.2087267">
<ele>10</ele><time>2023-03-19T08:57:57.998Z</time><extensions><gpxtpx:TrackPointExtension><gpxtpx:hr>96</gpxtpx:hr></gpxtpx:TrackPointExtension></extensions></trkpt>
<trkpt lat="22.4686875" lon="114.2089768">
<ele>10</ele><time>2023-03-19T08:58:05.998Z</time><extensions><gpxtpx:TrackPointExtension><gpxtpx:hr>95</gpxtpx:hr></gpxtpx:TrackPointExtension></extensions></trkpt>
<trkpt lat="22.4686703" lon="114.2090283">
<ele>11</ele><time>2023-03-19T08:58:13.998Z</time><extensions><gpxtpx:TrackPointExtension><gpxtpx:hr>94</gpxtpx:hr></gpxtpx:TrackPointExtension></extensions></trkpt>
<trkpt lat="22.4687090" lon="114.2090007">
<ele>11</ele><time>2023-03-19T08:58:53.000Z</time><extensions><gpxtpx:TrackPointExtension><gpxtpx:hr>98</gpxtpx:hr></gpxtpx:TrackPointExtension></extensions></trkpt>
<trkpt lat="22.4686489" lon="114.2089651">
<ele>11</ele><time>2023-03-19T08:59:11.999Z</time><extensions><gpxtpx:TrackPointExtension><gpxtpx:hr>99</gpxtpx:hr></gpxtpx:TrackPointExtension></extensions></trkpt>
<trkpt lat="22.4686895" lon="114.2089129">
<ele>11</ele><time>2023-03-19T08:59:49.999Z</time><extensions><gpxtpx:TrackPointExtension><gpxtpx:hr>98</gpxtpx:hr></gpxtpx:TrackPointExtension></extensions></trkpt>
<trkpt lat="22.4686460" lon="114.2089501">
<ele>11</ele><time>2023-03-19T08:59:56.014Z</time><extensions><gpxtpx:TrackPointExtension><gpxtpx:hr>99</gpxtpx:hr></gpxtpx:TrackPointExtension></extensions></trkpt>
<trkpt lat="22.4687456" lon="114.2090587">
<ele>11</ele><time>2023-03-19T09:00:21.998Z</time><extensions><gpxtpx:TrackPointExtension><gpxtpx:hr>96</gpxtpx:hr></gpxtpx:TrackPointExtension></extensions></trkpt>
<trkpt lat="22.4687273" lon="114.2091183">
<ele>11</ele><time>2023-03-19T09:00:28.998Z</time><extensions><gpxtpx:TrackPointExtension><gpxtpx:hr>96</gpxtpx:hr></gpxtpx:TrackPointExtension></extensions></trkpt>
<trkpt lat="22.4687014" lon="114.2090571">
<ele>11</ele><time>2023-03-19T09:00:30.998Z</time><extensions><gpxtpx:TrackPointExtension><gpxtpx:hr>96</gpxtpx:hr></gpxtpx:TrackPointExtension></extensions></trkpt>
<trkpt lat="22.4686663" lon="114.2089724">
<ele>11</ele><time>2023-03-19T09:00:32.998Z</time><extensions><gpxtpx:TrackPointExtension><gpxtpx:hr>96</gpxtpx:hr></gpxtpx:TrackPointExtension></extensions></trkpt>
<trkpt lat="22.4687264" lon="114.2089230">
<ele>11</ele><time>2023-03-19T09:00:33.998Z</time><extensions><gpxtpx:TrackPointExtension><gpxtpx:hr>96</gpxtpx:hr></gpxtpx:TrackPointExtension></extensions></trkpt>
<trkpt lat="22.4687369" lon="114.2089954">
<ele>11</ele><time>2023-03-19T09:00:37.998Z</time><extensions><gpxtpx:TrackPointExtension><gpxtpx:hr>96</gpxtpx:hr></gpxtpx:TrackPointExtension></extensions></trkpt>
<trkpt lat="22.4687000" lon="114.2090353">
<ele>11</ele><time>2023-03-19T09:00:41.998Z</time><extensions><gpxtpx:TrackPointExtension><gpxtpx:hr>97</gpxtpx:hr></gpxtpx:TrackPointExtension></extensions></trkpt>
<trkpt lat="22.4687443" lon="114.2091052">
<ele>11</ele><time>2023-03-19T09:04:15.998Z</time><extensions><gpxtpx:TrackPointExtension><gpxtpx:hr>102</gpxtpx:hr></gpxtpx:TrackPointExtension></extensions></trkpt>
<trkpt lat="22.4687182" lon="114.2090626">
<ele>11</ele><time>2023-03-19T09:04:22.998Z</time><extensions><gpxtpx:TrackPointExtension><gpxtpx:hr>107</gpxtpx:hr></gpxtpx:TrackPointExtension></extensions></trkpt>
<trkpt lat="22.4686764" lon="114.2090808">
<ele>11</ele><time>2023-03-19T09:06:08.999Z</time><extensions><gpxtpx:TrackPointExtension><gpxtpx:hr>107</gpxtpx:hr></gpxtpx:TrackPointExtension></extensions></trkpt>
<trkpt lat="22.4687140" lon="114.2090393">
<ele>11</ele><time>2023-03-19T09:07:04.998Z</time><extensions><gpxtpx:TrackPointExtension><gpxtpx:hr>98</gpxtpx:hr></gpxtpx:TrackPointExtension></extensions></trkpt>
<trkpt lat="22.4687615" lon="114.2090386">
<ele>11</ele><time>2023-03-19T09:07:34.999Z</time><extensions><gpxtpx:TrackPointExtension><gpxtpx:hr>102</gpxtpx:hr></gpxtpx:TrackPointExtension></extensions></trkpt>
<trkpt lat="22.4688012" lon="114.2090615">
<ele>11</ele><time>2023-03-19T09:08:14.999Z</time><extensions><gpxtpx:TrackPointExtension><gpxtpx:hr>108</gpxtpx:hr></gpxtpx:TrackPointExtension></extensions></trkpt>
<trkpt lat="22.4687792" lon="114.2091049">
<ele>11</ele><time>2023-03-19T09:08:26.998Z</time><extensions><gpxtpx:TrackPointExtension><gpxtpx:hr>109</gpxtpx:hr></gpxtpx:TrackPointExtension></extensions></trkpt>
<trkpt lat="22.4688245" lon="114.2091443">
<ele>11</ele><time>2023-03-19T09:08:43.998Z</time><extensions><gpxtpx:TrackPointExtension><gpxtpx:hr>107</gpxtpx:hr></gpxtpx:TrackPointExtension></extensions></trkpt>
<trkpt lat="22.4688663" lon="114.2091682">
<ele>11</ele><time>2023-03-19T09:08:48.998Z</time><extensions><gpxtpx:TrackPointExtension><gpxtpx:hr>107</gpxtpx:hr></gpxtpx:TrackPointExtension></extensions></trkpt>
<trkpt lat="22.4689087" lon="114.2091897">
<ele>11</ele><time>2023-03-19T09:08:51.998Z</time><extensions><gpxtpx:TrackPointExtension><gpxtpx:hr>107</gpxtpx:hr></gpxtpx:TrackPointExtension></extensions></trkpt>
<trkpt lat="22.4689550" lon="114.2092272">
<ele>12</ele><time>2023-03-19T09:08:54.998Z</time><extensions><gpxtpx:TrackPointExtension><gpxtpx:hr>107</gpxtpx:hr></gpxtpx:TrackPointExtension></extensions></trkpt>
<trkpt lat="22.4689990" lon="114.2092640">
<ele>12</ele><time>2023-03-19T09:08:57.998Z</time><extensions><gpxtpx:TrackPointExtension><gpxtpx:hr>109</gpxtpx:hr></gpxtpx:TrackPointExtension></extensions></trkpt>
<trkpt lat="22.4690372" lon="114.2092932">
<ele>12</ele><time>2023-03-19T09:08:59.998Z</time><extensions><gpxtpx:TrackPointExtension><gpxtpx:hr>109</gpxtpx:hr></gpxtpx:TrackPointExtension></extensions></trkpt>
<trkpt lat="22.4690856" lon="114.2093250">
<ele>12</ele><time>2023-03-19T09:09:02.998Z</time><extensions><gpxtpx:TrackPointExtension><gpxtpx:hr>110</gpxtpx:hr></gpxtpx:TrackPointExtension></extensions></trkpt>
<trkpt lat="22.4691374" lon="114.2093576">
<ele>12</ele><time>2023-03-19T09:09:05.998Z</time><extensions><gpxtpx:TrackPointExtension><gpxtpx:hr>110</gpxtpx:hr></gpxtpx:TrackPointExtension></extensions></trkpt>
<trkpt lat="22.4691850" lon="114.2093848">
<ele>12</ele><time>2023-03-19T09:09:08.998Z</time><extensions><gpxtpx:TrackPointExtension><gpxtpx:hr>114</gpxtpx:hr></gpxtpx:TrackPointExtension></extensions></trkpt>
<trkpt lat="22.4692450" lon="114.2094180">
<ele>12</ele><time>2023-03-19T09:09:11.998Z</time><extensions><gpxtpx:TrackPointExtension><gpxtpx:hr>114</gpxtpx:hr></gpxtpx:TrackPointExtension></extensions></trkpt>
<trkpt lat="22.4692833" lon="114.2094493">
<ele>12</ele><time>2023-03-19T09:09:14.999Z</time><extensions><gpxtpx:TrackPointExtension><gpxtpx:hr>114</gpxtpx:hr></gpxtpx:TrackPointExtension></extensions></trkpt>
<trkpt lat="22.4693186" lon="114.2094853">
<ele>12</ele><time>2023-03-19T09:09:17.999Z</time><extensions><gpxtpx:TrackPointExtension><gpxtpx:hr>114</gpxtpx:hr></gpxtpx:TrackPointExtension></extensions></trkpt>
<trkpt lat="22.4693583" lon="114.2095132">
<ele>12</ele><time>2023-03-19T09:09:20.999Z</time><extensions><gpxtpx:TrackPointExtension><gpxtpx:hr>114</gpxtpx:hr></gpxtpx:TrackPointExtension></extensions></trkpt>
<trkpt lat="22.4694149" lon="114.2095533">
<ele>12</ele><time>2023-03-19T09:09:24.999Z</time><extensions><gpxtpx:TrackPointExtension><gpxtpx:hr>114</gpxtpx:hr></gpxtpx:TrackPointExtension></extensions></trkpt>
<trkpt lat="22.4694609" lon="114.2095984">
<ele>12</ele><time>2023-03-19T09:09:27.999Z</time><extensions><gpxtpx:TrackPointExtension><gpxtpx:hr>115</gpxtpx:hr></gpxtpx:TrackPointExtension></extensions></trkpt>
<trkpt lat="22.4695068" lon="114.2096429">
<ele>12</ele><time>2023-03-19T09:09:29.999Z</time><extensions><gpxtpx:TrackPointExtension><gpxtpx:hr>115</gpxtpx:hr></gpxtpx:TrackPointExtension></extensions></trkpt>
<trkpt lat="22.4695559" lon="114.2096860">
<ele>12</ele><time>2023-03-19T09:09:31.999Z</time><extensions><gpxtpx:TrackPointExtension><gpxtpx:hr>115</gpxtpx:hr></gpxtpx:TrackPointExtension></extensions></trkpt>
<trkpt lat="22.4696034" lon="114.2097355">
<ele>12</ele><time>2023-03-19T09:09:33.999Z</time><extensions><gpxtpx:TrackPointExtension><gpxtpx:hr>115</gpxtpx:hr></gpxtpx:TrackPointExtension></extensions></trkpt>
<trkpt lat="22.4696559" lon="114.2097792">
<ele>12</ele><time>2023-03-19T09:09:35.999Z</time><extensions><gpxtpx:TrackPointExtension><gpxtpx:hr>115</gpxtpx:hr></gpxtpx:TrackPointExtension></extensions></trkpt>
<trkpt lat="22.4697117" lon="114.2098345">
<ele>12</ele><time>2023-03-19T09:09:37.999Z</time><extensions><gpxtpx:TrackPointExtension><gpxtpx:hr>115</gpxtpx:hr></gpxtpx:TrackPointExtension></extensions></trkpt>
<trkpt lat="22.4697724" lon="114.2098841">
<ele>12</ele><time>2023-03-19T09:09:39.999Z</time><extensions><gpxtpx:TrackPointExtension><gpxtpx:hr>115</gpxtpx:hr></gpxtpx:TrackPointExtension></extensions></trkpt>
<trkpt lat="22.4698274" lon="114.2099336">
<ele>12</ele><time>2023-03-19T09:09:41.999Z</time><extensions><gpxtpx:TrackPointExtension><gpxtpx:hr>115</gpxtpx:hr></gpxtpx:TrackPointExtension></extensions></trkpt>
<trkpt lat="22.4698769" lon="114.2099954">
<ele>12</ele><time>2023-03-19T09:09:43.999Z</time><extensions><gpxtpx:TrackPointExtension><gpxtpx:hr>115</gpxtpx:hr></gpxtpx:TrackPointExtension></extensions></trkpt>
<trkpt lat="22.4699256" lon="114.2100601">
<ele>12</ele><time>2023-03-19T09:09:45.999Z</time><extensions><gpxtpx:TrackPointExtension><gpxtpx:hr>115</gpxtpx:hr></gpxtpx:TrackPointExtension></extensions></trkpt>
<trkpt lat="22.4699774" lon="114.2101204">
<ele>12</ele><time>2023-03-19T09:09:47.999Z</time><extensions><gpxtpx:TrackPointExtension><gpxtpx:hr>115</gpxtpx:hr></gpxtpx:TrackPointExtension></extensions></trkpt>
<trkpt lat="22.4700367" lon="114.2101762">
<ele>12</ele><time>2023-03-19T09:09:49.999Z</time><extensions><gpxtpx:TrackPointExtension><gpxtpx:hr>115</gpxtpx:hr></gpxtpx:TrackPointExtension></extensions></trkpt>
<trkpt lat="22.4700912" lon="114.2102307">
<ele>11</ele><time>2023-03-19T09:09:51.999Z</time><extensions><gpxtpx:TrackPointExtension><gpxtpx:hr>115</gpxtpx:hr></gpxtpx:TrackPointExtension></extensions></trkpt>
<trkpt lat="22.4701418" lon="114.2102854">
<ele>11</ele><time>2023-03-19T09:09:53.999Z</time><extensions><gpxtpx:TrackPointExtension><gpxtpx:hr>115</gpxtpx:hr></gpxtpx:TrackPointExtension></extensions></trkpt>
<trkpt lat="22.4701934" lon="114.2103346">
<ele>11</ele><time>2023-03-19T09:09:55.999Z</time><extensions><gpxtpx:TrackPointExtension><gpxtpx:hr>115</gpxtpx:hr></gpxtpx:TrackPointExtension></extensions></trkpt>
<trkpt lat="22.4702433" lon="114.2103917">
<ele>11</ele><time>2023-03-19T09:09:57.999Z</time><extensions><gpxtpx:TrackPointExtension><gpxtpx:hr>115</gpxtpx:hr></gpxtpx:TrackPointExtension></extensions></trkpt>
<trkpt lat="22.4703011" lon="114.2104433">
<ele>11</ele><time>2023-03-19T09:09:59.999Z</time><extensions><gpxtpx:TrackPointExtension><gpxtpx:hr>115</gpxtpx:hr></gpxtpx:TrackPointExtension></extensions></trkpt>
<trkpt lat="22.4703563" lon="114.2104946">
<ele>11</ele><time>2023-03-19T09:10:01.999Z</time><extensions><gpxtpx:TrackPointExtension><gpxtpx:hr>115</gpxtpx:hr></gpxtpx:TrackPointExtension></extensions></trkpt>
<trkpt lat="22.4703992" lon="114.2105519">
<ele>11</ele><time>2023-03-19T09:10:03.999Z</time><extensions><gpxtpx:TrackPointExtension><gpxtpx:hr>115</gpxtpx:hr></gpxtpx:TrackPointExtension></extensions></trkpt>
<trkpt lat="22.4704416" lon="114.2105906">
<ele>11</ele><time>2023-03-19T09:10:05.999Z</time><extensions><gpxtpx:TrackPointExtension><gpxtpx:hr>115</gpxtpx:hr></gpxtpx:TrackPointExtension></extensions></trkpt>
<trkpt lat="22.4704772" lon="114.2106346">
<ele>11</ele><time>2023-03-19T09:10:07.999Z</time><extensions><gpxtpx:TrackPointExtension><gpxtpx:hr>112</gpxtpx:hr></gpxtpx:TrackPointExtension></extensions></trkpt>
<trkpt lat="22.4705159" lon="114.2106645">
<ele>11</ele><time>2023-03-19T09:10:09.999Z</time><extensions><gpxtpx:TrackPointExtension><gpxtpx:hr>112</gpxtpx:hr></gpxtpx:TrackPointExtension></extensions></trkpt>
<trkpt lat="22.4705544" lon="114.2107089">
<ele>12</ele><time>2023-03-19T09:10:12.999Z</time><extensions><gpxtpx:TrackPointExtension><gpxtpx:hr>111</gpxtpx:hr></gpxtpx:TrackPointExtension></extensions></trkpt>
<trkpt lat="22.4706005" lon="114.2107430">
<ele>12</ele><time>2023-03-19T09:10:15.999Z</time><extensions><gpxtpx:TrackPointExtension><gpxtpx:hr>111</gpxtpx:hr></gpxtpx:TrackPointExtension></extensions></trkpt>
<trkpt lat="22.4706356" lon="114.2107785">
<ele>12</ele><time>2023-03-19T09:10:17.999Z</time><extensions><gpxtpx:TrackPointExtension><gpxtpx:hr>110</gpxtpx:hr></gpxtpx:TrackPointExtension></extensions></trkpt>
<trkpt lat="22.4706778" lon="114.2108188">
<ele>12</ele><time>2023-03-19T09:10:19.999Z</time><extensions><gpxtpx:TrackPointExtension><gpxtpx:hr>110</gpxtpx:hr></gpxtpx:TrackPointExtension></extensions></trkpt>
<trkpt lat="22.4707220" lon="114.2108609">
<ele>12</ele><time>2023-03-19T09:10:21.999Z</time><extensions><gpxtpx:TrackPointExtension><gpxtpx:hr>109</gpxtpx:hr></gpxtpx:TrackPointExtension></extensions></trkpt>
<trkpt lat="22.4707595" lon="114.2109112">
<ele>12</ele><time>2023-03-19T09:10:23.999Z</time><extensions><gpxtpx:TrackPointExtension><gpxtpx:hr>109</gpxtpx:hr></gpxtpx:TrackPointExtension></extensions></trkpt>
<trkpt lat="22.4707980" lon="114.2109437">
<ele>12</ele><time>2023-03-19T09:10:25.999Z</time><extensions><gpxtpx:TrackPointExtension><gpxtpx:hr>109</gpxtpx:hr></gpxtpx:TrackPointExtension></extensions></trkpt>
<trkpt lat="22.4708302" lon="114.2109826">
<ele>12</ele><time>2023-03-19T09:10:27.999Z</time><extensions><gpxtpx:TrackPointExtension><gpxtpx:hr>110</gpxtpx:hr></gpxtpx:TrackPointExtension></extensions></trkpt>
<trkpt lat="22.4708715" lon="114.2110127">
<ele>12</ele><time>2023-03-19T09:10:29.999Z</time><extensions><gpxtpx:TrackPointExtension><gpxtpx:hr>110</gpxtpx:hr></gpxtpx:TrackPointExtension></extensions></trkpt>
<trkpt lat="22.4709068" lon="114.2110503">
<ele>12</ele><time>2023-03-19T09:10:31.998Z</time><extensions><gpxtpx:TrackPointExtension><gpxtpx:hr>107</gpxtpx:hr></gpxtpx:TrackPointExtension></extensions></trkpt>
<trkpt lat="22.4709445" lon="114.2110891">
<ele>12</ele><time>2023-03-19T09:10:33.998Z</time><extensions><gpxtpx:TrackPointExtension><gpxtpx:hr>107</gpxtpx:hr></gpxtpx:TrackPointExtension></extensions></trkpt>
<trkpt lat="22.4709856" lon="114.2111292">
<ele>12</ele><time>2023-03-19T09:10:35.998Z</time><extensions><gpxtpx:TrackPointExtension><gpxtpx:hr>107</gpxtpx:hr></gpxtpx:TrackPointExtension></extensions></trkpt>
<trkpt lat="22.4710270" lon="114.2111742">
<ele>12</ele><time>2023-03-19T09:10:37.998Z</time><extensions><gpxtpx:TrackPointExtension><gpxtpx:hr>106</gpxtpx:hr></gpxtpx:TrackPointExtension></extensions></trkpt>
<trkpt lat="22.4710634" lon="114.2112098">
<ele>12</ele><time>2023-03-19T09:10:39.998Z</time><extensions><gpxtpx:TrackPointExtension><gpxtpx:hr>106</gpxtpx:hr></gpxtpx:TrackPointExtension></extensions></trkpt>
<trkpt lat="22.4711140" lon="114.2112524">
<ele>12</ele><time>2023-03-19T09:10:42.998Z</time><extensions><gpxtpx:TrackPointExtension><gpxtpx:hr>107</gpxtpx:hr></gpxtpx:TrackPointExtension></extensions></trkpt>
<trkpt lat="22.4711474" lon="114.2112854">
<ele>12</ele><time>2023-03-19T09:10:44.998Z</time><extensions><gpxtpx:TrackPointExtension><gpxtpx:hr>107</gpxtpx:hr></gpxtpx:TrackPointExtension></extensions></trkpt>
<trkpt lat="22.4711803" lon="114.2113230">
<ele>12</ele><time>2023-03-19T09:10:46.998Z</time><extensions><gpxtpx:TrackPointExtension><gpxtpx:hr>105</gpxtpx:hr></gpxtpx:TrackPointExtension></extensions></trkpt>
<trkpt lat="22.4712190" lon="114.2113624">
<ele>12</ele><time>2023-03-19T09:10:48.998Z</time><extensions><gpxtpx:TrackPointExtension><gpxtpx:hr>105</gpxtpx:hr></gpxtpx:TrackPointExtension></extensions></trkpt>
<trkpt lat="22.4712556" lon="114.2113968">
<ele>12</ele><time>2023-03-19T09:10:50.998Z</time><extensions><gpxtpx:TrackPointExtension><gpxtpx:hr>105</gpxtpx:hr></gpxtpx:TrackPointExtension></extensions></trkpt>
<trkpt lat="22.4712993" lon="114.2114413">
<ele>12</ele><time>2023-03-19T09:10:53.998Z</time><extensions><gpxtpx:TrackPointExtension><gpxtpx:hr>103</gpxtpx:hr></gpxtpx:TrackPointExtension></extensions></trkpt>
<trkpt lat="22.4713470" lon="114.2114933">
<ele>12</ele><time>2023-03-19T09:10:56.998Z</time><extensions><gpxtpx:TrackPointExtension><gpxtpx:hr>106</gpxtpx:hr></gpxtpx:TrackPointExtension></extensions></trkpt>
<trkpt lat="22.4713820" lon="114.2115287">
<ele>12</ele><time>2023-03-19T09:10:58.998Z</time><extensions><gpxtpx:TrackPointExtension><gpxtpx:hr>106</gpxtpx:hr></gpxtpx:TrackPointExtension></extensions></trkpt>
<trkpt lat="22.4714184" lon="114.2115748">
<ele>13</ele><time>2023-03-19T09:11:00.998Z</time><extensions><gpxtpx:TrackPointExtension><gpxtpx:hr>106</gpxtpx:hr></gpxtpx:TrackPointExtension></extensions></trkpt>
<trkpt lat="22.4714622" lon="114.2116177">
<ele>13</ele><time>2023-03-19T09:11:02.998Z</time><extensions><gpxtpx:TrackPointExtension><gpxtpx:hr>107</gpxtpx:hr></gpxtpx:TrackPointExtension></extensions></trkpt>
<trkpt lat="22.4715049" lon="114.2116613">
<ele>13</ele><time>2023-03-19T09:11:04.998Z</time><extensions><gpxtpx:TrackPointExtension><gpxtpx:hr>107</gpxtpx:hr></gpxtpx:TrackPointExtension></extensions></trkpt>
<trkpt lat="22.4715436" lon="114.2116993">
<ele>13</ele><time>2023-03-19T09:11:06.998Z</time><extensions><gpxtpx:TrackPointExtension><gpxtpx:hr>108</gpxtpx:hr></gpxtpx:TrackPointExtension></extensions></trkpt>
<trkpt lat="22.4715929" lon="114.2117411">
<ele>13</ele><time>2023-03-19T09:11:09.998Z</time><extensions><gpxtpx:TrackPointExtension><gpxtpx:hr>108</gpxtpx:hr></gpxtpx:TrackPointExtension></extensions></trkpt>
<trkpt lat="22.4716279" lon="114.2117727">
<ele>13</ele><time>2023-03-19T09:11:11.998Z</time><extensions><gpxtpx:TrackPointExtension><gpxtpx:hr>110</gpxtpx:hr></gpxtpx:TrackPointExtension></extensions></trkpt>
<trkpt lat="22.4716677" lon="114.2118121">
<ele>13</ele><time>2023-03-19T09:11:13.998Z</time><extensions><gpxtpx:TrackPointExtension><gpxtpx:hr>110</gpxtpx:hr></gpxtpx:TrackPointExtension></extensions></trkpt>
<trkpt lat="22.4717056" lon="114.2118478">
<ele>13</ele><time>2023-03-19T09:11:15.998Z</time><extensions><gpxtpx:TrackPointExtension><gpxtpx:hr>110</gpxtpx:hr></gpxtpx:TrackPointExtension></extensions></trkpt>
<trkpt lat="22.4717435" lon="114.2118830">
<ele>13</ele><time>2023-03-19T09:11:17.998Z</time><extensions><gpxtpx:TrackPointExtension><gpxtpx:hr>110</gpxtpx:hr></gpxtpx:TrackPointExtension></extensions></trkpt>
<trkpt lat="22.4717819" lon="114.2119224">
<ele>13</ele><time>2023-03-19T09:11:20.000Z</time><extensions><gpxtpx:TrackPointExtension><gpxtpx:hr>110</gpxtpx:hr></gpxtpx:TrackPointExtension></extensions></trkpt>
<trkpt lat="22.4718256" lon="114.2119593">
<ele>13</ele><time>2023-03-19T09:11:22.000Z</time><extensions><gpxtpx:TrackPointExtension><gpxtpx:hr>110</gpxtpx:hr></gpxtpx:TrackPointExtension></extensions></trkpt>
<trkpt lat="22.4718614" lon="114.2119993">
<ele>13</ele><time>2023-03-19T09:11:24.000Z</time><extensions><gpxtpx:TrackPointExtension><gpxtpx:hr>110</gpxtpx:hr></gpxtpx:TrackPointExtension></extensions></trkpt>
<trkpt lat="22.4719040" lon="114.2120363">
<ele>13</ele><time>2023-03-19T09:11:26.000Z</time><extensions><gpxtpx:TrackPointExtension><gpxtpx:hr>110</gpxtpx:hr></gpxtpx:TrackPointExtension></extensions></trkpt>
<trkpt lat="22.4719532" lon="114.2120763">
<ele>13</ele><time>2023-03-19T09:11:28.000Z</time><extensions><gpxtpx:TrackPointExtension><gpxtpx:hr>110</gpxtpx:hr></gpxtpx:TrackPointExtension></extensions></trkpt>
<trkpt lat="22.4720092" lon="114.2121210">
<ele>13</ele><time>2023-03-19T09:11:30.000Z</time><extensions><gpxtpx:TrackPointExtension><gpxtpx:hr>110</gpxtpx:hr></gpxtpx:TrackPointExtension></extensions></trkpt>
<trkpt lat="22.4720615" lon="114.2121679">
<ele>13</ele><time>2023-03-19T09:11:32.000Z</time><extensions><gpxtpx:TrackPointExtension><gpxtpx:hr>110</gpxtpx:hr></gpxtpx:TrackPointExtension></extensions></trkpt>
<trkpt lat="22.4721027" lon="114.2122244">
<ele>13</ele><time>2023-03-19T09:11:34.000Z</time><extensions><gpxtpx:TrackPointExtension><gpxtpx:hr>110</gpxtpx:hr></gpxtpx:TrackPointExtension></extensions></trkpt>
<trkpt lat="22.4721346" lon="114.2122626">
<ele>13</ele><time>2023-03-19T09:11:36.000Z</time><extensions><gpxtpx:TrackPointExtension><gpxtpx:hr>110</gpxtpx:hr></gpxtpx:TrackPointExtension></extensions></trkpt>
<trkpt lat="22.4721731" lon="114.2122988">
<ele>13</ele><time>2023-03-19T09:11:37.999Z</time><extensions><gpxtpx:TrackPointExtension><gpxtpx:hr>110</gpxtpx:hr></gpxtpx:TrackPointExtension></extensions></trkpt>
<trkpt lat="22.4722108" lon="114.2123290">
<ele>13</ele><time>2023-03-19T09:11:39.999Z</time><extensions><gpxtpx:TrackPointExtension><gpxtpx:hr>110</gpxtpx:hr></gpxtpx:TrackPointExtension></extensions></trkpt>
<trkpt lat="22.4722522" lon="114.2123696">
<ele>13</ele><time>2023-03-19T09:11:41.999Z</time><extensions><gpxtpx:TrackPointExtension><gpxtpx:hr>110</gpxtpx:hr></gpxtpx:TrackPointExtension></extensions></trkpt>
<trkpt lat="22.4722976" lon="114.2124047">
<ele>13</ele><time>2023-03-19T09:11:43.999Z</time><extensions><gpxtpx:TrackPointExtension><gpxtpx:hr>110</gpxtpx:hr></gpxtpx:TrackPointExtension></extensions></trkpt>
<trkpt lat="22.4723437" lon="114.2124346">
<ele>12</ele><time>2023-03-19T09:11:45.999Z</time><extensions><gpxtpx:TrackPointExtension><gpxtpx:hr>110</gpxtpx:hr></gpxtpx:TrackPointExtension></extensions></trkpt>
<trkpt lat="22.4723944" lon="114.2124702">
<ele>12</ele><time>2023-03-19T09:11:48.999Z</time><extensions><gpxtpx:TrackPointExtension><gpxtpx:hr>110</gpxtpx:hr></gpxtpx:TrackPointExtension></extensions></trkpt>
<trkpt lat="22.4724469" lon="114.2124770">
<ele>12</ele><time>2023-03-19T09:11:50.999Z</time><extensions><gpxtpx:TrackPointExtension><gpxtpx:hr>110</gpxtpx:hr></gpxtpx:TrackPointExtension></extensions></trkpt>
<trkpt lat="22.4724974" lon="114.2125065">
<ele>12</ele><time>2023-03-19T09:11:52.999Z</time><extensions><gpxtpx:TrackPointExtension><gpxtpx:hr>110</gpxtpx:hr></gpxtpx:TrackPointExtension></extensions></trkpt>
<trkpt lat="22.4725559" lon="114.2125478">
<ele>12</ele><time>2023-03-19T09:11:54.999Z</time><extensions><gpxtpx:TrackPointExtension><gpxtpx:hr>110</gpxtpx:hr></gpxtpx:TrackPointExtension></extensions></trkpt>
<trkpt lat="22.4726260" lon="114.2126068">
<ele>12</ele><time>2023-03-19T09:11:56.999Z</time><extensions><gpxtpx:TrackPointExtension><gpxtpx:hr>110</gpxtpx:hr></gpxtpx:TrackPointExtension></extensions></trkpt>
<trkpt lat="22.4726679" lon="114.2126332">
<ele>12</ele><time>2023-03-19T09:11:57.999Z</time><extensions><gpxtpx:TrackPointExtension><gpxtpx:hr>110</gpxtpx:hr></gpxtpx:TrackPointExtension></extensions></trkpt>
<trkpt lat="22.4727133" lon="114.2126653">
<ele>12</ele><time>2023-03-19T09:11:58.999Z</time><extensions><gpxtpx:TrackPointExtension><gpxtpx:hr>110</gpxtpx:hr></gpxtpx:TrackPointExtension></extensions></trkpt>
<trkpt lat="22.4727598" lon="114.2126907">
<ele>12</ele><time>2023-03-19T09:11:59.999Z</time><extensions><gpxtpx:TrackPointExtension><gpxtpx:hr>110</gpxtpx:hr></gpxtpx:TrackPointExtension></extensions></trkpt>
<trkpt lat="22.4728055" lon="114.2127208">
<ele>12</ele><time>2023-03-19T09:12:00.999Z</time><extensions><gpxtpx:TrackPointExtension><gpxtpx:hr>110</gpxtpx:hr></gpxtpx:TrackPointExtension></extensions></trkpt>
<trkpt lat="22.4728551" lon="114.2127471">
<ele>12</ele><time>2023-03-19T09:12:01.999Z</time><extensions><gpxtpx:TrackPointExtension><gpxtpx:hr>110</gpxtpx:hr></gpxtpx:TrackPointExtension></extensions></trkpt>
<trkpt lat="22.4729086" lon="114.2127770">
<ele>12</ele><time>2023-03-19T09:12:02.999Z</time><extensions><gpxtpx:TrackPointExtension><gpxtpx:hr>110</gpxtpx:hr></gpxtpx:TrackPointExtension></extensions></trkpt>
<trkpt lat="22.4729623" lon="114.2128037">
<ele>12</ele><time>2023-03-19T09:12:03.999Z</time><extensions><gpxtpx:TrackPointExtension><gpxtpx:hr>110</gpxtpx:hr></gpxtpx:TrackPointExtension></extensions></trkpt>
<trkpt lat="22.4730128" lon="114.2128317">
<ele>12</ele><time>2023-03-19T09:12:04.999Z</time><extensions><gpxtpx:TrackPointExtension><gpxtpx:hr>110</gpxtpx:hr></gpxtpx:TrackPointExtension></extensions></trkpt>
<trkpt lat="22.4730586" lon="114.2128570">
<ele>12</ele><time>2023-03-19T09:12:05.999Z</time><extensions><gpxtpx:TrackPointExtension><gpxtpx:hr>110</gpxtpx:hr></gpxtpx:TrackPointExtension></extensions></trkpt>
<trkpt lat="22.4731022" lon="114.2128828">
<ele>12</ele><time>2023-03-19T09:12:06.999Z</time><extensions><gpxtpx:TrackPointExtension><gpxtpx:hr>110</gpxtpx:hr></gpxtpx:TrackPointExtension></extensions></trkpt>
<trkpt lat="22.4731461" lon="114.2129097">
<ele>12</ele><time>2023-03-19T09:12:07.999Z</time><extensions><gpxtpx:TrackPointExtension><gpxtpx:hr>110</gpxtpx:hr></gpxtpx:TrackPointExtension></extensions></trkpt>
<trkpt lat="22.4731891" lon="114.2129313">
<ele>12</ele><time>2023-03-19T09:12:08.999Z</time><extensions><gpxtpx:TrackPointExtension><gpxtpx:hr>110</gpxtpx:hr></gpxtpx:TrackPointExtension></extensions></trkpt>
<trkpt lat="22.4732607" lon="114.2129700">
<ele>12</ele><time>2023-03-19T09:12:10.999Z</time><extensions><gpxtpx:TrackPointExtension><gpxtpx:hr>110</gpxtpx:hr></gpxtpx:TrackPointExtension></extensions></trkpt>
<trkpt lat="22.4733220" lon="114.2130112">
<ele>12</ele><time>2023-03-19T09:12:12.999Z</time><extensions><gpxtpx:TrackPointExtension><gpxtpx:hr>110</gpxtpx:hr></gpxtpx:TrackPointExtension></extensions></trkpt>
<trkpt lat="22.4733737" lon="114.2130531">
<ele>12</ele><time>2023-03-19T09:12:14.999Z</time><extensions><gpxtpx:TrackPointExtension><gpxtpx:hr>110</gpxtpx:hr></gpxtpx:TrackPointExtension></extensions></trkpt>
<trkpt lat="22.4734233" lon="114.2130896">
<ele>12</ele><time>2023-03-19T09:12:16.999Z</time><extensions><gpxtpx:TrackPointExtension><gpxtpx:hr>110</gpxtpx:hr></gpxtpx:TrackPointExtension></extensions></trkpt>
<trkpt lat="22.4734610" lon="114.2131384">
<ele>12</ele><time>2023-03-19T09:12:18.999Z</time><extensions><gpxtpx:TrackPointExtension><gpxtpx:hr>110</gpxtpx:hr></gpxtpx:TrackPointExtension></extensions></trkpt>
<trkpt lat="22.4735031" lon="114.2131949">
<ele>12</ele><time>2023-03-19T09:12:20.999Z</time><extensions><gpxtpx:TrackPointExtension><gpxtpx:hr>110</gpxtpx:hr></gpxtpx:TrackPointExtension></extensions></trkpt>
<trkpt lat="22.4735521" lon="114.2132450">
<ele>12</ele><time>2023-03-19T09:12:22.999Z</time><extensions><gpxtpx:TrackPointExtension><gpxtpx:hr>110</gpxtpx:hr></gpxtpx:TrackPointExtension></extensions></trkpt>
<trkpt lat="22.4736057" lon="114.2132940">
<ele>12</ele><time>2023-03-19T09:12:24.999Z</time><extensions><gpxtpx:TrackPointExtension><gpxtpx:hr>110</gpxtpx:hr></gpxtpx:TrackPointExtension></extensions></trkpt>
<trkpt lat="22.4736562" lon="114.2133697">
<ele>12</ele><time>2023-03-19T09:12:26.999Z</time><extensions><gpxtpx:TrackPointExtension><gpxtpx:hr>110</gpxtpx:hr></gpxtpx:TrackPointExtension></extensions></trkpt>
<trkpt lat="22.4736911" lon="114.2134348">
<ele>12</ele><time>2023-03-19T09:12:28.999Z</time><extensions><gpxtpx:TrackPointExtension><gpxtpx:hr>110</gpxtpx:hr></gpxtpx:TrackPointExtension></extensions></trkpt>
<trkpt lat="22.4737298" lon="114.2135030">
<ele>12</ele><time>2023-03-19T09:12:30.999Z</time><extensions><gpxtpx:TrackPointExtension><gpxtpx:hr>110</gpxtpx:hr></gpxtpx:TrackPointExtension></extensions></trkpt>
<trkpt lat="22.4737504" lon="114.2135502">
<ele>12</ele><time>2023-03-19T09:12:31.999Z</time><extensions><gpxtpx:TrackPointExtension><gpxtpx:hr>110</gpxtpx:hr></gpxtpx:TrackPointExtension></extensions></trkpt>
<trkpt lat="22.4737697" lon="114.2135999">
<ele>12</ele><time>2023-03-19T09:12:32.999Z</time><extensions><gpxtpx:TrackPointExtension><gpxtpx:hr>110</gpxtpx:hr></gpxtpx:TrackPointExtension></extensions></trkpt>
<trkpt lat="22.4737881" lon="114.2136523">
<ele>12</ele><time>2023-03-19T09:12:33.999Z</time><extensions><gpxtpx:TrackPointExtension><gpxtpx:hr>110</gpxtpx:hr></gpxtpx:TrackPointExtension></extensions></trkpt>
<trkpt lat="22.4738048" lon="114.2137070">
<ele>12</ele><time>2023-03-19T09:12:34.999Z</time><extensions><gpxtpx:TrackPointExtension><gpxtpx:hr>110</gpxtpx:hr></gpxtpx:TrackPointExtension></extensions></trkpt>
<trkpt lat="22.4738146" lon="114.2137650">
<ele>12</ele><time>2023-03-19T09:12:35.999Z</time><extensions><gpxtpx:TrackPointExtension><gpxtpx:hr>110</gpxtpx:hr></gpxtpx:TrackPointExtension></extensions></trkpt>
<trkpt lat="22.4738239" lon="114.2138229">
<ele>12</ele><time>2023-03-19T09:12:36.999Z</time><extensions><gpxtpx:TrackPointExtension><gpxtpx:hr>110</gpxtpx:hr></gpxtpx:TrackPointExtension></extensions></trkpt>
<trkpt lat="22.4738290" lon="114.2138784">
<ele>12</ele><time>2023-03-19T09:12:37.999Z</time><extensions><gpxtpx:TrackPointExtension><gpxtpx:hr>110</gpxtpx:hr></gpxtpx:TrackPointExtension></extensions></trkpt>
<trkpt lat="22.4738352" lon="114.2139327">
<ele>12</ele><time>2023-03-19T09:12:38.998Z</time><extensions><gpxtpx:TrackPointExtension><gpxtpx:hr>110</gpxtpx:hr></gpxtpx:TrackPointExtension></extensions></trkpt>
<trkpt lat="22.4738359" lon="114.2139839">
<ele>12</ele><time>2023-03-19T09:12:39.998Z</time><extensions><gpxtpx:TrackPointExtension><gpxtpx:hr>110</gpxtpx:hr></gpxtpx:TrackPointExtension></extensions></trkpt>
<trkpt lat="22.4738356" lon="114.2140349">
<ele>12</ele><time>2023-03-19T09:12:40.998Z</time><extensions><gpxtpx:TrackPointExtension><gpxtpx:hr>110</gpxtpx:hr></gpxtpx:TrackPointExtension></extensions></trkpt>
<trkpt lat="22.4738346" lon="114.2141200">
<ele>12</ele><time>2023-03-19T09:12:42.998Z</time><extensions><gpxtpx:TrackPointExtension><gpxtpx:hr>110</gpxtpx:hr></gpxtpx:TrackPointExtension></extensions></trkpt>
<trkpt lat="22.4738260" lon="114.2142007">
<ele>12</ele><time>2023-03-19T09:12:44.998Z</time><extensions><gpxtpx:TrackPointExtension><gpxtpx:hr>110</gpxtpx:hr></gpxtpx:TrackPointExtension></extensions></trkpt>
<trkpt lat="22.4738107" lon="114.2142789">
<ele>12</ele><time>2023-03-19T09:12:46.998Z</time><extensions><gpxtpx:TrackPointExtension><gpxtpx:hr>110</gpxtpx:hr></gpxtpx:TrackPointExtension></extensions></trkpt>
<trkpt lat="22.4737825" lon="114.2143367">
<ele>12</ele><time>2023-03-19T09:12:48.998Z</time><extensions><gpxtpx:TrackPointExtension><gpxtpx:hr>110</gpxtpx:hr></gpxtpx:TrackPointExtension></extensions></trkpt>
<trkpt lat="22.4737525" lon="114.2144159">
<ele>12</ele><time>2023-03-19T09:12:50.998Z</time><extensions><gpxtpx:TrackPointExtension><gpxtpx:hr>110</gpxtpx:hr></gpxtpx:TrackPointExtension></extensions></trkpt>
<trkpt lat="22.4737275" lon="114.2144914">
<ele>12</ele><time>2023-03-19T09:12:52.998Z</time><extensions><gpxtpx:TrackPointExtension><gpxtpx:hr>110</gpxtpx:hr></gpxtpx:TrackPointExtension></extensions></trkpt>
<trkpt lat="22.4736975" lon="114.2145586">
<ele>12</ele><time>2023-03-19T09:12:54.998Z</time><extensions><gpxtpx:TrackPointExtension><gpxtpx:hr>110</gpxtpx:hr></gpxtpx:TrackPointExtension></extensions></trkpt>
<trkpt lat="22.4736635" lon="114.2146262">
<ele>12</ele><time>2023-03-19T09:12:56.998Z</time><extensions><gpxtpx:TrackPointExtension><gpxtpx:hr>110</gpxtpx:hr></gpxtpx:TrackPointExtension></extensions></trkpt>
<trkpt lat="22.4736360" lon="114.2146905">
<ele>12</ele><time>2023-03-19T09:12:58.998Z</time><extensions><gpxtpx:TrackPointExtension><gpxtpx:hr>110</gpxtpx:hr></gpxtpx:TrackPointExtension></extensions></trkpt>
<trkpt lat="22.4736043" lon="114.2147530">
<ele>12</ele><time>2023-03-19T09:13:00.998Z</time><extensions><gpxtpx:TrackPointExtension><gpxtpx:hr>110</gpxtpx:hr></gpxtpx:TrackPointExtension></extensions></trkpt>
<trkpt lat="22.4735766" lon="114.2148129">
<ele>12</ele><time>2023-03-19T09:13:02.998Z</time><extensions><gpxtpx:TrackPointExtension><gpxtpx:hr>110</gpxtpx:hr></gpxtpx:TrackPointExtension></extensions></trkpt>
<trkpt lat="22.4735450" lon="114.2148645">
<ele>12</ele><time>2023-03-19T09:13:04.998Z</time><extensions><gpxtpx:TrackPointExtension><gpxtpx:hr>110</gpxtpx:hr></gpxtpx:TrackPointExtension></extensions></trkpt>
<trkpt lat="22.4735094" lon="114.2149275">
<ele>12</ele><time>2023-03-19T09:13:06.998Z</time><extensions><gpxtpx:TrackPointExtension><gpxtpx:hr>110</gpxtpx:hr></gpxtpx:TrackPointExtension></extensions></trkpt>
<trkpt lat="22.4734842" lon="114.2149682">
<ele>12</ele><time>2023-03-19T09:13:07.998Z</time><extensions><gpxtpx:TrackPointExtension><gpxtpx:hr>110</gpxtpx:hr></gpxtpx:TrackPointExtension></extensions></trkpt>
<trkpt lat="22.4734495" lon="114.2150385">
<ele>12</ele><time>2023-03-19T09:13:09.998Z</time><extensions><gpxtpx:TrackPointExtension><gpxtpx:hr>110</gpxtpx:hr></gpxtpx:TrackPointExtension></extensions></trkpt>
<trkpt lat="22.4734159" lon="114.2151044">
<ele>12</ele><time>2023-03-19T09:13:11.998Z</time><extensions><gpxtpx:TrackPointExtension><gpxtpx:hr>110</gpxtpx:hr></gpxtpx:TrackPointExtension></extensions></trkpt>
<trkpt lat="22.4733653" lon="114.2151624">
<ele>12</ele><time>2023-03-19T09:13:13.998Z</time><extensions><gpxtpx:TrackPointExtension><gpxtpx:hr>111</gpxtpx:hr></gpxtpx:TrackPointExtension></extensions></trkpt>
<trkpt lat="22.4733211" lon="114.2152255">
<ele>12</ele><time>2023-03-19T09:13:15.998Z</time><extensions><gpxtpx:TrackPointExtension><gpxtpx:hr>111</gpxtpx:hr></gpxtpx:TrackPointExtension></extensions></trkpt>
<trkpt lat="22.4732784" lon="114.2152823">
<ele>11</ele><time>2023-03-19T09:13:17.998Z</time><extensions><gpxtpx:TrackPointExtension><gpxtpx:hr>112</gpxtpx:hr></gpxtpx:TrackPointExtension></extensions></trkpt>
<trkpt lat="22.4732274" lon="114.2153373">
<ele>11</ele><time>2023-03-19T09:13:19.998Z</time><extensions><gpxtpx:TrackPointExtension><gpxtpx:hr>112</gpxtpx:hr></gpxtpx:TrackPointExtension></extensions></trkpt>
<trkpt lat="22.4731847" lon="114.2153963">
<ele>11</ele><time>2023-03-19T09:13:21.998Z</time><extensions><gpxtpx:TrackPointExtension><gpxtpx:hr>112</gpxtpx:hr></gpxtpx:TrackPointExtension></extensions></trkpt>
<trkpt lat="22.4731473" lon="114.2154526">
<ele>11</ele><time>2023-03-19T09:13:23.998Z</time><extensions><gpxtpx:TrackPointExtension><gpxtpx:hr>109</gpxtpx:hr></gpxtpx:TrackPointExtension></extensions></trkpt>
<trkpt lat="22.4730936" lon="114.2155085">
<ele>11</ele><time>2023-03-19T09:13:26.000Z</time><extensions><gpxtpx:TrackPointExtension><gpxtpx:hr>109</gpxtpx:hr></gpxtpx:TrackPointExtension></extensions></trkpt>
<trkpt lat="22.4730524" lon="114.2155569">
<ele>11</ele><time>2023-03-19T09:13:28.000Z</time><extensions><gpxtpx:TrackPointExtension><gpxtpx:hr>108</gpxtpx:hr></gpxtpx:TrackPointExtension></extensions></trkpt>
<trkpt lat="22.4730022" lon="114.2156101">
<ele>11</ele><time>2023-03-19T09:13:30.000Z</time><extensions><gpxtpx:TrackPointExtension><gpxtpx:hr>108</gpxtpx:hr></gpxtpx:TrackPointExtension></extensions></trkpt>
<trkpt lat="22.4729568" lon="114.2156500">
<ele>11</ele><time>2023-03-19T09:13:32.000Z</time><extensions><gpxtpx:TrackPointExtension><gpxtpx:hr>108</gpxtpx:hr></gpxtpx:TrackPointExtension></extensions></trkpt>
<trkpt lat="22.4729172" lon="114.2157057">
<ele>11</ele><time>2023-03-19T09:13:34.000Z</time><extensions><gpxtpx:TrackPointExtension><gpxtpx:hr>107</gpxtpx:hr></gpxtpx:TrackPointExtension></extensions></trkpt>
<trkpt lat="22.4728683" lon="114.2157567">
<ele>11</ele><time>2023-03-19T09:13:36.000Z</time><extensions><gpxtpx:TrackPointExtension><gpxtpx:hr>107</gpxtpx:hr></gpxtpx:TrackPointExtension></extensions></trkpt>
<trkpt lat="22.4728200" lon="114.2158076">
<ele>11</ele><time>2023-03-19T09:13:38.000Z</time><extensions><gpxtpx:TrackPointExtension><gpxtpx:hr>105</gpxtpx:hr></gpxtpx:TrackPointExtension></extensions></trkpt>
<trkpt lat="22.4727614" lon="114.2158479">
<ele>11</ele><time>2023-03-19T09:13:40.000Z</time><extensions><gpxtpx:TrackPointExtension><gpxtpx:hr>105</gpxtpx:hr></gpxtpx:TrackPointExtension></extensions></trkpt>
<trkpt lat="22.4727103" lon="114.2158905">
<ele>11</ele><time>2023-03-19T09:13:42.000Z</time><extensions><gpxtpx:TrackPointExtension><gpxtpx:hr>105</gpxtpx:hr></gpxtpx:TrackPointExtension></extensions></trkpt>
<trkpt lat="22.4726623" lon="114.2159178">
<ele>11</ele><time>2023-03-19T09:13:43.999Z</time><extensions><gpxtpx:TrackPointExtension><gpxtpx:hr>106</gpxtpx:hr></gpxtpx:TrackPointExtension></extensions></trkpt>
<trkpt lat="22.4726223" lon="114.2159402">
<ele>11</ele><time>2023-03-19T09:13:45.999Z</time><extensions><gpxtpx:TrackPointExtension><gpxtpx:hr>106</gpxtpx:hr></gpxtpx:TrackPointExtension></extensions></trkpt>
<trkpt lat="22.4725807" lon="114.2159668">
<ele>11</ele><time>2023-03-19T09:13:47.999Z</time><extensions><gpxtpx:TrackPointExtension><gpxtpx:hr>107</gpxtpx:hr></gpxtpx:TrackPointExtension></extensions></trkpt>
<trkpt lat="22.4725107" lon="114.2160088">
<ele>11</ele><time>2023-03-19T09:13:49.999Z</time><extensions><gpxtpx:TrackPointExtension><gpxtpx:hr>107</gpxtpx:hr></gpxtpx:TrackPointExtension></extensions></trkpt>
<trkpt lat="22.4724520" lon="114.2160708">
<ele>11</ele><time>2023-03-19T09:13:51.999Z</time><extensions><gpxtpx:TrackPointExtension><gpxtpx:hr>107</gpxtpx:hr></gpxtpx:TrackPointExtension></extensions></trkpt>
<trkpt lat="22.4723957" lon="114.2161321">
<ele>11</ele><time>2023-03-19T09:13:53.999Z</time><extensions><gpxtpx:TrackPointExtension><gpxtpx:hr>109</gpxtpx:hr></gpxtpx:TrackPointExtension></extensions></trkpt>
<trkpt lat="22.4723600" lon="114.2161617">
<ele>11</ele><time>2023-03-19T09:13:54.999Z</time><extensions><gpxtpx:TrackPointExtension><gpxtpx:hr>109</gpxtpx:hr></gpxtpx:TrackPointExtension></extensions></trkpt>
<trkpt lat="22.4723011" lon="114.2162141">
<ele>12</ele><time>2023-03-19T09:13:56.999Z</time><extensions><gpxtpx:TrackPointExtension><gpxtpx:hr>109</gpxtpx:hr></gpxtpx:TrackPointExtension></extensions></trkpt>
<trkpt lat="22.4722465" lon="114.2162667">
<ele>12</ele><time>2023-03-19T09:13:58.999Z</time><extensions><gpxtpx:TrackPointExtension><gpxtpx:hr>110</gpxtpx:hr></gpxtpx:TrackPointExtension></extensions></trkpt>
<trkpt lat="22.4721973" lon="114.2163116">
<ele>11</ele><time>2023-03-19T09:14:00.999Z</time><extensions><gpxtpx:TrackPointExtension><gpxtpx:hr>110</gpxtpx:hr></gpxtpx:TrackPointExtension></extensions></trkpt>
<trkpt lat="22.4721396" lon="114.2163516">
<ele>11</ele><time>2023-03-19T09:14:02.999Z</time><extensions><gpxtpx:TrackPointExtension><gpxtpx:hr>110</gpxtpx:hr></gpxtpx:TrackPointExtension></extensions></trkpt>
<trkpt lat="22.4720951" lon="114.2163949">
<ele>11</ele><time>2023-03-19T09:14:04.999Z</time><extensions><gpxtpx:TrackPointExtension><gpxtpx:hr>110</gpxtpx:hr></gpxtpx:TrackPointExtension></extensions></trkpt>
<trkpt lat="22.4720571" lon="114.2164433">
<ele>11</ele><time>2023-03-19T09:14:06.999Z</time><extensions><gpxtpx:TrackPointExtension><gpxtpx:hr>110</gpxtpx:hr></gpxtpx:TrackPointExtension></extensions></trkpt>
<trkpt lat="22.4719986" lon="114.2164861">
<ele>11</ele><time>2023-03-19T09:14:08.999Z</time><extensions><gpxtpx:TrackPointExtension><gpxtpx:hr>110</gpxtpx:hr></gpxtpx:TrackPointExtension></extensions></trkpt>
<trkpt lat="22.4719493" lon="114.2165296">
<ele>11</ele><time>2023-03-19T09:14:10.999Z</time><extensions><gpxtpx:TrackPointExtension><gpxtpx:hr>110</gpxtpx:hr></gpxtpx:TrackPointExtension></extensions></trkpt>
<trkpt lat="22.4719072" lon="114.2165727">
<ele>11</ele><time>2023-03-19T09:14:12.999Z</time><extensions><gpxtpx:TrackPointExtension><gpxtpx:hr>110</gpxtpx:hr></gpxtpx:TrackPointExtension></extensions></trkpt>
<trkpt lat="22.4718594" lon="114.2166161">
<ele>11</ele><time>2023-03-19T09:14:14.999Z</time><extensions><gpxtpx:TrackPointExtension><gpxtpx:hr>110</gpxtpx:hr></gpxtpx:TrackPointExtension></extensions></trkpt>
<trkpt lat="22.4718107" lon="114.2166695">
<ele>11</ele><time>2023-03-19T09:14:16.999Z</time><extensions><gpxtpx:TrackPointExtension><gpxtpx:hr>110</gpxtpx:hr></gpxtpx:TrackPointExtension></extensions></trkpt>
<trkpt lat="22.4717462" lon="114.2167160">
<ele>11</ele><time>2023-03-19T09:14:18.999Z</time><extensions><gpxtpx:TrackPointExtension><gpxtpx:hr>113</gpxtpx:hr></gpxtpx:TrackPointExtension></extensions></trkpt>
<trkpt lat="22.4716835" lon="114.2167756">
<ele>11</ele><time>2023-03-19T09:14:20.999Z</time><extensions><gpxtpx:TrackPointExtension><gpxtpx:hr>113</gpxtpx:hr></gpxtpx:TrackPointExtension></extensions></trkpt>
<trkpt lat="22.4716342" lon="114.2168283">
<ele>11</ele><time>2023-03-19T09:14:22.999Z</time><extensions><gpxtpx:TrackPointExtension><gpxtpx:hr>111</gpxtpx:hr></gpxtpx:TrackPointExtension></extensions></trkpt>
<trkpt lat="22.4715845" lon="114.2168841">
<ele>11</ele><time>2023-03-19T09:14:24.999Z</time><extensions><gpxtpx:TrackPointExtension><gpxtpx:hr>111</gpxtpx:hr></gpxtpx:TrackPointExtension></extensions></trkpt>
<trkpt lat="22.4715344" lon="114.2169326">
<ele>11</ele><time>2023-03-19T09:14:26.999Z</time><extensions><gpxtpx:TrackPointExtension><gpxtpx:hr>111</gpxtpx:hr></gpxtpx:TrackPointExtension></extensions></trkpt>
<trkpt lat="22.4714910" lon="114.2169787">
<ele>11</ele><time>2023-03-19T09:14:28.999Z</time><extensions><gpxtpx:TrackPointExtension><gpxtpx:hr>108</gpxtpx:hr></gpxtpx:TrackPointExtension></extensions></trkpt>
<trkpt lat="22.4714488" lon="114.2170337">
<ele>11</ele><time>2023-03-19T09:14:30.999Z</time><extensions><gpxtpx:TrackPointExtension><gpxtpx:hr>108</gpxtpx:hr></gpxtpx:TrackPointExtension></extensions></trkpt>
<trkpt lat="22.4714093" lon="114.2170790">
<ele>11</ele><time>2023-03-19T09:14:32.999Z</time><extensions><gpxtpx:TrackPointExtension><gpxtpx:hr>107</gpxtpx:hr></gpxtpx:TrackPointExtension></extensions></trkpt>
<trkpt lat="22.4713770" lon="114.2171184">
<ele>11</ele><time>2023-03-19T09:14:34.999Z</time><extensions><gpxtpx:TrackPointExtension><gpxtpx:hr>107</gpxtpx:hr></gpxtpx:TrackPointExtension></extensions></trkpt>
<trkpt lat="22.4713450" lon="114.2171552">
<ele>11</ele><time>2023-03-19T09:14:37.999Z</time><extensions><gpxtpx:TrackPointExtension><gpxtpx:hr>108</gpxtpx:hr></gpxtpx:TrackPointExtension></extensions></trkpt>
<trkpt lat="22.4713074" lon="114.2172029">
<ele>11</ele><time>2023-03-19T09:14:41.998Z</time><extensions><gpxtpx:TrackPointExtension><gpxtpx:hr>108</gpxtpx:hr></gpxtpx:TrackPointExtension></extensions></trkpt>
<trkpt lat="22.4712691" lon="114.2172562">
<ele>11</ele><time>2023-03-19T09:14:45.998Z</time><extensions><gpxtpx:TrackPointExtension><gpxtpx:hr>109</gpxtpx:hr></gpxtpx:TrackPointExtension></extensions></trkpt>
<trkpt lat="22.4712334" lon="114.2173065">
<ele>11</ele><time>2023-03-19T09:14:48.998Z</time><extensions><gpxtpx:TrackPointExtension><gpxtpx:hr>111</gpxtpx:hr></gpxtpx:TrackPointExtension></extensions></trkpt>
<trkpt lat="22.4711967" lon="114.2173649">
<ele>12</ele><time>2023-03-19T09:14:51.998Z</time><extensions><gpxtpx:TrackPointExtension><gpxtpx:hr>111</gpxtpx:hr></gpxtpx:TrackPointExtension></extensions></trkpt>
<trkpt lat="22.4711706" lon="114.2174048">
<ele>12</ele><time>2023-03-19T09:14:53.998Z</time><extensions><gpxtpx:TrackPointExtension><gpxtpx:hr>113</gpxtpx:hr></gpxtpx:TrackPointExtension></extensions></trkpt>
<trkpt lat="22.4711403" lon="114.2174523">
<ele>12</ele><time>2023-03-19T09:14:56.998Z</time><extensions><gpxtpx:TrackPointExtension><gpxtpx:hr>113</gpxtpx:hr></gpxtpx:TrackPointExtension></extensions></trkpt>
<trkpt lat="22.4711148" lon="114.2174936">
<ele>12</ele><time>2023-03-19T09:14:58.998Z</time><extensions><gpxtpx:TrackPointExtension><gpxtpx:hr>112</gpxtpx:hr></gpxtpx:TrackPointExtension></extensions></trkpt>
<trkpt lat="22.4710880" lon="114.2175422">
<ele>12</ele><time>2023-03-19T09:15:01.998Z</time><extensions><gpxtpx:TrackPointExtension><gpxtpx:hr>112</gpxtpx:hr></gpxtpx:TrackPointExtension></extensions></trkpt>
<trkpt lat="22.4710511" lon="114.2176033">
<ele>12</ele><time>2023-03-19T09:15:04.998Z</time><extensions><gpxtpx:TrackPointExtension><gpxtpx:hr>112</gpxtpx:hr></gpxtpx:TrackPointExtension></extensions></trkpt>
<trkpt lat="22.4710253" lon="114.2176568">
<ele>12</ele><time>2023-03-19T09:15:07.998Z</time><extensions><gpxtpx:TrackPointExtension><gpxtpx:hr>113</gpxtpx:hr></gpxtpx:TrackPointExtension></extensions></trkpt>
<trkpt lat="22.4710017" lon="114.2177180">
<ele>12</ele><time>2023-03-19T09:15:10.998Z</time><extensions><gpxtpx:TrackPointExtension><gpxtpx:hr>113</gpxtpx:hr></gpxtpx:TrackPointExtension></extensions></trkpt>
<trkpt lat="22.4709827" lon="114.2177629">
<ele>13</ele><time>2023-03-19T09:15:12.998Z</time><extensions><gpxtpx:TrackPointExtension><gpxtpx:hr>115</gpxtpx:hr></gpxtpx:TrackPointExtension></extensions></trkpt>
<trkpt lat="22.4709466" lon="114.2178227">
<ele>13</ele><time>2023-03-19T09:15:15.998Z</time><extensions><gpxtpx:TrackPointExtension><gpxtpx:hr>115</gpxtpx:hr></gpxtpx:TrackPointExtension></extensions></trkpt>
<trkpt lat="22.4709265" lon="114.2178666">
<ele>13</ele><time>2023-03-19T09:15:17.998Z</time><extensions><gpxtpx:TrackPointExtension><gpxtpx:hr>115</gpxtpx:hr></gpxtpx:TrackPointExtension></extensions></trkpt>
<trkpt lat="22.4709011" lon="114.2179371">
<ele>13</ele><time>2023-03-19T09:15:20.998Z</time><extensions><gpxtpx:TrackPointExtension><gpxtpx:hr>115</gpxtpx:hr></gpxtpx:TrackPointExtension></extensions></trkpt>
<trkpt lat="22.4708907" lon="114.2179859">
<ele>13</ele><time>2023-03-19T09:15:23.998Z</time><extensions><gpxtpx:TrackPointExtension><gpxtpx:hr>118</gpxtpx:hr></gpxtpx:TrackPointExtension></extensions></trkpt>
<trkpt lat="22.4708641" lon="114.2180356">
<ele>13</ele><time>2023-03-19T09:15:25.998Z</time><extensions><gpxtpx:TrackPointExtension><gpxtpx:hr>118</gpxtpx:hr></gpxtpx:TrackPointExtension></extensions></trkpt>
<trkpt lat="22.4708464" lon="114.2180895">
<ele>13</ele><time>2023-03-19T09:15:28.998Z</time><extensions><gpxtpx:TrackPointExtension><gpxtpx:hr>118</gpxtpx:hr></gpxtpx:TrackPointExtension></extensions></trkpt>
<trkpt lat="22.4708168" lon="114.2181520">
<ele>13</ele><time>2023-03-19T09:15:35.000Z</time><extensions><gpxtpx:TrackPointExtension><gpxtpx:hr>117</gpxtpx:hr></gpxtpx:TrackPointExtension></extensions></trkpt>
<trkpt lat="22.4707961" lon="114.2182092">
<ele>14</ele><time>2023-03-19T09:15:39.000Z</time><extensions><gpxtpx:TrackPointExtension><gpxtpx:hr>115</gpxtpx:hr></gpxtpx:TrackPointExtension></extensions></trkpt>
<trkpt lat="22.4707577" lon="114.2182379">
<ele>14</ele><time>2023-03-19T09:15:46.999Z</time><extensions><gpxtpx:TrackPointExtension><gpxtpx:hr>117</gpxtpx:hr></gpxtpx:TrackPointExtension></extensions></trkpt>
<trkpt lat="22.4707152" lon="114.2182632">
<ele>14</ele><time>2023-03-19T09:16:39.999Z</time><extensions><gpxtpx:TrackPointExtension><gpxtpx:hr>104</gpxtpx:hr></gpxtpx:TrackPointExtension></extensions></trkpt>
<trkpt lat="22.4707040" lon="114.2183151">
<ele>14</ele><time>2023-03-19T09:16:42.999Z</time><extensions><gpxtpx:TrackPointExtension><gpxtpx:hr>101</gpxtpx:hr></gpxtpx:TrackPointExtension></extensions></trkpt>
<trkpt lat="22.4706931" lon="114.2183856">
<ele>14</ele><time>2023-03-19T09:16:45.998Z</time><extensions><gpxtpx:TrackPointExtension><gpxtpx:hr>101</gpxtpx:hr></gpxtpx:TrackPointExtension></extensions></trkpt>
<trkpt lat="22.4706794" lon="114.2184457">
<ele>14</ele><time>2023-03-19T09:16:48.998Z</time><extensions><gpxtpx:TrackPointExtension><gpxtpx:hr>102</gpxtpx:hr></gpxtpx:TrackPointExtension></extensions></trkpt>
<trkpt lat="22.4706712" lon="114.2185011">
<ele>14</ele><time>2023-03-19T09:16:51.998Z</time><extensions><gpxtpx:TrackPointExtension><gpxtpx:hr>102</gpxtpx:hr></gpxtpx:TrackPointExtension></extensions></trkpt>
<trkpt lat="22.4706613" lon="114.2185508">
<ele>14</ele><time>2023-03-19T09:16:55.998Z</time><extensions><gpxtpx:TrackPointExtension><gpxtpx:hr>104</gpxtpx:hr></gpxtpx:TrackPointExtension></extensions></trkpt>
<trkpt lat="22.4706554" lon="114.2186014">
<ele>14</ele><time>2023-03-19T09:16:59.998Z</time><extensions><gpxtpx:TrackPointExtension><gpxtpx:hr>105</gpxtpx:hr></gpxtpx:TrackPointExtension></extensions></trkpt>
<trkpt lat="22.4706466" lon="114.2186505">
<ele>14</ele><time>2023-03-19T09:17:02.998Z</time><extensions><gpxtpx:TrackPointExtension><gpxtpx:hr>105</gpxtpx:hr></gpxtpx:TrackPointExtension></extensions></trkpt>
<trkpt lat="22.4706468" lon="114.2187101">
<ele>14</ele><time>2023-03-19T09:17:06.998Z</time><extensions><gpxtpx:TrackPointExtension><gpxtpx:hr>105</gpxtpx:hr></gpxtpx:TrackPointExtension></extensions></trkpt>
<trkpt lat="22.4706413" lon="114.2187779">
<ele>14</ele><time>2023-03-19T09:17:10.998Z</time><extensions><gpxtpx:TrackPointExtension><gpxtpx:hr>112</gpxtpx:hr></gpxtpx:TrackPointExtension></extensions></trkpt>
<trkpt lat="22.4706349" lon="114.2188304">
<ele>15</ele><time>2023-03-19T09:17:13.998Z</time><extensions><gpxtpx:TrackPointExtension><gpxtpx:hr>110</gpxtpx:hr></gpxtpx:TrackPointExtension></extensions></trkpt>
<trkpt lat="22.4706245" lon="114.2188922">
<ele>15</ele><time>2023-03-19T09:17:17.998Z</time><extensions><gpxtpx:TrackPointExtension><gpxtpx:hr>111</gpxtpx:hr></gpxtpx:TrackPointExtension></extensions></trkpt>
<trkpt lat="22.4706186" lon="114.2189409">
<ele>15</ele><time>2023-03-19T09:17:20.998Z</time><extensions><gpxtpx:TrackPointExtension><gpxtpx:hr>111</gpxtpx:hr></gpxtpx:TrackPointExtension></extensions></trkpt>
<trkpt lat="22.4706138" lon="114.2189996">
<ele>15</ele><time>2023-03-19T09:17:23.998Z</time><extensions><gpxtpx:TrackPointExtension><gpxtpx:hr>110</gpxtpx:hr></gpxtpx:TrackPointExtension></extensions></trkpt>
<trkpt lat="22.4706097" lon="114.2190576">
<ele>15</ele><time>2023-03-19T09:17:27.998Z</time><extensions><gpxtpx:TrackPointExtension><gpxtpx:hr>111</gpxtpx:hr></gpxtpx:TrackPointExtension></extensions></trkpt>
<trkpt lat="22.4706118" lon="114.2191094">
<ele>15</ele><time>2023-03-19T09:17:39.000Z</time><extensions><gpxtpx:TrackPointExtension><gpxtpx:hr>112</gpxtpx:hr></gpxtpx:TrackPointExtension></extensions></trkpt>
<trkpt lat="22.4705987" lon="114.2191622">
<ele>15</ele><time>2023-03-19T09:17:45.000Z</time><extensions><gpxtpx:TrackPointExtension><gpxtpx:hr>113</gpxtpx:hr></gpxtpx:TrackPointExtension></extensions></trkpt>
<trkpt lat="22.4706053" lon="114.2192211">
<ele>15</ele><time>2023-03-19T09:17:50.000Z</time><extensions><gpxtpx:TrackPointExtension><gpxtpx:hr>113</gpxtpx:hr></gpxtpx:TrackPointExtension></extensions></trkpt>
<trkpt lat="22.4705993" lon="114.2192828">
<ele>16</ele><time>2023-03-19T09:17:54.999Z</time><extensions><gpxtpx:TrackPointExtension><gpxtpx:hr>114</gpxtpx:hr></gpxtpx:TrackPointExtension></extensions></trkpt>
<trkpt lat="22.4706164" lon="114.2193417">
<ele>16</ele><time>2023-03-19T09:17:57.999Z</time><extensions><gpxtpx:TrackPointExtension><gpxtpx:hr>116</gpxtpx:hr></gpxtpx:TrackPointExtension></extensions></trkpt>
<trkpt lat="22.4706615" lon="114.2193885">
<ele>15</ele><time>2023-03-19T09:18:00.999Z</time><extensions><gpxtpx:TrackPointExtension><gpxtpx:hr>116</gpxtpx:hr></gpxtpx:TrackPointExtension></extensions></trkpt>
<trkpt lat="22.4706952" lon="114.2194333">
<ele>15</ele><time>2023-03-19T09:18:02.999Z</time><extensions><gpxtpx:TrackPointExtension><gpxtpx:hr>117</gpxtpx:hr></gpxtpx:TrackPointExtension></extensions></trkpt>
<trkpt lat="22.4707130" lon="114.2194983">
<ele>15</ele><time>2023-03-19T09:18:04.999Z</time><extensions><gpxtpx:TrackPointExtension><gpxtpx:hr>117</gpxtpx:hr></gpxtpx:TrackPointExtension></extensions></trkpt>
<trkpt lat="22.4707045" lon="114.2195668">
<ele>15</ele><time>2023-03-19T09:18:06.999Z</time><extensions><gpxtpx:TrackPointExtension><gpxtpx:hr>117</gpxtpx:hr></gpxtpx:TrackPointExtension></extensions></trkpt>
<trkpt lat="22.4706804" lon="114.2196231">
<ele>15</ele><time>2023-03-19T09:18:08.999Z</time><extensions><gpxtpx:TrackPointExtension><gpxtpx:hr>116</gpxtpx:hr></gpxtpx:TrackPointExtension></extensions></trkpt>
<trkpt lat="22.4706669" lon="114.2196861">
<ele>15</ele><time>2023-03-19T09:18:10.999Z</time><extensions><gpxtpx:TrackPointExtension><gpxtpx:hr>116</gpxtpx:hr></gpxtpx:TrackPointExtension></extensions></trkpt>
<trkpt lat="22.4706492" lon="114.2197534">
<ele>15</ele><time>2023-03-19T09:18:12.999Z</time><extensions><gpxtpx:TrackPointExtension><gpxtpx:hr>113</gpxtpx:hr></gpxtpx:TrackPointExtension></extensions></trkpt>
<trkpt lat="22.4706398" lon="114.2198135">
<ele>15</ele><time>2023-03-19T09:18:14.999Z</time><extensions><gpxtpx:TrackPointExtension><gpxtpx:hr>113</gpxtpx:hr></gpxtpx:TrackPointExtension></extensions></trkpt>
<trkpt lat="22.4706214" lon="114.2198753">
<ele>15</ele><time>2023-03-19T09:18:16.999Z</time><extensions><gpxtpx:TrackPointExtension><gpxtpx:hr>113</gpxtpx:hr></gpxtpx:TrackPointExtension></extensions></trkpt>
<trkpt lat="22.4706150" lon="114.2199424">
<ele>15</ele><time>2023-03-19T09:18:18.999Z</time><extensions><gpxtpx:TrackPointExtension><gpxtpx:hr>114</gpxtpx:hr></gpxtpx:TrackPointExtension></extensions></trkpt>
<trkpt lat="22.4706300" lon="114.2200048">
<ele>15</ele><time>2023-03-19T09:18:20.999Z</time><extensions><gpxtpx:TrackPointExtension><gpxtpx:hr>114</gpxtpx:hr></gpxtpx:TrackPointExtension></extensions></trkpt>
<trkpt lat="22.4706620" lon="114.2200636">
<ele>15</ele><time>2023-03-19T09:18:22.999Z</time><extensions><gpxtpx:TrackPointExtension><gpxtpx:hr>114</gpxtpx:hr></gpxtpx:TrackPointExtension></extensions></trkpt>
<trkpt lat="22.4706730" lon="114.2201334">
<ele>15</ele><time>2023-03-19T09:18:24.999Z</time><extensions><gpxtpx:TrackPointExtension><gpxtpx:hr>114</gpxtpx:hr></gpxtpx:TrackPointExtension></extensions></trkpt>
<trkpt lat="22.4706750" lon="114.2202050">
<ele>15</ele><time>2023-03-19T09:18:26.999Z</time><extensions><gpxtpx:TrackPointExtension><gpxtpx:hr>114</gpxtpx:hr></gpxtpx:TrackPointExtension></extensions></trkpt>
<trkpt lat="22.4706791" lon="114.2202719">
<ele>15</ele><time>2023-03-19T09:18:28.999Z</time><extensions><gpxtpx:TrackPointExtension><gpxtpx:hr>115</gpxtpx:hr></gpxtpx:TrackPointExtension></extensions></trkpt>
<trkpt lat="22.4706823" lon="114.2203483">
<ele>15</ele><time>2023-03-19T09:18:30.999Z</time><extensions><gpxtpx:TrackPointExtension><gpxtpx:hr>115</gpxtpx:hr></gpxtpx:TrackPointExtension></extensions></trkpt>
<trkpt lat="22.4706827" lon="114.2204113">
<ele>15</ele><time>2023-03-19T09:18:32.999Z</time><extensions><gpxtpx:TrackPointExtension><gpxtpx:hr>115</gpxtpx:hr></gpxtpx:TrackPointExtension></extensions></trkpt>
<trkpt lat="22.4706805" lon="114.2204876">
<ele>15</ele><time>2023-03-19T09:18:34.999Z</time><extensions><gpxtpx:TrackPointExtension><gpxtpx:hr>115</gpxtpx:hr></gpxtpx:TrackPointExtension></extensions></trkpt>
<trkpt lat="22.4706929" lon="114.2205547">
<ele>15</ele><time>2023-03-19T09:18:36.999Z</time><extensions><gpxtpx:TrackPointExtension><gpxtpx:hr>115</gpxtpx:hr></gpxtpx:TrackPointExtension></extensions></trkpt>
<trkpt lat="22.4706990" lon="114.2206171">
<ele>15</ele><time>2023-03-19T09:18:38.999Z</time><extensions><gpxtpx:TrackPointExtension><gpxtpx:hr>115</gpxtpx:hr></gpxtpx:TrackPointExtension></extensions></trkpt>
<trkpt lat="22.4706931" lon="114.2206713">
<ele>15</ele><time>2023-03-19T09:18:40.999Z</time><extensions><gpxtpx:TrackPointExtension><gpxtpx:hr>115</gpxtpx:hr></gpxtpx:TrackPointExtension></extensions></trkpt>
<trkpt lat="22.4707042" lon="114.2207418">
<ele>15</ele><time>2023-03-19T09:18:43.999Z</time><extensions><gpxtpx:TrackPointExtension><gpxtpx:hr>112</gpxtpx:hr></gpxtpx:TrackPointExtension></extensions></trkpt>
<trkpt lat="22.4707190" lon="114.2207956">
<ele>15</ele><time>2023-03-19T09:18:45.999Z</time><extensions><gpxtpx:TrackPointExtension><gpxtpx:hr>112</gpxtpx:hr></gpxtpx:TrackPointExtension></extensions></trkpt>
<trkpt lat="22.4707349" lon="114.2208534">
<ele>15</ele><time>2023-03-19T09:18:47.999Z</time><extensions><gpxtpx:TrackPointExtension><gpxtpx:hr>111</gpxtpx:hr></gpxtpx:TrackPointExtension></extensions></trkpt>
<trkpt lat="22.4707507" lon="114.2209072">
<ele>15</ele><time>2023-03-19T09:18:49.999Z</time><extensions><gpxtpx:TrackPointExtension><gpxtpx:hr>111</gpxtpx:hr></gpxtpx:TrackPointExtension></extensions></trkpt>
<trkpt lat="22.4707668" lon="114.2209559">
<ele>15</ele><time>2023-03-19T09:18:51.999Z</time><extensions><gpxtpx:TrackPointExtension><gpxtpx:hr>111</gpxtpx:hr></gpxtpx:TrackPointExtension></extensions></trkpt>
<trkpt lat="22.4707903" lon="114.2210059">
<ele>15</ele><time>2023-03-19T09:18:53.998Z</time><extensions><gpxtpx:TrackPointExtension><gpxtpx:hr>113</gpxtpx:hr></gpxtpx:TrackPointExtension></extensions></trkpt>
<trkpt lat="22.4708053" lon="114.2210619">
<ele>15</ele><time>2023-03-19T09:18:55.998Z</time><extensions><gpxtpx:TrackPointExtension><gpxtpx:hr>113</gpxtpx:hr></gpxtpx:TrackPointExtension></extensions></trkpt>
<trkpt lat="22.4708281" lon="114.2211148">
<ele>15</ele><time>2023-03-19T09:18:57.998Z</time><extensions><gpxtpx:TrackPointExtension><gpxtpx:hr>115</gpxtpx:hr></gpxtpx:TrackPointExtension></extensions></trkpt>
<trkpt lat="22.4708529" lon="114.2211774">
<ele>15</ele><time>2023-03-19T09:18:59.998Z</time><extensions><gpxtpx:TrackPointExtension><gpxtpx:hr>115</gpxtpx:hr></gpxtpx:TrackPointExtension></extensions></trkpt>
<trkpt lat="22.4708688" lon="114.2212381">
<ele>15</ele><time>2023-03-19T09:19:01.998Z</time><extensions><gpxtpx:TrackPointExtension><gpxtpx:hr>115</gpxtpx:hr></gpxtpx:TrackPointExtension></extensions></trkpt>
<trkpt lat="22.4708887" lon="114.2212961">
<ele>15</ele><time>2023-03-19T09:19:03.998Z</time><extensions><gpxtpx:TrackPointExtension><gpxtpx:hr>115</gpxtpx:hr></gpxtpx:TrackPointExtension></extensions></trkpt>
<trkpt lat="22.4709082" lon="114.2213563">
<ele>15</ele><time>2023-03-19T09:19:05.998Z</time><extensions><gpxtpx:TrackPointExtension><gpxtpx:hr>115</gpxtpx:hr></gpxtpx:TrackPointExtension></extensions></trkpt>
<trkpt lat="22.4709314" lon="114.2214100">
<ele>15</ele><time>2023-03-19T09:19:07.998Z</time><extensions><gpxtpx:TrackPointExtension><gpxtpx:hr>116</gpxtpx:hr></gpxtpx:TrackPointExtension></extensions></trkpt>
<trkpt lat="22.4709556" lon="114.2214714">
<ele>15</ele><time>2023-03-19T09:19:09.998Z</time><extensions><gpxtpx:TrackPointExtension><gpxtpx:hr>116</gpxtpx:hr></gpxtpx:TrackPointExtension></extensions></trkpt>
<trkpt lat="22.4709825" lon="114.2215291">
<ele>15</ele><time>2023-03-19T09:19:11.998Z</time><extensions><gpxtpx:TrackPointExtension><gpxtpx:hr>116</gpxtpx:hr></gpxtpx:TrackPointExtension></extensions></trkpt>
<trkpt lat="22.4710031" lon="114.2215837">
<ele>15</ele><time>2023-03-19T09:19:13.998Z</time><extensions><gpxtpx:TrackPointExtension><gpxtpx:hr>116</gpxtpx:hr></gpxtpx:TrackPointExtension></extensions></trkpt>
<trkpt lat="22.4710289" lon="114.2216451">
<ele>15</ele><time>2023-03-19T09:19:15.998Z</time><extensions><gpxtpx:TrackPointExtension><gpxtpx:hr>116</gpxtpx:hr></gpxtpx:TrackPointExtension></extensions></trkpt>
<trkpt lat="22.4710530" lon="114.2217012">
<ele>15</ele><time>2023-03-19T09:19:17.998Z</time><extensions><gpxtpx:TrackPointExtension><gpxtpx:hr>116</gpxtpx:hr></gpxtpx:TrackPointExtension></extensions></trkpt>
<trkpt lat="22.4710686" lon="114.2217572">
<ele>15</ele><time>2023-03-19T09:19:19.998Z</time><extensions><gpxtpx:TrackPointExtension><gpxtpx:hr>116</gpxtpx:hr></gpxtpx:TrackPointExtension></extensions></trkpt>
<trkpt lat="22.4710990" lon="114.2218182">
<ele>15</ele><time>2023-03-19T09:19:21.998Z</time><extensions><gpxtpx:TrackPointExtension><gpxtpx:hr>116</gpxtpx:hr></gpxtpx:TrackPointExtension></extensions></trkpt>
<trkpt lat="22.4711231" lon="114.2218884">
<ele>15</ele><time>2023-03-19T09:19:23.998Z</time><extensions><gpxtpx:TrackPointExtension><gpxtpx:hr>115</gpxtpx:hr></gpxtpx:TrackPointExtension></extensions></trkpt>
<trkpt lat="22.4711553" lon="114.2219509">
<ele>15</ele><time>2023-03-19T09:19:25.998Z</time><extensions><gpxtpx:TrackPointExtension><gpxtpx:hr>115</gpxtpx:hr></gpxtpx:TrackPointExtension></extensions></trkpt>
<trkpt lat="22.4711751" lon="114.2220161">
<ele>15</ele><time>2023-03-19T09:19:27.998Z</time><extensions><gpxtpx:TrackPointExtension><gpxtpx:hr>115</gpxtpx:hr></gpxtpx:TrackPointExtension></extensions></trkpt>
<trkpt lat="22.4711988" lon="114.2220717">
<ele>15</ele><time>2023-03-19T09:19:29.998Z</time><extensions><gpxtpx:TrackPointExtension><gpxtpx:hr>115</gpxtpx:hr></gpxtpx:TrackPointExtension></extensions></trkpt>
<trkpt lat="22.4712259" lon="114.2221259">
<ele>15</ele><time>2023-03-19T09:19:31.998Z</time><extensions><gpxtpx:TrackPointExtension><gpxtpx:hr>115</gpxtpx:hr></gpxtpx:TrackPointExtension></extensions></trkpt>
<trkpt lat="22.4712413" lon="114.2221822">
<ele>15</ele><time>2023-03-19T09:19:33.998Z</time><extensions><gpxtpx:TrackPointExtension><gpxtpx:hr>115</gpxtpx:hr></gpxtpx:TrackPointExtension></extensions></trkpt>
<trkpt lat="22.4712598" lon="114.2222328">
<ele>15</ele><time>2023-03-19T09:19:35.998Z</time><extensions><gpxtpx:TrackPointExtension><gpxtpx:hr>115</gpxtpx:hr></gpxtpx:TrackPointExtension></extensions></trkpt>
<trkpt lat="22.4712808" lon="114.2222791">
<ele>15</ele><time>2023-03-19T09:19:37.998Z</time><extensions><gpxtpx:TrackPointExtension><gpxtpx:hr>114</gpxtpx:hr></gpxtpx:TrackPointExtension></extensions></trkpt>
<trkpt lat="22.4712998" lon="114.2223292">
<ele>15</ele><time>2023-03-19T09:19:40.998Z</time><extensions><gpxtpx:TrackPointExtension><gpxtpx:hr>114</gpxtpx:hr></gpxtpx:TrackPointExtension></extensions></trkpt>
<trkpt lat="22.4713265" lon="114.2223785">
<ele>15</ele><time>2023-03-19T09:19:44.000Z</time><extensions><gpxtpx:TrackPointExtension><gpxtpx:hr>114</gpxtpx:hr></gpxtpx:TrackPointExtension></extensions></trkpt>
<trkpt lat="22.4713500" lon="114.2224327">
<ele>15</ele><time>2023-03-19T09:19:46.000Z</time><extensions><gpxtpx:TrackPointExtension><gpxtpx:hr>114</gpxtpx:hr></gpxtpx:TrackPointExtension></extensions></trkpt>
<trkpt lat="22.4713606" lon="114.2224992">
<ele>15</ele><time>2023-03-19T09:19:48.000Z</time><extensions><gpxtpx:TrackPointExtension><gpxtpx:hr>113</gpxtpx:hr></gpxtpx:TrackPointExtension></extensions></trkpt>
<trkpt lat="22.4713814" lon="114.2225511">
<ele>15</ele><time>2023-03-19T09:19:50.000Z</time><extensions><gpxtpx:TrackPointExtension><gpxtpx:hr>113</gpxtpx:hr></gpxtpx:TrackPointExtension></extensions></trkpt>
<trkpt lat="22.4714048" lon="114.2226118">
<ele>15</ele><time>2023-03-19T09:19:52.000Z</time><extensions><gpxtpx:TrackPointExtension><gpxtpx:hr>113</gpxtpx:hr></gpxtpx:TrackPointExtension></extensions></trkpt>
<trkpt lat="22.4714228" lon="114.2226748">
<ele>15</ele><time>2023-03-19T09:19:54.000Z</time><extensions><gpxtpx:TrackPointExtension><gpxtpx:hr>114</gpxtpx:hr></gpxtpx:TrackPointExtension></extensions></trkpt>
<trkpt lat="22.4714352" lon="114.2227329">
<ele>15</ele><time>2023-03-19T09:19:56.000Z</time><extensions><gpxtpx:TrackPointExtension><gpxtpx:hr>114</gpxtpx:hr></gpxtpx:TrackPointExtension></extensions></trkpt>
<trkpt lat="22.4714652" lon="114.2228036">
<ele>15</ele><time>2023-03-19T09:19:58.000Z</time><extensions><gpxtpx:TrackPointExtension><gpxtpx:hr>116</gpxtpx:hr></gpxtpx:TrackPointExtension></extensions></trkpt>
<trkpt lat="22.4714869" lon="114.2228578">
<ele>15</ele><time>2023-03-19T09:19:59.999Z</time><extensions><gpxtpx:TrackPointExtension><gpxtpx:hr>116</gpxtpx:hr></gpxtpx:TrackPointExtension></extensions></trkpt>
<trkpt lat="22.4715096" lon="114.2229214">
<ele>14</ele><time>2023-03-19T09:20:01.999Z</time><extensions><gpxtpx:TrackPointExtension><gpxtpx:hr>116</gpxtpx:hr></gpxtpx:TrackPointExtension></extensions></trkpt>
<trkpt lat="22.4715171" lon="114.2229794">
<ele>14</ele><time>2023-03-19T09:20:03.999Z</time><extensions><gpxtpx:TrackPointExtension><gpxtpx:hr>115</gpxtpx:hr></gpxtpx:TrackPointExtension></extensions></trkpt>
<trkpt lat="22.4715340" lon="114.2230426">
<ele>14</ele><time>2023-03-19T09:20:05.999Z</time><extensions><gpxtpx:TrackPointExtension><gpxtpx:hr>115</gpxtpx:hr></gpxtpx:TrackPointExtension></extensions></trkpt>
<trkpt lat="22.4715386" lon="114.2231225">
<ele>14</ele><time>2023-03-19T09:20:07.999Z</time><extensions><gpxtpx:TrackPointExtension><gpxtpx:hr>114</gpxtpx:hr></gpxtpx:TrackPointExtension></extensions></trkpt>
<trkpt lat="22.4715494" lon="114.2232080">
<ele>14</ele><time>2023-03-19T09:20:09.999Z</time><extensions><gpxtpx:TrackPointExtension><gpxtpx:hr>114</gpxtpx:hr></gpxtpx:TrackPointExtension></extensions></trkpt>
<trkpt lat="22.4715581" lon="114.2232846">
<ele>14</ele><time>2023-03-19T09:20:11.999Z</time><extensions><gpxtpx:TrackPointExtension><gpxtpx:hr>114</gpxtpx:hr></gpxtpx:TrackPointExtension></extensions></trkpt>
<trkpt lat="22.4715696" lon="114.2233319">
<ele>14</ele><time>2023-03-19T09:20:12.999Z</time><extensions><gpxtpx:TrackPointExtension><gpxtpx:hr>112</gpxtpx:hr></gpxtpx:TrackPointExtension></extensions></trkpt>
<trkpt lat="22.4715739" lon="114.2233822">
<ele>14</ele><time>2023-03-19T09:20:13.999Z</time><extensions><gpxtpx:TrackPointExtension><gpxtpx:hr>112</gpxtpx:hr></gpxtpx:TrackPointExtension></extensions></trkpt>
<trkpt lat="22.4715824" lon="114.2234551">
<ele>14</ele><time>2023-03-19T09:20:15.999Z</time><extensions><gpxtpx:TrackPointExtension><gpxtpx:hr>112</gpxtpx:hr></gpxtpx:TrackPointExtension></extensions></trkpt>
<trkpt lat="22.4715938" lon="114.2235378">
<ele>14</ele><time>2023-03-19T09:20:17.999Z</time><extensions><gpxtpx:TrackPointExtension><gpxtpx:hr>112</gpxtpx:hr></gpxtpx:TrackPointExtension></extensions></trkpt>
<trkpt lat="22.4716018" lon="114.2236302">
<ele>14</ele><time>2023-03-19T09:20:19.999Z</time><extensions><gpxtpx:TrackPointExtension><gpxtpx:hr>112</gpxtpx:hr></gpxtpx:TrackPointExtension></extensions></trkpt>
<trkpt lat="22.4716137" lon="114.2237076">
<ele>13</ele><time>2023-03-19T09:20:21.999Z</time><extensions><gpxtpx:TrackPointExtension><gpxtpx:hr>112</gpxtpx:hr></gpxtpx:TrackPointExtension></extensions></trkpt>
<trkpt lat="22.4716145" lon="114.2237628">
<ele>13</ele><time>2023-03-19T09:20:22.999Z</time><extensions><gpxtpx:TrackPointExtension><gpxtpx:hr>112</gpxtpx:hr></gpxtpx:TrackPointExtension></extensions></trkpt>
<trkpt lat="22.4716268" lon="114.2238225">
<ele>13</ele><time>2023-03-19T09:20:23.999Z</time><extensions><gpxtpx:TrackPointExtension><gpxtpx:hr>112</gpxtpx:hr></gpxtpx:TrackPointExtension></extensions></trkpt>
<trkpt lat="22.4716304" lon="114.2239275">
<ele>13</ele><time>2023-03-19T09:20:25.999Z</time><extensions><gpxtpx:TrackPointExtension><gpxtpx:hr>112</gpxtpx:hr></gpxtpx:TrackPointExtension></extensions></trkpt>
<trkpt lat="22.4716470" lon="114.2239919">
<ele>13</ele><time>2023-03-19T09:20:26.999Z</time><extensions><gpxtpx:TrackPointExtension><gpxtpx:hr>112</gpxtpx:hr></gpxtpx:TrackPointExtension></extensions></trkpt>
<trkpt lat="22.4716558" lon="114.2240450">
<ele>13</ele><time>2023-03-19T09:20:27.999Z</time><extensions><gpxtpx:TrackPointExtension><gpxtpx:hr>112</gpxtpx:hr></gpxtpx:TrackPointExtension></extensions></trkpt>
<trkpt lat="22.4716561" lon="114.2240967">
<ele>13</ele><time>2023-03-19T09:20:28.999Z</time><extensions><gpxtpx:TrackPointExtension><gpxtpx:hr>112</gpxtpx:hr></gpxtpx:TrackPointExtension></extensions></trkpt>
<trkpt lat="22.4716485" lon="114.2241558">
<ele>13</ele><time>2023-03-19T09:20:29.999Z</time><extensions><gpxtpx:TrackPointExtension><gpxtpx:hr>112</gpxtpx:hr></gpxtpx:TrackPointExtension></extensions></trkpt>
<trkpt lat="22.4716578" lon="114.2242128">
<ele>13</ele><time>2023-03-19T09:20:30.999Z</time><extensions><gpxtpx:TrackPointExtension><gpxtpx:hr>112</gpxtpx:hr></gpxtpx:TrackPointExtension></extensions></trkpt>
<trkpt lat="22.4716786" lon="114.2243166">
<ele>13</ele><time>2023-03-19T09:20:32.999Z</time><extensions><gpxtpx:TrackPointExtension><gpxtpx:hr>112</gpxtpx:hr></gpxtpx:TrackPointExtension></extensions></trkpt>
<trkpt lat="22.4716764" lon="114.2244062">
<ele>13</ele><time>2023-03-19T09:20:34.999Z</time><extensions><gpxtpx:TrackPointExtension><gpxtpx:hr>112</gpxtpx:hr></gpxtpx:TrackPointExtension></extensions></trkpt>
<trkpt lat="22.4716900" lon="114.2244841">
<ele>12</ele><time>2023-03-19T09:20:35.999Z</time><extensions><gpxtpx:TrackPointExtension><gpxtpx:hr>112</gpxtpx:hr></gpxtpx:TrackPointExtension></extensions></trkpt>
<trkpt lat="22.4717003" lon="114.2245634">
<ele>12</ele><time>2023-03-19T09:20:36.999Z</time><extensions><gpxtpx:TrackPointExtension><gpxtpx:hr>112</gpxtpx:hr></gpxtpx:TrackPointExtension></extensions></trkpt>
<trkpt lat="22.4717039" lon="114.2246246">
<ele>12</ele><time>2023-03-19T09:20:37.999Z</time><extensions><gpxtpx:TrackPointExtension><gpxtpx:hr>112</gpxtpx:hr></gpxtpx:TrackPointExtension></extensions></trkpt>
<trkpt lat="22.4717023" lon="114.2246842">
<ele>12</ele><time>2023-03-19T09:20:38.999Z</time><extensions><gpxtpx:TrackPointExtension><gpxtpx:hr>112</gpxtpx:hr></gpxtpx:TrackPointExtension></extensions></trkpt>
<trkpt lat="22.4717066" lon="114.2247450">
<ele>12</ele><time>2023-03-19T09:20:39.999Z</time><extensions><gpxtpx:TrackPointExtension><gpxtpx:hr>112</gpxtpx:hr></gpxtpx:TrackPointExtension></extensions></trkpt>
<trkpt lat="22.4717091" lon="114.2248011">
<ele>12</ele><time>2023-03-19T09:20:40.999Z</time><extensions><gpxtpx:TrackPointExtension><gpxtpx:hr>112</gpxtpx:hr></gpxtpx:TrackPointExtension></extensions></trkpt>
<trkpt lat="22.4717155" lon="114.2248642">
<ele>12</ele><time>2023-03-19T09:20:41.999Z</time><extensions><gpxtpx:TrackPointExtension><gpxtpx:hr>112</gpxtpx:hr></gpxtpx:TrackPointExtension></extensions></trkpt>
<trkpt lat="22.4717191" lon="114.2249171">
<ele>12</ele><time>2023-03-19T09:20:42.999Z</time><extensions><gpxtpx:TrackPointExtension><gpxtpx:hr>112</gpxtpx:hr></gpxtpx:TrackPointExtension></extensions></trkpt>
<trkpt lat="22.4717278" lon="114.2250027">
<ele>12</ele><time>2023-03-19T09:20:44.999Z</time><extensions><gpxtpx:TrackPointExtension><gpxtpx:hr>112</gpxtpx:hr></gpxtpx:TrackPointExtension></extensions></trkpt>
<trkpt lat="22.4717343" lon="114.2250909">
<ele>12</ele><time>2023-03-19T09:20:46.999Z</time><extensions><gpxtpx:TrackPointExtension><gpxtpx:hr>112</gpxtpx:hr></gpxtpx:TrackPointExtension></extensions></trkpt>
<trkpt lat="22.4717368" lon="114.2251429">
<ele>12</ele><time>2023-03-19T09:20:47.999Z</time><extensions><gpxtpx:TrackPointExtension><gpxtpx:hr>112</gpxtpx:hr></gpxtpx:TrackPointExtension></extensions></trkpt>
<trkpt lat="22.4717506" lon="114.2252271">
<ele>12</ele><time>2023-03-19T09:20:49.999Z</time><extensions><gpxtpx:TrackPointExtension><gpxtpx:hr>112</gpxtpx:hr></gpxtpx:TrackPointExtension></extensions></trkpt>
<trkpt lat="22.4717482" lon="114.2253183">
<ele>12</ele><time>2023-03-19T09:20:51.999Z</time><extensions><gpxtpx:TrackPointExtension><gpxtpx:hr>112</gpxtpx:hr></gpxtpx:TrackPointExtension></extensions></trkpt>
<trkpt lat="22.4717597" lon="114.2253705">
<ele>12</ele><time>2023-03-19T09:20:52.999Z</time><extensions><gpxtpx:TrackPointExtension><gpxtpx:hr>112</gpxtpx:hr></gpxtpx:TrackPointExtension></extensions></trkpt>
<trkpt lat="22.4717588" lon="114.2254445">
<ele>12</ele><time>2023-03-19T09:20:54.999Z</time><extensions><gpxtpx:TrackPointExtension><gpxtpx:hr>112</gpxtpx:hr></gpxtpx:TrackPointExtension></extensions></trkpt>
<trkpt lat="22.4717553" lon="114.2255208">
<ele>11</ele><time>2023-03-19T09:20:56.998Z</time><extensions><gpxtpx:TrackPointExtension><gpxtpx:hr>112</gpxtpx:hr></gpxtpx:TrackPointExtension></extensions></trkpt>
<trkpt lat="22.4717809" lon="114.2255660">
<ele>11</ele><time>2023-03-19T09:20:57.998Z</time><extensions><gpxtpx:TrackPointExtension><gpxtpx:hr>110</gpxtpx:hr></gpxtpx:TrackPointExtension></extensions></trkpt>
<trkpt lat="22.4717837" lon="114.2256467">
<ele>11</ele><time>2023-03-19T09:20:59.998Z</time><extensions><gpxtpx:TrackPointExtension><gpxtpx:hr>110</gpxtpx:hr></gpxtpx:TrackPointExtension></extensions></trkpt>
<trkpt lat="22.4717837" lon="114.2257019">
<ele>11</ele><time>2023-03-19T09:21:01.998Z</time><extensions><gpxtpx:TrackPointExtension><gpxtpx:hr>110</gpxtpx:hr></gpxtpx:TrackPointExtension></extensions></trkpt>
<trkpt lat="22.4717876" lon="114.2257509">
<ele>11</ele><time>2023-03-19T09:21:03.998Z</time><extensions><gpxtpx:TrackPointExtension><gpxtpx:hr>110</gpxtpx:hr></gpxtpx:TrackPointExtension></extensions></trkpt>
<trkpt lat="22.4717851" lon="114.2258162">
<ele>11</ele><time>2023-03-19T09:21:06.998Z</time><extensions><gpxtpx:TrackPointExtension><gpxtpx:hr>110</gpxtpx:hr></gpxtpx:TrackPointExtension></extensions></trkpt>
<trkpt lat="22.4717908" lon="114.2258881">
<ele>11</ele><time>2023-03-19T09:21:09.998Z</time><extensions><gpxtpx:TrackPointExtension><gpxtpx:hr>111</gpxtpx:hr></gpxtpx:TrackPointExtension></extensions></trkpt>
<trkpt lat="22.4718005" lon="114.2259449">
<ele>11</ele><time>2023-03-19T09:21:11.998Z</time><extensions><gpxtpx:TrackPointExtension><gpxtpx:hr>111</gpxtpx:hr></gpxtpx:TrackPointExtension></extensions></trkpt>
<trkpt lat="22.4718033" lon="114.2260047">
<ele>11</ele><time>2023-03-19T09:21:14.998Z</time><extensions><gpxtpx:TrackPointExtension><gpxtpx:hr>112</gpxtpx:hr></gpxtpx:TrackPointExtension></extensions></trkpt>
<trkpt lat="22.4718124" lon="114.2260601">
<ele>11</ele><time>2023-03-19T09:21:17.998Z</time><extensions><gpxtpx:TrackPointExtension><gpxtpx:hr>112</gpxtpx:hr></gpxtpx:TrackPointExtension></extensions></trkpt>
<trkpt lat="22.4718152" lon="114.2261087">
<ele>11</ele><time>2023-03-19T09:21:20.998Z</time><extensions><gpxtpx:TrackPointExtension><gpxtpx:hr>112</gpxtpx:hr></gpxtpx:TrackPointExtension></extensions></trkpt>
<trkpt lat="22.4718175" lon="114.2261593">
<ele>11</ele><time>2023-03-19T09:21:24.998Z</time><extensions><gpxtpx:TrackPointExtension><gpxtpx:hr>111</gpxtpx:hr></gpxtpx:TrackPointExtension></extensions></trkpt>
<trkpt lat="22.4718138" lon="114.2262340">
<ele>11</ele><time>2023-03-19T09:21:27.998Z</time><extensions><gpxtpx:TrackPointExtension><gpxtpx:hr>110</gpxtpx:hr></gpxtpx:TrackPointExtension></extensions></trkpt>
<trkpt lat="22.4718073" lon="114.2263100">
<ele>11</ele><time>2023-03-19T09:21:29.998Z</time><extensions><gpxtpx:TrackPointExtension><gpxtpx:hr>110</gpxtpx:hr></gpxtpx:TrackPointExtension></extensions></trkpt>
<trkpt lat="22.4718046" lon="114.2263984">
<ele>12</ele><time>2023-03-19T09:21:31.998Z</time><extensions><gpxtpx:TrackPointExtension><gpxtpx:hr>110</gpxtpx:hr></gpxtpx:TrackPointExtension></extensions></trkpt>
<trkpt lat="22.4718171" lon="114.2264936">
<ele>12</ele><time>2023-03-19T09:21:33.998Z</time><extensions><gpxtpx:TrackPointExtension><gpxtpx:hr>111</gpxtpx:hr></gpxtpx:TrackPointExtension></extensions></trkpt>
<trkpt lat="22.4718293" lon="114.2265485">
<ele>12</ele><time>2023-03-19T09:21:34.998Z</time><extensions><gpxtpx:TrackPointExtension><gpxtpx:hr>111</gpxtpx:hr></gpxtpx:TrackPointExtension></extensions></trkpt>
<trkpt lat="22.4718373" lon="114.2266395">
<ele>11</ele><time>2023-03-19T09:21:36.998Z</time><extensions><gpxtpx:TrackPointExtension><gpxtpx:hr>111</gpxtpx:hr></gpxtpx:TrackPointExtension></extensions></trkpt>
<trkpt lat="22.4718402" lon="114.2267314">
<ele>11</ele><time>2023-03-19T09:21:38.998Z</time><extensions><gpxtpx:TrackPointExtension><gpxtpx:hr>112</gpxtpx:hr></gpxtpx:TrackPointExtension></extensions></trkpt>
<trkpt lat="22.4718479" lon="114.2268171">
<ele>11</ele><time>2023-03-19T09:21:40.998Z</time><extensions><gpxtpx:TrackPointExtension><gpxtpx:hr>112</gpxtpx:hr></gpxtpx:TrackPointExtension></extensions></trkpt>
<trkpt lat="22.4718522" lon="114.2268941">
<ele>11</ele><time>2023-03-19T09:21:42.998Z</time><extensions><gpxtpx:TrackPointExtension><gpxtpx:hr>115</gpxtpx:hr></gpxtpx:TrackPointExtension></extensions></trkpt>
<trkpt lat="22.4718581" lon="114.2269532">
<ele>11</ele><time>2023-03-19T09:21:44.998Z</time><extensions><gpxtpx:TrackPointExtension><gpxtpx:hr>115</gpxtpx:hr></gpxtpx:TrackPointExtension></extensions></trkpt>
<trkpt lat="22.4718587" lon="114.2270051">
<ele>11</ele><time>2023-03-19T09:21:46.998Z</time><extensions><gpxtpx:TrackPointExtension><gpxtpx:hr>115</gpxtpx:hr></gpxtpx:TrackPointExtension></extensions></trkpt>
<trkpt lat="22.4718663" lon="114.2270613">
<ele>11</ele><time>2023-03-19T09:21:48.998Z</time><extensions><gpxtpx:TrackPointExtension><gpxtpx:hr>112</gpxtpx:hr></gpxtpx:TrackPointExtension></extensions></trkpt>
<trkpt lat="22.4718699" lon="114.2271171">
<ele>11</ele><time>2023-03-19T09:21:50.999Z</time><extensions><gpxtpx:TrackPointExtension><gpxtpx:hr>112</gpxtpx:hr></gpxtpx:TrackPointExtension></extensions></trkpt>
<trkpt lat="22.4718777" lon="114.2271699">
<ele>11</ele><time>2023-03-19T09:21:52.999Z</time><extensions><gpxtpx:TrackPointExtension><gpxtpx:hr>110</gpxtpx:hr></gpxtpx:TrackPointExtension></extensions></trkpt>
<trkpt lat="22.4718858" lon="114.2272253">
<ele>11</ele><time>2023-03-19T09:21:54.999Z</time><extensions><gpxtpx:TrackPointExtension><gpxtpx:hr>110</gpxtpx:hr></gpxtpx:TrackPointExtension></extensions></trkpt>
<trkpt lat="22.4718880" lon="114.2272786">
<ele>11</ele><time>2023-03-19T09:21:56.999Z</time><extensions><gpxtpx:TrackPointExtension><gpxtpx:hr>110</gpxtpx:hr></gpxtpx:TrackPointExtension></extensions></trkpt>
<trkpt lat="22.4718999" lon="114.2273518">
<ele>11</ele><time>2023-03-19T09:21:58.999Z</time><extensions><gpxtpx:TrackPointExtension><gpxtpx:hr>110</gpxtpx:hr></gpxtpx:TrackPointExtension></extensions></trkpt>
<trkpt lat="22.4719055" lon="114.2274194">
<ele>11</ele><time>2023-03-19T09:22:00.999Z</time><extensions><gpxtpx:TrackPointExtension><gpxtpx:hr>110</gpxtpx:hr></gpxtpx:TrackPointExtension></extensions></trkpt>
<trkpt lat="22.4719140" lon="114.2274886">
<ele>11</ele><time>2023-03-19T09:22:02.999Z</time><extensions><gpxtpx:TrackPointExtension><gpxtpx:hr>108</gpxtpx:hr></gpxtpx:TrackPointExtension></extensions></trkpt>
<trkpt lat="22.4719230" lon="114.2275691">
<ele>11</ele><time>2023-03-19T09:22:04.999Z</time><extensions><gpxtpx:TrackPointExtension><gpxtpx:hr>108</gpxtpx:hr></gpxtpx:TrackPointExtension></extensions></trkpt>
<trkpt lat="22.4719327" lon="114.2276485">
<ele>11</ele><time>2023-03-19T09:22:06.999Z</time><extensions><gpxtpx:TrackPointExtension><gpxtpx:hr>108</gpxtpx:hr></gpxtpx:TrackPointExtension></extensions></trkpt>
<trkpt lat="22.4719499" lon="114.2277258">
<ele>11</ele><time>2023-03-19T09:22:08.999Z</time><extensions><gpxtpx:TrackPointExtension><gpxtpx:hr>108</gpxtpx:hr></gpxtpx:TrackPointExtension></extensions></trkpt>
<trkpt lat="22.4719654" lon="114.2278054">
<ele>11</ele><time>2023-03-19T09:22:10.999Z</time><extensions><gpxtpx:TrackPointExtension><gpxtpx:hr>108</gpxtpx:hr></gpxtpx:TrackPointExtension></extensions></trkpt>
<trkpt lat="22.4719748" lon="114.2278620">
<ele>11</ele><time>2023-03-19T09:22:12.999Z</time><extensions><gpxtpx:TrackPointExtension><gpxtpx:hr>108</gpxtpx:hr></gpxtpx:TrackPointExtension></extensions></trkpt>
<trkpt lat="22.4719856" lon="114.2279338">
<ele>11</ele><time>2023-03-19T09:22:14.999Z</time><extensions><gpxtpx:TrackPointExtension><gpxtpx:hr>108</gpxtpx:hr></gpxtpx:TrackPointExtension></extensions></trkpt>
<trkpt lat="22.4719968" lon="114.2280145">
<ele>11</ele><time>2023-03-19T09:22:16.999Z</time><extensions><gpxtpx:TrackPointExtension><gpxtpx:hr>108</gpxtpx:hr></gpxtpx:TrackPointExtension></extensions></trkpt>
<trkpt lat="22.4720070" lon="114.2280807">
<ele>11</ele><time>2023-03-19T09:22:18.999Z</time><extensions><gpxtpx:TrackPointExtension><gpxtpx:hr>108</gpxtpx:hr></gpxtpx:TrackPointExtension></extensions></trkpt>
<trkpt lat="22.4720195" lon="114.2281457">
<ele>11</ele><time>2023-03-19T09:22:20.999Z</time><extensions><gpxtpx:TrackPointExtension><gpxtpx:hr>108</gpxtpx:hr></gpxtpx:TrackPointExtension></extensions></trkpt>
<trkpt lat="22.4720300" lon="114.2282114">
<ele>11</ele><time>2023-03-19T09:22:22.999Z</time><extensions><gpxtpx:TrackPointExtension><gpxtpx:hr>110</gpxtpx:hr></gpxtpx:TrackPointExtension></extensions></trkpt>
<trkpt lat="22.4720384" lon="114.2282777">
<ele>11</ele><time>2023-03-19T09:22:24.999Z</time><extensions><gpxtpx:TrackPointExtension><gpxtpx:hr>110</gpxtpx:hr></gpxtpx:TrackPointExtension></extensions></trkpt>
<trkpt lat="22.4720530" lon="114.2283401">
<ele>11</ele><time>2023-03-19T09:22:26.999Z</time><extensions><gpxtpx:TrackPointExtension><gpxtpx:hr>110</gpxtpx:hr></gpxtpx:TrackPointExtension></extensions></trkpt>
<trkpt lat="22.4720627" lon="114.2283955">
<ele>11</ele><time>2023-03-19T09:22:28.999Z</time><extensions><gpxtpx:TrackPointExtension><gpxtpx:hr>107</gpxtpx:hr></gpxtpx:TrackPointExtension></extensions></trkpt>
<trkpt lat="22.4720720" lon="114.2284624">
<ele>11</ele><time>2023-03-19T09:22:30.999Z</time><extensions><gpxtpx:TrackPointExtension><gpxtpx:hr>107</gpxtpx:hr></gpxtpx:TrackPointExtension></extensions></trkpt>
<trkpt lat="22.4720828" lon="114.2285203">
<ele>11</ele><time>2023-03-19T09:22:32.999Z</time><extensions><gpxtpx:TrackPointExtension><gpxtpx:hr>108</gpxtpx:hr></gpxtpx:TrackPointExtension></extensions></trkpt>
<trkpt lat="22.4720905" lon="114.2285790">
<ele>11</ele><time>2023-03-19T09:22:34.999Z</time><extensions><gpxtpx:TrackPointExtension><gpxtpx:hr>108</gpxtpx:hr></gpxtpx:TrackPointExtension></extensions></trkpt>
<trkpt lat="22.4721033" lon="114.2286360">
<ele>11</ele><time>2023-03-19T09:22:36.999Z</time><extensions><gpxtpx:TrackPointExtension><gpxtpx:hr>108</gpxtpx:hr></gpxtpx:TrackPointExtension></extensions></trkpt>
<trkpt lat="22.4721109" lon="114.2287043">
<ele>11</ele><time>2023-03-19T09:22:38.999Z</time><extensions><gpxtpx:TrackPointExtension><gpxtpx:hr>109</gpxtpx:hr></gpxtpx:TrackPointExtension></extensions></trkpt>
<trkpt lat="22.4721216" lon="114.2287706">
<ele>11</ele><time>2023-03-19T09:22:40.999Z</time><extensions><gpxtpx:TrackPointExtension><gpxtpx:hr>109</gpxtpx:hr></gpxtpx:TrackPointExtension></extensions></trkpt>
<trkpt lat="22.4721290" lon="114.2288276">
<ele>11</ele><time>2023-03-19T09:22:42.999Z</time><extensions><gpxtpx:TrackPointExtension><gpxtpx:hr>108</gpxtpx:hr></gpxtpx:TrackPointExtension></extensions></trkpt>
<trkpt lat="22.4721363" lon="114.2288846">
<ele>11</ele><time>2023-03-19T09:22:44.999Z</time><extensions><gpxtpx:TrackPointExtension><gpxtpx:hr>108</gpxtpx:hr></gpxtpx:TrackPointExtension></extensions></trkpt>
<trkpt lat="22.4721438" lon="114.2289391">
<ele>11</ele><time>2023-03-19T09:22:46.999Z</time><extensions><gpxtpx:TrackPointExtension><gpxtpx:hr>108</gpxtpx:hr></gpxtpx:TrackPointExtension></extensions></trkpt>
<trkpt lat="22.4721572" lon="114.2290014">
<ele>11</ele><time>2023-03-19T09:22:48.999Z</time><extensions><gpxtpx:TrackPointExtension><gpxtpx:hr>107</gpxtpx:hr></gpxtpx:TrackPointExtension></extensions></trkpt>
<trkpt lat="22.4721707" lon="114.2290716">
<ele>11</ele><time>2023-03-19T09:22:50.999Z</time><extensions><gpxtpx:TrackPointExtension><gpxtpx:hr>107</gpxtpx:hr></gpxtpx:TrackPointExtension></extensions></trkpt>
<trkpt lat="22.4721890" lon="114.2291488">
<ele>11</ele><time>2023-03-19T09:22:52.999Z</time><extensions><gpxtpx:TrackPointExtension><gpxtpx:hr>108</gpxtpx:hr></gpxtpx:TrackPointExtension></extensions></trkpt>
<trkpt lat="22.4721955" lon="114.2292248">
<ele>11</ele><time>2023-03-19T09:22:54.999Z</time><extensions><gpxtpx:TrackPointExtension><gpxtpx:hr>108</gpxtpx:hr></gpxtpx:TrackPointExtension></extensions></trkpt>
<trkpt lat="22.4722051" lon="114.2292939">
<ele>11</ele><time>2023-03-19T09:22:56.999Z</time><extensions><gpxtpx:TrackPointExtension><gpxtpx:hr>108</gpxtpx:hr></gpxtpx:TrackPointExtension></extensions></trkpt>
<trkpt lat="22.4722185" lon="114.2293766">
<ele>11</ele><time>2023-03-19T09:22:58.999Z</time><extensions><gpxtpx:TrackPointExtension><gpxtpx:hr>107</gpxtpx:hr></gpxtpx:TrackPointExtension></extensions></trkpt>
<trkpt lat="22.4722346" lon="114.2294658">
<ele>11</ele><time>2023-03-19T09:23:00.999Z</time><extensions><gpxtpx:TrackPointExtension><gpxtpx:hr>107</gpxtpx:hr></gpxtpx:TrackPointExtension></extensions></trkpt>
<trkpt lat="22.4722551" lon="114.2295521">
<ele>11</ele><time>2023-03-19T09:23:02.999Z</time><extensions><gpxtpx:TrackPointExtension><gpxtpx:hr>106</gpxtpx:hr></gpxtpx:TrackPointExtension></extensions></trkpt>
<trkpt lat="22.4722586" lon="114.2296262">
<ele>11</ele><time>2023-03-19T09:23:04.998Z</time><extensions><gpxtpx:TrackPointExtension><gpxtpx:hr>106</gpxtpx:hr></gpxtpx:TrackPointExtension></extensions></trkpt>
<trkpt lat="22.4722706" lon="114.2296793">
<ele>11</ele><time>2023-03-19T09:23:07.998Z</time><extensions><gpxtpx:TrackPointExtension><gpxtpx:hr>108</gpxtpx:hr></gpxtpx:TrackPointExtension></extensions></trkpt>
<trkpt lat="22.4722832" lon="114.2297270">
<ele>11</ele><time>2023-03-19T09:23:10.998Z</time><extensions><gpxtpx:TrackPointExtension><gpxtpx:hr>108</gpxtpx:hr></gpxtpx:TrackPointExtension></extensions></trkpt>
<trkpt lat="22.4722912" lon="114.2297842">
<ele>11</ele><time>2023-03-19T09:23:13.998Z</time><extensions><gpxtpx:TrackPointExtension><gpxtpx:hr>109</gpxtpx:hr></gpxtpx:TrackPointExtension></extensions></trkpt>
<trkpt lat="22.4722978" lon="114.2298525">
<ele>11</ele><time>2023-03-19T09:23:16.998Z</time><extensions><gpxtpx:TrackPointExtension><gpxtpx:hr>109</gpxtpx:hr></gpxtpx:TrackPointExtension></extensions></trkpt>
<trkpt lat="22.4723083" lon="114.2299115">
<ele>11</ele><time>2023-03-19T09:23:18.998Z</time><extensions><gpxtpx:TrackPointExtension><gpxtpx:hr>109</gpxtpx:hr></gpxtpx:TrackPointExtension></extensions></trkpt>
<trkpt lat="22.4723667" lon="114.2299655">
<ele>11</ele><time>2023-03-19T09:23:20.998Z</time><extensions><gpxtpx:TrackPointExtension><gpxtpx:hr>109</gpxtpx:hr></gpxtpx:TrackPointExtension></extensions></trkpt>
<trkpt lat="22.4724187" lon="114.2300570">
<ele>11</ele><time>2023-03-19T09:23:22.998Z</time><extensions><gpxtpx:TrackPointExtension><gpxtpx:hr>110</gpxtpx:hr></gpxtpx:TrackPointExtension></extensions></trkpt>
<trkpt lat="22.4724293" lon="114.2301165">
<ele>11</ele><time>2023-03-19T09:23:23.998Z</time><extensions><gpxtpx:TrackPointExtension><gpxtpx:hr>110</gpxtpx:hr></gpxtpx:TrackPointExtension></extensions></trkpt>
<trkpt lat="22.4724321" lon="114.2301738">
<ele>11</ele><time>2023-03-19T09:23:24.998Z</time><extensions><gpxtpx:TrackPointExtension><gpxtpx:hr>110</gpxtpx:hr></gpxtpx:TrackPointExtension></extensions></trkpt>
<trkpt lat="22.4724461" lon="114.2302209">
<ele>11</ele><time>2023-03-19T09:23:25.998Z</time><extensions><gpxtpx:TrackPointExtension><gpxtpx:hr>110</gpxtpx:hr></gpxtpx:TrackPointExtension></extensions></trkpt>
<trkpt lat="22.4724541" lon="114.2302705">
<ele>11</ele><time>2023-03-19T09:23:26.998Z</time><extensions><gpxtpx:TrackPointExtension><gpxtpx:hr>110</gpxtpx:hr></gpxtpx:TrackPointExtension></extensions></trkpt>
<trkpt lat="22.4724668" lon="114.2303579">
<ele>11</ele><time>2023-03-19T09:23:28.998Z</time><extensions><gpxtpx:TrackPointExtension><gpxtpx:hr>112</gpxtpx:hr></gpxtpx:TrackPointExtension></extensions></trkpt>
<trkpt lat="22.4724762" lon="114.2304087">
<ele>11</ele><time>2023-03-19T09:23:31.998Z</time><extensions><gpxtpx:TrackPointExtension><gpxtpx:hr>112</gpxtpx:hr></gpxtpx:TrackPointExtension></extensions></trkpt>
<trkpt lat="22.4724920" lon="114.2304729">
<ele>11</ele><time>2023-03-19T09:23:34.998Z</time><extensions><gpxtpx:TrackPointExtension><gpxtpx:hr>112</gpxtpx:hr></gpxtpx:TrackPointExtension></extensions></trkpt>
<trkpt lat="22.4724963" lon="114.2305410">
<ele>11</ele><time>2023-03-19T09:23:36.998Z</time><extensions><gpxtpx:TrackPointExtension><gpxtpx:hr>112</gpxtpx:hr></gpxtpx:TrackPointExtension></extensions></trkpt>
<trkpt lat="22.4725067" lon="114.2306118">
<ele>11</ele><time>2023-03-19T09:23:38.998Z</time><extensions><gpxtpx:TrackPointExtension><gpxtpx:hr>112</gpxtpx:hr></gpxtpx:TrackPointExtension></extensions></trkpt>
<trkpt lat="22.4725068" lon="114.2306976">
<ele>11</ele><time>2023-03-19T09:23:40.998Z</time><extensions><gpxtpx:TrackPointExtension><gpxtpx:hr>112</gpxtpx:hr></gpxtpx:TrackPointExtension></extensions></trkpt>
<trkpt lat="22.4725211" lon="114.2307807">
<ele>11</ele><time>2023-03-19T09:23:42.998Z</time><extensions><gpxtpx:TrackPointExtension><gpxtpx:hr>113</gpxtpx:hr></gpxtpx:TrackPointExtension></extensions></trkpt>
<trkpt lat="22.4725438" lon="114.2308638">
<ele>10</ele><time>2023-03-19T09:23:44.998Z</time><extensions><gpxtpx:TrackPointExtension><gpxtpx:hr>113</gpxtpx:hr></gpxtpx:TrackPointExtension></extensions></trkpt>
<trkpt lat="22.4725648" lon="114.2309452">
<ele>10</ele><time>2023-03-19T09:23:46.998Z</time><extensions><gpxtpx:TrackPointExtension><gpxtpx:hr>113</gpxtpx:hr></gpxtpx:TrackPointExtension></extensions></trkpt>
<trkpt lat="22.4726026" lon="114.2310202">
<ele>10</ele><time>2023-03-19T09:23:48.998Z</time><extensions><gpxtpx:TrackPointExtension><gpxtpx:hr>114</gpxtpx:hr></gpxtpx:TrackPointExtension></extensions></trkpt>
<trkpt lat="22.4726388" lon="114.2310879">
<ele>10</ele><time>2023-03-19T09:23:50.998Z</time><extensions><gpxtpx:TrackPointExtension><gpxtpx:hr>114</gpxtpx:hr></gpxtpx:TrackPointExtension></extensions></trkpt>
<trkpt lat="22.4726829" lon="114.2311492">
<ele>10</ele><time>2023-03-19T09:23:52.998Z</time><extensions><gpxtpx:TrackPointExtension><gpxtpx:hr>114</gpxtpx:hr></gpxtpx:TrackPointExtension></extensions></trkpt>
<trkpt lat="22.4727181" lon="114.2312121">
<ele>10</ele><time>2023-03-19T09:23:54.998Z</time><extensions><gpxtpx:TrackPointExtension><gpxtpx:hr>114</gpxtpx:hr></gpxtpx:TrackPointExtension></extensions></trkpt>
<trkpt lat="22.4727393" lon="114.2312830">
<ele>10</ele><time>2023-03-19T09:23:56.999Z</time><extensions><gpxtpx:TrackPointExtension><gpxtpx:hr>114</gpxtpx:hr></gpxtpx:TrackPointExtension></extensions></trkpt>
<trkpt lat="22.4727693" lon="114.2313479">
<ele>10</ele><time>2023-03-19T09:23:58.999Z</time><extensions><gpxtpx:TrackPointExtension><gpxtpx:hr>113</gpxtpx:hr></gpxtpx:TrackPointExtension></extensions></trkpt>
<trkpt lat="22.4727882" lon="114.2314212">
<ele>10</ele><time>2023-03-19T09:24:00.999Z</time><extensions><gpxtpx:TrackPointExtension><gpxtpx:hr>113</gpxtpx:hr></gpxtpx:TrackPointExtension></extensions></trkpt>
<trkpt lat="22.4728084" lon="114.2314959">
<ele>10</ele><time>2023-03-19T09:24:02.999Z</time><extensions><gpxtpx:TrackPointExtension><gpxtpx:hr>112</gpxtpx:hr></gpxtpx:TrackPointExtension></extensions></trkpt>
<trkpt lat="22.4728173" lon="114.2315620">
<ele>10</ele><time>2023-03-19T09:24:04.999Z</time><extensions><gpxtpx:TrackPointExtension><gpxtpx:hr>112</gpxtpx:hr></gpxtpx:TrackPointExtension></extensions></trkpt>
<trkpt lat="22.4728318" lon="114.2316249">
<ele>10</ele><time>2023-03-19T09:24:06.999Z</time><extensions><gpxtpx:TrackPointExtension><gpxtpx:hr>112</gpxtpx:hr></gpxtpx:TrackPointExtension></extensions></trkpt>
<trkpt lat="22.4728406" lon="114.2316859">
<ele>10</ele><time>2023-03-19T09:24:08.999Z</time><extensions><gpxtpx:TrackPointExtension><gpxtpx:hr>111</gpxtpx:hr></gpxtpx:TrackPointExtension></extensions></trkpt>
<trkpt lat="22.4728409" lon="114.2317509">
<ele>10</ele><time>2023-03-19T09:24:11.999Z</time><extensions><gpxtpx:TrackPointExtension><gpxtpx:hr>111</gpxtpx:hr></gpxtpx:TrackPointExtension></extensions></trkpt>
<trkpt lat="22.4728471" lon="114.2318121">
<ele>10</ele><time>2023-03-19T09:24:14.999Z</time><extensions><gpxtpx:TrackPointExtension><gpxtpx:hr>113</gpxtpx:hr></gpxtpx:TrackPointExtension></extensions></trkpt>
<trkpt lat="22.4728336" lon="114.2318592">
<ele>10</ele><time>2023-03-19T09:24:16.999Z</time><extensions><gpxtpx:TrackPointExtension><gpxtpx:hr>113</gpxtpx:hr></gpxtpx:TrackPointExtension></extensions></trkpt>
<trkpt lat="22.4728386" lon="114.2319325">
<ele>10</ele><time>2023-03-19T09:24:19.999Z</time><extensions><gpxtpx:TrackPointExtension><gpxtpx:hr>115</gpxtpx:hr></gpxtpx:TrackPointExtension></extensions></trkpt>
<trkpt lat="22.4728544" lon="114.2319823">
<ele>10</ele><time>2023-03-19T09:24:21.999Z</time><extensions><gpxtpx:TrackPointExtension><gpxtpx:hr>115</gpxtpx:hr></gpxtpx:TrackPointExtension></extensions></trkpt>
<trkpt lat="22.4728654" lon="114.2320382">
<ele>11</ele><time>2023-03-19T09:24:23.999Z</time><extensions><gpxtpx:TrackPointExtension><gpxtpx:hr>115</gpxtpx:hr></gpxtpx:TrackPointExtension></extensions></trkpt>
<trkpt lat="22.4728707" lon="114.2321057">
<ele>11</ele><time>2023-03-19T09:24:25.999Z</time><extensions><gpxtpx:TrackPointExtension><gpxtpx:hr>115</gpxtpx:hr></gpxtpx:TrackPointExtension></extensions></trkpt>
<trkpt lat="22.4728734" lon="114.2321853">
<ele>11</ele><time>2023-03-19T09:24:27.999Z</time><extensions><gpxtpx:TrackPointExtension><gpxtpx:hr>113</gpxtpx:hr></gpxtpx:TrackPointExtension></extensions></trkpt>
<trkpt lat="22.4728694" lon="114.2322360">
<ele>11</ele><time>2023-03-19T09:24:29.999Z</time><extensions><gpxtpx:TrackPointExtension><gpxtpx:hr>113</gpxtpx:hr></gpxtpx:TrackPointExtension></extensions></trkpt>
<trkpt lat="22.4728938" lon="114.2323040">
<ele>11</ele><time>2023-03-19T09:24:31.999Z</time><extensions><gpxtpx:TrackPointExtension><gpxtpx:hr>113</gpxtpx:hr></gpxtpx:TrackPointExtension></extensions></trkpt>
<trkpt lat="22.4729157" lon="114.2323711">
<ele>11</ele><time>2023-03-19T09:24:33.999Z</time><extensions><gpxtpx:TrackPointExtension><gpxtpx:hr>113</gpxtpx:hr></gpxtpx:TrackPointExtension></extensions></trkpt>
<trkpt lat="22.4729273" lon="114.2324388">
<ele>11</ele><time>2023-03-19T09:24:35.999Z</time><extensions><gpxtpx:TrackPointExtension><gpxtpx:hr>113</gpxtpx:hr></gpxtpx:TrackPointExtension></extensions></trkpt>
<trkpt lat="22.4729310" lon="114.2325079">
<ele>11</ele><time>2023-03-19T09:24:37.999Z</time><extensions><gpxtpx:TrackPointExtension><gpxtpx:hr>113</gpxtpx:hr></gpxtpx:TrackPointExtension></extensions></trkpt>
<trkpt lat="22.4729413" lon="114.2325821">
<ele>11</ele><time>2023-03-19T09:24:39.999Z</time><extensions><gpxtpx:TrackPointExtension><gpxtpx:hr>113</gpxtpx:hr></gpxtpx:TrackPointExtension></extensions></trkpt>
<trkpt lat="22.4729727" lon="114.2326524">
<ele>11</ele><time>2023-03-19T09:24:41.999Z</time><extensions><gpxtpx:TrackPointExtension><gpxtpx:hr>113</gpxtpx:hr></gpxtpx:TrackPointExtension></extensions></trkpt>
<trkpt lat="22.4729848" lon="114.2327225">
<ele>11</ele><time>2023-03-19T09:24:43.999Z</time><extensions><gpxtpx:TrackPointExtension><gpxtpx:hr>112</gpxtpx:hr></gpxtpx:TrackPointExtension></extensions></trkpt>
<trkpt lat="22.4730089" lon="114.2327741">
<ele>11</ele><time>2023-03-19T09:24:45.999Z</time><extensions><gpxtpx:TrackPointExtension><gpxtpx:hr>112</gpxtpx:hr></gpxtpx:TrackPointExtension></extensions></trkpt>
<trkpt lat="22.4730134" lon="114.2328227">
<ele>11</ele><time>2023-03-19T09:24:47.999Z</time><extensions><gpxtpx:TrackPointExtension><gpxtpx:hr>112</gpxtpx:hr></gpxtpx:TrackPointExtension></extensions></trkpt>
<trkpt lat="22.4730127" lon="114.2328784">
<ele>11</ele><time>2023-03-19T09:24:50.999Z</time><extensions><gpxtpx:TrackPointExtension><gpxtpx:hr>112</gpxtpx:hr></gpxtpx:TrackPointExtension></extensions></trkpt>
<trkpt lat="22.4730171" lon="114.2329306">
<ele>11</ele><time>2023-03-19T09:24:52.999Z</time><extensions><gpxtpx:TrackPointExtension><gpxtpx:hr>111</gpxtpx:hr></gpxtpx:TrackPointExtension></extensions></trkpt>
<trkpt lat="22.4730165" lon="114.2329810">
<ele>11</ele><time>2023-03-19T09:24:54.999Z</time><extensions><gpxtpx:TrackPointExtension><gpxtpx:hr>111</gpxtpx:hr></gpxtpx:TrackPointExtension></extensions></trkpt>
<trkpt lat="22.4730190" lon="114.2330438">
<ele>11</ele><time>2023-03-19T09:24:57.999Z</time><extensions><gpxtpx:TrackPointExtension><gpxtpx:hr>111</gpxtpx:hr></gpxtpx:TrackPointExtension></extensions></trkpt>
<trkpt lat="22.4730240" lon="114.2330981">
<ele>11</ele><time>2023-03-19T09:25:00.999Z</time><extensions><gpxtpx:TrackPointExtension><gpxtpx:hr>111</gpxtpx:hr></gpxtpx:TrackPointExtension></extensions></trkpt>
<trkpt lat="22.4729947" lon="114.2331455">
<ele>11</ele><time>2023-03-19T09:25:05.999Z</time><extensions><gpxtpx:TrackPointExtension><gpxtpx:hr>113</gpxtpx:hr></gpxtpx:TrackPointExtension></extensions></trkpt>
<trkpt lat="22.4729457" lon="114.2331558">
<ele>11</ele><time>2023-03-19T09:25:09.999Z</time><extensions><gpxtpx:TrackPointExtension><gpxtpx:hr>115</gpxtpx:hr></gpxtpx:TrackPointExtension></extensions></trkpt>
<trkpt lat="22.4728905" lon="114.2331798">
<ele>11</ele><time>2023-03-19T09:25:13.998Z</time><extensions><gpxtpx:TrackPointExtension><gpxtpx:hr>109</gpxtpx:hr></gpxtpx:TrackPointExtension></extensions></trkpt>
<trkpt lat="22.4728443" lon="114.2331835">
<ele>11</ele><time>2023-03-19T09:25:17.998Z</time><extensions><gpxtpx:TrackPointExtension><gpxtpx:hr>109</gpxtpx:hr></gpxtpx:TrackPointExtension></extensions></trkpt>
<trkpt lat="22.4727899" lon="114.2331635">
<ele>11</ele><time>2023-03-19T09:25:22.998Z</time><extensions><gpxtpx:TrackPointExtension><gpxtpx:hr>110</gpxtpx:hr></gpxtpx:TrackPointExtension></extensions></trkpt>
<trkpt lat="22.4727337" lon="114.2331488">
<ele>11</ele><time>2023-03-19T09:25:25.998Z</time><extensions><gpxtpx:TrackPointExtension><gpxtpx:hr>110</gpxtpx:hr></gpxtpx:TrackPointExtension></extensions></trkpt>
<trkpt lat="22.4726820" lon="114.2331581">
<ele>11</ele><time>2023-03-19T09:25:28.998Z</time><extensions><gpxtpx:TrackPointExtension><gpxtpx:hr>109</gpxtpx:hr></gpxtpx:TrackPointExtension></extensions></trkpt>
<trkpt lat="22.4726369" lon="114.2331603">
<ele>11</ele><time>2023-03-19T09:25:30.998Z</time><extensions><gpxtpx:TrackPointExtension><gpxtpx:hr>109</gpxtpx:hr></gpxtpx:TrackPointExtension></extensions></trkpt>
<trkpt lat="22.4725748" lon="114.2331715">
<ele>11</ele><time>2023-03-19T09:25:32.998Z</time><extensions><gpxtpx:TrackPointExtension><gpxtpx:hr>110</gpxtpx:hr></gpxtpx:TrackPointExtension></extensions></trkpt>
<trkpt lat="22.4725011" lon="114.2332157">
<ele>11</ele><time>2023-03-19T09:25:34.998Z</time><extensions><gpxtpx:TrackPointExtension><gpxtpx:hr>110</gpxtpx:hr></gpxtpx:TrackPointExtension></extensions></trkpt>
<trkpt lat="22.4724145" lon="114.2332542">
<ele>11</ele><time>2023-03-19T09:25:36.998Z</time><extensions><gpxtpx:TrackPointExtension><gpxtpx:hr>110</gpxtpx:hr></gpxtpx:TrackPointExtension></extensions></trkpt>
<trkpt lat="22.4723658" lon="114.2332658">
<ele>11</ele><time>2023-03-19T09:25:37.998Z</time><extensions><gpxtpx:TrackPointExtension><gpxtpx:hr>112</gpxtpx:hr></gpxtpx:TrackPointExtension></extensions></trkpt>
<trkpt lat="22.4723168" lon="114.2332750">
<ele>11</ele><time>2023-03-19T09:25:38.998Z</time><extensions><gpxtpx:TrackPointExtension><gpxtpx:hr>112</gpxtpx:hr></gpxtpx:TrackPointExtension></extensions></trkpt>
<trkpt lat="22.4722693" lon="114.2332844">
<ele>11</ele><time>2023-03-19T09:25:39.998Z</time><extensions><gpxtpx:TrackPointExtension><gpxtpx:hr>112</gpxtpx:hr></gpxtpx:TrackPointExtension></extensions></trkpt>
<trkpt lat="22.4722186" lon="114.2332929">
<ele>11</ele><time>2023-03-19T09:25:40.998Z</time><extensions><gpxtpx:TrackPointExtension><gpxtpx:hr>112</gpxtpx:hr></gpxtpx:TrackPointExtension></extensions></trkpt>
<trkpt lat="22.4721714" lon="114.2333029">
<ele>11</ele><time>2023-03-19T09:25:41.998Z</time><extensions><gpxtpx:TrackPointExtension><gpxtpx:hr>112</gpxtpx:hr></gpxtpx:TrackPointExtension></extensions></trkpt>
<trkpt lat="22.4721265" lon="114.2333111">
<ele>11</ele><time>2023-03-19T09:25:42.998Z</time><extensions><gpxtpx:TrackPointExtension><gpxtpx:hr>115</gpxtpx:hr></gpxtpx:TrackPointExtension></extensions></trkpt>
<trkpt lat="22.4720810" lon="114.2333228">
<ele>11</ele><time>2023-03-19T09:25:43.998Z</time><extensions><gpxtpx:TrackPointExtension><gpxtpx:hr>115</gpxtpx:hr></gpxtpx:TrackPointExtension></extensions></trkpt>
<trkpt lat="22.4719962" lon="114.2333475">
<ele>11</ele><time>2023-03-19T09:25:45.998Z</time><extensions><gpxtpx:TrackPointExtension><gpxtpx:hr>115</gpxtpx:hr></gpxtpx:TrackPointExtension></extensions></trkpt>
<trkpt lat="22.4719238" lon="114.2333584">
<ele>11</ele><time>2023-03-19T09:25:47.998Z</time><extensions><gpxtpx:TrackPointExtension><gpxtpx:hr>118</gpxtpx:hr></gpxtpx:TrackPointExtension></extensions></trkpt>
<trkpt lat="22.4718558" lon="114.2333849">
<ele>11</ele><time>2023-03-19T09:25:49.998Z</time><extensions><gpxtpx:TrackPointExtension><gpxtpx:hr>118</gpxtpx:hr></gpxtpx:TrackPointExtension></extensions></trkpt>
<trkpt lat="22.4718065" lon="114.2333879">
<ele>11</ele><time>2023-03-19T09:25:51.998Z</time><extensions><gpxtpx:TrackPointExtension><gpxtpx:hr>118</gpxtpx:hr></gpxtpx:TrackPointExtension></extensions></trkpt>
<trkpt lat="22.4717448" lon="114.2333776">
<ele>11</ele><time>2023-03-19T09:25:54.998Z</time><extensions><gpxtpx:TrackPointExtension><gpxtpx:hr>116</gpxtpx:hr></gpxtpx:TrackPointExtension></extensions></trkpt>
<trkpt lat="22.4716991" lon="114.2333552">
<ele>11</ele><time>2023-03-19T09:25:57.998Z</time><extensions><gpxtpx:TrackPointExtension><gpxtpx:hr>113</gpxtpx:hr></gpxtpx:TrackPointExtension></extensions></trkpt>
<trkpt lat="22.4716687" lon="114.2333160">
<ele>11</ele><time>2023-03-19T09:26:00.998Z</time><extensions><gpxtpx:TrackPointExtension><gpxtpx:hr>113</gpxtpx:hr></gpxtpx:TrackPointExtension></extensions></trkpt>
<trkpt lat="22.4716480" lon="114.2332516">
<ele>11</ele><time>2023-03-19T09:26:03.999Z</time><extensions><gpxtpx:TrackPointExtension><gpxtpx:hr>112</gpxtpx:hr></gpxtpx:TrackPointExtension></extensions></trkpt>
<trkpt lat="22.4716205" lon="114.2332127">
<ele>11</ele><time>2023-03-19T09:26:06.000Z</time><extensions><gpxtpx:TrackPointExtension><gpxtpx:hr>112</gpxtpx:hr></gpxtpx:TrackPointExtension></extensions></trkpt>
<trkpt lat="22.4715643" lon="114.2331912">
<ele>11</ele><time>2023-03-19T09:26:09.000Z</time><extensions><gpxtpx:TrackPointExtension><gpxtpx:hr>110</gpxtpx:hr></gpxtpx:TrackPointExtension></extensions></trkpt>
<trkpt lat="22.4715070" lon="114.2331584">
<ele>11</ele><time>2023-03-19T09:26:12.000Z</time><extensions><gpxtpx:TrackPointExtension><gpxtpx:hr>110</gpxtpx:hr></gpxtpx:TrackPointExtension></extensions></trkpt>
<trkpt lat="22.4714468" lon="114.2331397">
<ele>11</ele><time>2023-03-19T09:26:15.000Z</time><extensions><gpxtpx:TrackPointExtension><gpxtpx:hr>109</gpxtpx:hr></gpxtpx:TrackPointExtension></extensions></trkpt>
<trkpt lat="22.4714032" lon="114.2331093">
<ele>11</ele><time>2023-03-19T09:26:17.999Z</time><extensions><gpxtpx:TrackPointExtension><gpxtpx:hr>108</gpxtpx:hr></gpxtpx:TrackPointExtension></extensions></trkpt>
<trkpt lat="22.4713567" lon="114.2330735">
<ele>11</ele><time>2023-03-19T09:26:20.999Z</time><extensions><gpxtpx:TrackPointExtension><gpxtpx:hr>108</gpxtpx:hr></gpxtpx:TrackPointExtension></extensions></trkpt>
<trkpt lat="22.4713098" lon="114.2330636">
<ele>11</ele><time>2023-03-19T09:26:22.999Z</time><extensions><gpxtpx:TrackPointExtension><gpxtpx:hr>109</gpxtpx:hr></gpxtpx:TrackPointExtension></extensions></trkpt>
<trkpt lat="22.4712688" lon="114.2330418">
<ele>11</ele><time>2023-03-19T09:26:24.999Z</time><extensions><gpxtpx:TrackPointExtension><gpxtpx:hr>109</gpxtpx:hr></gpxtpx:TrackPointExtension></extensions></trkpt>
<trkpt lat="22.4712271" lon="114.2330228">
<ele>11</ele><time>2023-03-19T09:26:26.999Z</time><extensions><gpxtpx:TrackPointExtension><gpxtpx:hr>109</gpxtpx:hr></gpxtpx:TrackPointExtension></extensions></trkpt>
<trkpt lat="22.4711796" lon="114.2329954">
<ele>11</ele><time>2023-03-19T09:26:28.999Z</time><extensions><gpxtpx:TrackPointExtension><gpxtpx:hr>109</gpxtpx:hr></gpxtpx:TrackPointExtension></extensions></trkpt>
<trkpt lat="22.4711332" lon="114.2329747">
<ele>11</ele><time>2023-03-19T09:26:30.999Z</time><extensions><gpxtpx:TrackPointExtension><gpxtpx:hr>109</gpxtpx:hr></gpxtpx:TrackPointExtension></extensions></trkpt>
<trkpt lat="22.4710862" lon="114.2329566">
<ele>11</ele><time>2023-03-19T09:26:33.999Z</time><extensions><gpxtpx:TrackPointExtension><gpxtpx:hr>109</gpxtpx:hr></gpxtpx:TrackPointExtension></extensions></trkpt>
<trkpt lat="22.4710367" lon="114.2329377">
<ele>11</ele><time>2023-03-19T09:26:37.999Z</time><extensions><gpxtpx:TrackPointExtension><gpxtpx:hr>110</gpxtpx:hr></gpxtpx:TrackPointExtension></extensions></trkpt>
<trkpt lat="22.4709902" lon="114.2329068">
<ele>11</ele><time>2023-03-19T09:26:41.999Z</time><extensions><gpxtpx:TrackPointExtension><gpxtpx:hr>110</gpxtpx:hr></gpxtpx:TrackPointExtension></extensions></trkpt>
<trkpt lat="22.4710423" lon="114.2329147">
<ele>11</ele><time>2023-03-19T09:26:49.999Z</time><extensions><gpxtpx:TrackPointExtension><gpxtpx:hr>110</gpxtpx:hr></gpxtpx:TrackPointExtension></extensions></trkpt>
<trkpt lat="22.4711046" lon="114.2329321">
<ele>11</ele><time>2023-03-19T09:26:52.999Z</time><extensions><gpxtpx:TrackPointExtension><gpxtpx:hr>111</gpxtpx:hr></gpxtpx:TrackPointExtension></extensions></trkpt>
<trkpt lat="22.4711696" lon="114.2329555">
<ele>11</ele><time>2023-03-19T09:26:54.999Z</time><extensions><gpxtpx:TrackPointExtension><gpxtpx:hr>111</gpxtpx:hr></gpxtpx:TrackPointExtension></extensions></trkpt>
<trkpt lat="22.4712115" lon="114.2329851">
<ele>11</ele><time>2023-03-19T09:26:56.999Z</time><extensions><gpxtpx:TrackPointExtension><gpxtpx:hr>111</gpxtpx:hr></gpxtpx:TrackPointExtension></extensions></trkpt>
<trkpt lat="22.4712588" lon="114.2330031">
<ele>11</ele><time>2023-03-19T09:26:58.999Z</time><extensions><gpxtpx:TrackPointExtension><gpxtpx:hr>115</gpxtpx:hr></gpxtpx:TrackPointExtension></extensions></trkpt>
<trkpt lat="22.4713132" lon="114.2330364">
<ele>11</ele><time>2023-03-19T09:27:01.999Z</time><extensions><gpxtpx:TrackPointExtension><gpxtpx:hr>115</gpxtpx:hr></gpxtpx:TrackPointExtension></extensions></trkpt>
<trkpt lat="22.4713741" lon="114.2330592">
<ele>11</ele><time>2023-03-19T09:27:04.999Z</time><extensions><gpxtpx:TrackPointExtension><gpxtpx:hr>116</gpxtpx:hr></gpxtpx:TrackPointExtension></extensions></trkpt>
<trkpt lat="22.4714200" lon="114.2330740">
<ele>11</ele><time>2023-03-19T09:27:06.999Z</time><extensions><gpxtpx:TrackPointExtension><gpxtpx:hr>116</gpxtpx:hr></gpxtpx:TrackPointExtension></extensions></trkpt>
<trkpt lat="22.4714709" lon="114.2331135">
<ele>11</ele><time>2023-03-19T09:27:09.999Z</time><extensions><gpxtpx:TrackPointExtension><gpxtpx:hr>115</gpxtpx:hr></gpxtpx:TrackPointExtension></extensions></trkpt>
<trkpt lat="22.4715030" lon="114.2330792">
<ele>11</ele><time>2023-03-19T09:27:11.999Z</time><extensions><gpxtpx:TrackPointExtension><gpxtpx:hr>115</gpxtpx:hr></gpxtpx:TrackPointExtension></extensions></trkpt>
<trkpt lat="22.4715341" lon="114.2330304">
<ele>11</ele><time>2023-03-19T09:27:13.999Z</time><extensions><gpxtpx:TrackPointExtension><gpxtpx:hr>114</gpxtpx:hr></gpxtpx:TrackPointExtension></extensions></trkpt>
<trkpt lat="22.4715476" lon="114.2329834">
<ele>11</ele><time>2023-03-19T09:27:15.998Z</time><extensions><gpxtpx:TrackPointExtension><gpxtpx:hr>114</gpxtpx:hr></gpxtpx:TrackPointExtension></extensions></trkpt>
<trkpt lat="22.4715659" lon="114.2329147">
<ele>11</ele><time>2023-03-19T09:27:18.998Z</time><extensions><gpxtpx:TrackPointExtension><gpxtpx:hr>113</gpxtpx:hr></gpxtpx:TrackPointExtension></extensions></trkpt>
<trkpt lat="22.4715672" lon="114.2328560">
<ele>11</ele><time>2023-03-19T09:27:21.998Z</time><extensions><gpxtpx:TrackPointExtension><gpxtpx:hr>113</gpxtpx:hr></gpxtpx:TrackPointExtension></extensions></trkpt>
<trkpt lat="22.4715518" lon="114.2328076">
<ele>11</ele><time>2023-03-19T09:27:30.998Z</time><extensions><gpxtpx:TrackPointExtension><gpxtpx:hr>114</gpxtpx:hr></gpxtpx:TrackPointExtension></extensions></trkpt>
<trkpt lat="22.4715441" lon="114.2328691">
<ele>11</ele><time>2023-03-19T09:28:42.999Z</time><extensions><gpxtpx:TrackPointExtension><gpxtpx:hr>111</gpxtpx:hr></gpxtpx:TrackPointExtension></extensions></trkpt>
<trkpt lat="22.4715446" lon="114.2329327">
<ele>11</ele><time>2023-03-19T09:28:48.999Z</time><extensions><gpxtpx:TrackPointExtension><gpxtpx:hr>111</gpxtpx:hr></gpxtpx:TrackPointExtension></extensions></trkpt>
<trkpt lat="22.4715402" lon="114.2329821">
<ele>11</ele><time>2023-03-19T09:28:54.999Z</time><extensions><gpxtpx:TrackPointExtension><gpxtpx:hr>106</gpxtpx:hr></gpxtpx:TrackPointExtension></extensions></trkpt>
<trkpt lat="22.4715284" lon="114.2330383">
<ele>11</ele><time>2023-03-19T09:28:58.999Z</time><extensions><gpxtpx:TrackPointExtension><gpxtpx:hr>109</gpxtpx:hr></gpxtpx:TrackPointExtension></extensions></trkpt>
<trkpt lat="22.4715109" lon="114.2330923">
<ele>11</ele><time>2023-03-19T09:29:02.999Z</time><extensions><gpxtpx:TrackPointExtension><gpxtpx:hr>110</gpxtpx:hr></gpxtpx:TrackPointExtension></extensions></trkpt>
<trkpt lat="22.4714712" lon="114.2331219">
<ele>11</ele><time>2023-03-19T09:29:05.999Z</time><extensions><gpxtpx:TrackPointExtension><gpxtpx:hr>110</gpxtpx:hr></gpxtpx:TrackPointExtension></extensions></trkpt>
<trkpt lat="22.4714307" lon="114.2330791">
<ele>11</ele><time>2023-03-19T09:29:07.999Z</time><extensions><gpxtpx:TrackPointExtension><gpxtpx:hr>112</gpxtpx:hr></gpxtpx:TrackPointExtension></extensions></trkpt>
<trkpt lat="22.4713787" lon="114.2330701">
<ele>11</ele><time>2023-03-19T09:29:10.999Z</time><extensions><gpxtpx:TrackPointExtension><gpxtpx:hr>112</gpxtpx:hr></gpxtpx:TrackPointExtension></extensions></trkpt>
<trkpt lat="22.4713268" lon="114.2330564">
<ele>11</ele><time>2023-03-19T09:29:13.999Z</time><extensions><gpxtpx:TrackPointExtension><gpxtpx:hr>114</gpxtpx:hr></gpxtpx:TrackPointExtension></extensions></trkpt>
<trkpt lat="22.4712734" lon="114.2330415">
<ele>11</ele><time>2023-03-19T09:29:18.998Z</time><extensions><gpxtpx:TrackPointExtension><gpxtpx:hr>116</gpxtpx:hr></gpxtpx:TrackPointExtension></extensions></trkpt>
<trkpt lat="22.4712284" lon="114.2330237">
<ele>11</ele><time>2023-03-19T09:29:22.998Z</time><extensions><gpxtpx:TrackPointExtension><gpxtpx:hr>119</gpxtpx:hr></gpxtpx:TrackPointExtension></extensions></trkpt>
<trkpt lat="22.4711794" lon="114.2330019">
<ele>11</ele><time>2023-03-19T09:29:26.998Z</time><extensions><gpxtpx:TrackPointExtension><gpxtpx:hr>119</gpxtpx:hr></gpxtpx:TrackPointExtension></extensions></trkpt>
<trkpt lat="22.4711307" lon="114.2329795">
<ele>11</ele><time>2023-03-19T09:29:30.998Z</time><extensions><gpxtpx:TrackPointExtension><gpxtpx:hr>119</gpxtpx:hr></gpxtpx:TrackPointExtension></extensions></trkpt>
<trkpt lat="22.4710808" lon="114.2329514">
<ele>11</ele><time>2023-03-19T09:29:35.998Z</time><extensions><gpxtpx:TrackPointExtension><gpxtpx:hr>119</gpxtpx:hr></gpxtpx:TrackPointExtension></extensions></trkpt>
<trkpt lat="22.4710327" lon="114.2329261">
<ele>11</ele><time>2023-03-19T09:29:39.998Z</time><extensions><gpxtpx:TrackPointExtension><gpxtpx:hr>119</gpxtpx:hr></gpxtpx:TrackPointExtension></extensions></trkpt>
<trkpt lat="22.4709816" lon="114.2329067">
<ele>11</ele><time>2023-03-19T09:29:43.998Z</time><extensions><gpxtpx:TrackPointExtension><gpxtpx:hr>119</gpxtpx:hr></gpxtpx:TrackPointExtension></extensions></trkpt>
<trkpt lat="22.4709290" lon="114.2328983">
<ele>11</ele><time>2023-03-19T09:29:54.998Z</time><extensions><gpxtpx:TrackPointExtension><gpxtpx:hr>119</gpxtpx:hr></gpxtpx:TrackPointExtension></extensions></trkpt>
<trkpt lat="22.4709590" lon="114.2328584">
<ele>11</ele><time>2023-03-19T09:30:21.999Z</time><extensions><gpxtpx:TrackPointExtension><gpxtpx:hr>117</gpxtpx:hr></gpxtpx:TrackPointExtension></extensions></trkpt>
<trkpt lat="22.4709802" lon="114.2328113">
<ele>11</ele><time>2023-03-19T09:30:31.999Z</time><extensions><gpxtpx:TrackPointExtension><gpxtpx:hr>117</gpxtpx:hr></gpxtpx:TrackPointExtension></extensions></trkpt>
<trkpt lat="22.4710262" lon="114.2328102">
<ele>11</ele><time>2023-03-19T09:31:40.998Z</time><extensions><gpxtpx:TrackPointExtension><gpxtpx:hr>97</gpxtpx:hr></gpxtpx:TrackPointExtension></extensions></trkpt>
<trkpt lat="22.4710584" lon="114.2327735">
<ele>11</ele><time>2023-03-19T09:31:45.998Z</time><extensions><gpxtpx:TrackPointExtension><gpxtpx:hr>97</gpxtpx:hr></gpxtpx:TrackPointExtension></extensions></trkpt>
<trkpt lat="22.4710160" lon="114.2328036">
<ele>11</ele><time>2023-03-19T09:31:59.998Z</time><extensions><gpxtpx:TrackPointExtension><gpxtpx:hr>98</gpxtpx:hr></gpxtpx:TrackPointExtension></extensions></trkpt>
<trkpt lat="22.4709875" lon="114.2328424">
<ele>11</ele><time>2023-03-19T09:32:16.998Z</time><extensions><gpxtpx:TrackPointExtension><gpxtpx:hr>95</gpxtpx:hr></gpxtpx:TrackPointExtension></extensions></trkpt>
<trkpt lat="22.4709531" lon="114.2328758">
<ele>11</ele><time>2023-03-19T09:32:33.999Z</time><extensions><gpxtpx:TrackPointExtension><gpxtpx:hr>96</gpxtpx:hr></gpxtpx:TrackPointExtension></extensions></trkpt>
</trkseg><trkseg>
</trkseg></trk>
</gpx>
